     2              OBSERVATION DATA    GPS                 RINEX VERSION / TYPE
teqc 2000Jul20 Karen Wendt 20030414 22:25:36UTC             PGM / RUN BY / DATE
                                                            COMMENT
L2: 1 -> 1; 150 -> 5; 250 -> 9                              COMMENT
L2: 1 -> 1; 150 -> 5; 250 -> 9                              COMMENT
L2: 1 -> 1; 150 -> 5; 250 -> 9                              COMMENT
L2: 1 -> 1; 150 -> 5; 250 -> 9                              COMMENT
L2: 1 -> 1; 150 -> 5; 250 -> 9                              COMMENT
L2: 1 -> 1; 150 -> 5; 250 -> 9                              COMMENT
L2: 1 -> 1; 150 -> 5; 250 -> 9                              COMMENT
L2: 1 -> 1; 150 -> 5; 250 -> 9                              COMMENT
L2: 1 -> 1; 150 -> 5; 250 -> 9                              COMMENT
L2: 1 -> 1; 150 -> 5; 250 -> 9                              COMMENT
L2: 1 -> 1; 150 -> 5; 250 -> 9                              COMMENT
L2: 1 -> 1; 150 -> 5; 250 -> 9                              COMMENT
L2: 1 -> 1; 150 -> 5; 250 -> 9                              COMMENT
L2: 1 -> 1; 150 -> 5; 250 -> 9                              COMMENT
Original Marker Name: mide Mid_Ecc_1984_USGS                COMMENT
Campaign Name: USGS 2003                                    COMMENT
4-Character Station Name: MIDE                              COMMENT
6-Character Antenna Code: DMRCHT                            COMMENT
Vertical Measurement Point: BCR                             COMMENT
Vertical Offset to Rinex Ref. Point: 0.0348                 COMMENT
Radial Measurement Point: ECF                               COMMENT
Radial Offset to Rinex Ref. Point: 0.1897                   COMMENT
Antenna Height from Field Measurement: 0.6400 m             COMMENT
Additional Antenna Identification Info.:                    COMMENT
Turborogue and Ashtech Choke Ring                           COMMENT
Original XYZ: -2623770.1355 -4454633.9763 3724124.5850      COMMENT
New XYZ position is based on association with SCEC monument COMMENT
E1F1N4C9+0011. Position of that monument is believed to be  COMMENT
valid to within 1 m horizontally; vertical accuracy         COMMENT
should be no worse than 3-times this value.                 COMMENT
                                                            COMMENT
Revised Rinex header created by UCSD GPS archive for        COMMENT
GSAC on 11-Jul-2003 (2003:192) 16:29:25 GMT                 COMMENT
For assistance contact dagnew@ucsd.edu                      COMMENT
or anderson@python.ucsd.edu                                 COMMENT
                                                            COMMENT
MID-ECC 1984                                                MARKER NAME
JMS US GEOLOGICAL SURVEY                                    OBSERVER / AGENCY
LP020000801 ASHTECH Z-XII3 CD00                             REC # / TYPE / VERS
CR14333 DORNE-MARGOL. TYPE T                                ANT # / TYPE
 -2623782.7965 -4454604.3620  3724109.9780                  APPROX POSITION XYZ
        0.5764        0.0000        0.0000                  ANTENNA: DELTA H/E/N
     1     1     0                                          WAVELENGTH FACT L1/2
     5    C1    L1    L2    P1    P2                        # / TYPES OF OBSERV
    30                                                      INTERVAL
  2003     4     3     0     1    0.000000                  TIME OF FIRST OBS
  2003     4     3    23    59   30.000000                  TIME OF LAST OBS
                                                            END OF HEADER
 03  4  3  0  1  0.0000000  0  7G17G14G 3G15G 9G23G18
  21485529.229   -10802343.24349  -8236052.35547  21485528.568    21485538.835
  22345049.630   -17573825.72449 -13681839.48946  22345049.055    22345060.197
  21991956.569   -13296610.10849 -10339660.75045  21991956.225    21991966.522
  20241631.691   -28011777.95249 -21818571.97548  20241630.831    20241639.424
  24092143.043    -7209727.81049  -5606807.94545  24092142.827    24092156.849
  21270510.602   -20561704.01349 -15745680.36147  21270509.923    21270518.790
  20616463.208   -27804698.96349 -21638777.26348  20616462.690    20616469.863
 03  4  3  0  1 30.0000000  0  7G17G14G 3G15G 9G23G18
  21494247.020   -10756530.68849  -8200354.27247  21494246.343    21494256.703
  22326383.645   -17671915.50549 -13758272.83346  22326383.057    22326394.036
  21983673.450   -13340138.27449 -10373578.69345  21983673.080    21983683.259
  20240737.825   -28016474.97849 -21822231.97348  20240736.969    20240745.675
  24081702.010    -7264595.32949  -5649561.59245  24081701.895    24081716.125
  21278424.102   -20520118.28349 -15713275.91147  21278423.444    21278432.367
  20622000.057   -27775602.43249 -21616104.64248  20621999.577    20622006.754
 03  4  3  0  2  0.0000000  0  7G17G14G 3G15G 9G23G18
  21503022.212   -10710416.99949  -8164421.55947  21503021.538    21503031.824
  22307772.475   -17769716.58649 -13834481.23946  22307771.932    22307782.888
  21975488.556   -13383150.59749 -10407094.70145  21975488.077    21975498.232
  20239907.286   -28020839.23949 -21825632.66848  20239906.444    20239915.204
  24071328.422    -7319108.99449  -5692039.53245  24071328.127    24071342.930
  21286369.702   -20478364.14149 -15680740.20547  21286368.993    21286377.902
  20627588.049   -27746237.59349 -21593222.94248  20627587.528    20627594.785
 03  4  3  0  2 30.0000000  0  7G17G14G 3G15G 9G23G18
  21511854.970   -10664001.33549  -8128253.53747  21511854.233    21511864.378
  22289216.688   -17867225.97749 -13910462.34446  22289216.277    22289227.259
  21967401.921   -13425645.04149 -10440207.20545  21967401.495    21967411.779
  20239140.333   -28024869.20249 -21828772.87348  20239139.505    20239148.306
  24061022.731    -7373265.43849  -5734239.12245  24061022.431    24061037.595
  21294347.106   -20436442.32749 -15648073.84347  21294346.411    21294355.355
  20633226.880   -27716605.34549 -21570132.88748  20633226.355    20633233.642
 03  4  3  0  3  0.0000000  0  7G17G14G 3G15G 9G23G18
  21520745.222   -10617282.73549  -8091849.44847  21520744.498    21520754.751
  22270717.364   -17964440.78249 -13986213.87946  22270716.834    22270727.720
  21959414.317   -13467619.84149 -10472914.74945  21959413.904    21959424.144
  20238437.321   -28028563.62349 -21831651.61148  20238436.482    20238445.175
  24050785.345    -7427061.50949  -5776157.93045  24050785.019    24050801.126
  21302356.198   -20394354.13649 -15615277.85947  21302355.516    21302364.445
  20638916.472   -27686706.69749 -21546835.22448  20638915.946    20638923.249
 03  4  3  0  3 30.0000000  0  7G17G14G 3G15G 9G23G18
  21529693.264   -10570260.98049  -8055209.13247  21529692.494    21529702.734
  22252274.386   -18061358.76749 -14061734.19146  22252273.723    22252284.702
  21951525.915   -13509074.11349 -10505216.71445  21951525.506    21951535.318
  20237798.348   -28031921.65349 -21834268.23748  20237797.504    20237806.103
  24040617.461    -7480494.46849  -5817793.77245  24040617.207    24040632.777
  21310396.774   -20352101.10149 -15582353.41347  21310396.070    21310404.969
  20644656.433   -27656543.24349 -21523331.19948  20644655.872    20644663.233
 03  4  3  0  4  0.0000000  0  7G17G14G 3G15G 9G23G18
  21538698.651   -10522937.01649  -8018333.34147  21538697.930    21538708.141
  22233887.771   -18157978.75049 -14137022.27246  22233887.211    22233898.410
  21943736.595   -13550007.43149 -10537112.73445  21943736.178    21943745.832
  20237223.313   -28034943.08849 -21836622.57548  20237222.493    20237231.063
  24030519.102    -7533562.47449  -5859145.18245  24030518.728    24030533.940
  21318468.111   -20309685.63049 -15549302.38347  21318467.432    21318476.407
  20650446.305   -27626117.24149 -21499622.61848  20650445.774    20650453.148
 03  4  3  0  4 30.0000000  0  7G17G14G 3G15G 9G23G18
  21547761.888   -10475309.38849  -7981220.92947  21547761.215    21547771.361
  22215558.876   -18254296.49649 -14212074.84946  22215558.369    22215569.502
  21936046.875   -13590416.82249 -10568600.49645  21936046.540    21936055.990
  20236712.729   -28037625.79749 -21838712.96748  20236711.916    20236720.569
  24020490.719    -7586261.31749  -5900208.99545  24020490.231    24020505.424
  21326570.387   -20267107.87449 -15516124.90647  21326569.733    21326578.748
  20656286.111   -27595428.72149 -21475709.48048  20656285.601    20656292.961
 03  4  3  0  5  0.0000000  0  7G17G14G 3G15G 9G23G18
  21556883.196   -10427377.32049  -7943871.28447  21556882.491    21556892.633
  22197288.161   -18350308.99449 -14286889.57446  22197287.687    22197298.741
  21928457.089   -13630300.61249 -10599678.73545  21928456.737    21928466.213
  20236266.963   -28039968.40249 -21840538.34748  20236266.174    20236274.756
  24010532.900    -7638587.73449  -5940982.65745  24010532.485    24010547.904
  21334703.350   -20224368.87249 -15482821.75647  21334702.653    21334711.759
  20662175.749   -27564478.59849 -21451592.47148  20662175.224    20662182.570
 03  4  3  0  5 30.0000000  0  7G17G14G 3G15G 9G23G18
  21566062.444   -10379140.22949  -7906283.98147  21566061.726    21566071.881
  22179076.322   -18446013.57649 -14361464.35446  22179075.666    22179086.460
  21920967.674   -13669657.18249 -10630346.14445  21920967.031    21920976.961
  20235886.267   -28041969.47449 -21842097.59548  20235885.428    20235893.931
  24000646.458    -7690538.31149  -5981463.45545  24000646.020    24000661.589
  21342866.880   -20181469.47749 -15449393.65747  21342866.181    21342875.224
  20668114.929   -27533268.10449 -21427272.59748  20668114.382    20668121.700
 03  4  3  0  6  0.0000000  0  7G17G14G 3G15G 9G23G18
  21575299.728   -10330597.86849  -7868458.80547  21575299.011    21575309.166
  22160923.389   -18541407.66249 -14435797.18446  22160922.703    22160933.172
  21913578.347   -13708485.12648 -10660601.57045  21913577.858    21913588.113
  20235570.717   -28043627.93449 -21843389.88448  20235569.837    20235578.283
  23990832.455    -7742110.44049  -6021649.30745  23990832.023    23990847.495
  21351060.631   -20138410.87449 -15415841.48247  21351059.919    21351068.938
  20674103.455   -27501798.15149 -21402750.54748  20674102.906    20674110.141
 03  4  3  0  6 30.0000000  0  7G17G14G 3G15G 9G23G18
  21584595.175   -10281750.50549  -7830395.95747  21584594.356    21584604.534
  22142829.721   -18636489.52249 -14509886.72846  22142829.138    22142839.390
  21906289.827   -13746784.23249 -10690444.95145  21906289.472    21906300.124
  20235320.231   -28044943.64449 -21844415.08048  20235319.390    20235327.883
  23981091.136    -7793302.04349  -6061538.63445  23981090.755    23981105.734
  21359284.197   -20095195.30749 -15382166.99847  21359283.506    21359292.538
  20680140.936   -27470070.90549 -21378027.99648  20680140.387    20680147.608
 03  4  3  0  7  0.0000000  0  7G17G14G 3G15G 9G23G18
  21593948.293   -10232599.18349  -7792096.26947  21593947.501    21593957.682
  22124795.856   -18731257.98449 -14583732.07646  22124795.203    22124805.430
  21899102.386   -13784554.34449 -10719876.12145  21899102.045    21899112.757
  20235134.948   -28045916.83849 -21845173.38448  20235134.118    20235142.673
  23971422.666    -7844111.60849  -6101130.27845  23971422.180    23971436.758
  21367537.128   -20051825.69549 -15348372.48547  21367536.452    21367545.435
  20686226.795   -27438089.34949 -21353107.28048  20686226.253    20686233.428
 03  4  3  0  7 30.0000000  0  7G17G14G 3G15G 9G23G18
  21603359.130   -10183144.57549  -7753560.27047  21603358.456    21603368.668
  22106821.795   -18825711.51949 -14657332.02446  22106821.077    22106831.473
  21892016.341   -13821795.05649 -10748894.81145  21892015.722    21892026.027
  20235014.970   -28046547.50549 -21845664.81048  20235014.151    20235022.667
  23961826.975    -7894537.07549  -6140422.63645  23961826.612    23961841.173
  21375819.010   -20008304.12649 -15314459.57347  21375818.289    21375827.263
  20692360.660   -27405855.53349 -21327990.00948  20692360.097    20692367.326
 03  4  3  0  8  0.0000000  0  7G17G14G 3G15G 9G23G18
  21612828.049   -10133385.14949  -7714786.71047  21612827.351    21612837.686
  22088908.176   -18919846.09749 -14730683.43646  22088907.598    22088918.156
  21885031.068   -13858503.56149 -10777498.76645  21885030.449    21885040.535
  20234960.670   -28046833.01549 -21845887.25448  20234959.839    20234968.281
  23952304.960    -7944574.24549  -6179412.49145  23952304.346    23952318.931
  21384129.882   -19964630.38449 -15280428.07447  21384129.145    21384138.127
  20698542.576   -27373369.49049 -21302676.19448  20698542.017    20698549.236
 03  4  3  0  8 30.0000000  0  7G17G14G 3G15G 9G23G18
  21622355.548   -10083317.79749  -7675773.23247  21622354.815    21622365.233
  22071056.315   -19013657.05749 -14803782.71647  22071055.786    22071066.372
  21878147.573   -13894676.39949 -10805685.39645  21878147.093    21878157.139
  20234972.659   -28046770.14749 -21845838.25548  20234971.781    20234980.214
  23942857.424    -7994217.65949  -6218095.46645  23942857.096    23942871.761
  21392469.951   -19920803.48949 -15246277.24147  21392469.192    21392478.120
  20704772.648   -27340629.97449 -21277164.88248  20704772.075    20704779.332
 03  4  3  0  9  0.0000000  0  7G17G14G 3G15G 9G23G18
  21631941.275   -10032944.46449  -7636521.31547  21631940.520    21631951.052
  22053266.409   -19107143.65549 -14876629.21046  22053265.653    22053276.230
  21871366.119   -13930314.36449 -10833455.17645  21871365.639    21871375.078
  20235050.641   -28046359.59349 -21845518.31448  20235049.797    20235058.358
  23933485.284    -8043466.78849  -6256471.23045  23933485.033    23933499.817
  21400838.439   -19876826.75449 -15212009.65947  21400837.688    21400846.596
  20711050.438   -27307640.03849 -21251458.41348  20711049.868    20711057.055
 03  4  3  0  9 30.0000000  0  7G17G14G 3G15G 9G23G18
  21641585.112    -9982265.27249  -7597031.07447  21641584.353    21641594.990
  22035538.309   -19200303.57449 -14949221.16446  22035537.636    22035548.287
  21864686.376   -13965416.41649 -10860807.34845  21864685.823    21864695.151
  20235194.914   -28045600.91149 -21844927.10948  20235194.077    20235202.685
  23924189.118    -8092318.94249  -6294537.63245  23924188.858    23924203.189
  21409235.116   -19832701.66049 -15177626.46347  21409234.395    21409243.321
  20717375.491   -27274401.51249 -21225558.25148  20717374.940    20717382.104
 03  4  3  0 10  0.0000000  0  7G17G14G 3G15G 9G23G18
  21651287.433    -9931279.29249  -7557301.76647  21651286.745    21651297.328
  22017872.876   -19293133.90649 -15021556.29846  22017872.335    22017882.987
  21858108.866   -13999981.02049 -10887740.82646  21858108.377    21858117.792
  20235405.919   -28044492.34349 -21844063.26448  20235405.071    20235413.600
  23914968.917    -8140770.84249  -6332292.17945  23914968.622    23914982.845
  21417660.033   -19788428.77549 -15143128.11247  21417659.303    21417668.147
  20723747.790   -27240914.94349 -21199464.80648  20723747.219    20723754.391
 03  4  3  0 10 30.0000000  0  7G17G14G 3G15G 9G23G18
  21661048.533    -9879985.93049  -7517332.95747  21661047.748    21661058.180
  22000270.983   -19385631.65149 -15093632.28746  22000270.430    22000280.949
  21851634.026   -14034006.37849 -10914254.00246  21851633.559    21851642.953
  20235683.791   -28043032.38949 -21842925.60848  20235682.908    20235691.451
  23905825.442    -8188819.36149  -6369732.40345  23905825.151    23905839.321
  21426112.912   -19744008.99449 -15108515.28547  21426112.171    21426120.933
  20730167.021   -27207181.22049 -21173178.77548  20730166.475    20730173.734
 03  4  3  0 11  0.0000000  0  7G17G14G 3G15G 9G23G18
  21670867.800    -9828385.72849  -7477125.05447  21670866.981    21670877.420
  21982732.681   -19477795.55749 -15165448.11447  21982732.191    21982742.542
  21845261.845   -14067492.50749 -10940347.02546  21845261.430    21845270.726
  20236028.472   -28041221.21649 -21841514.27948  20236027.570    20236036.143
  23896759.409    -8236462.67749  -6406856.83445  23896759.028    23896772.923
  21434593.135   -19699444.90249 -15073790.01247  21434592.381    21434601.192
  20736632.930   -27173202.81849 -21146702.08748  20736632.368    20736639.576
 03  4  3  0 11 30.0000000  0  7G17G14G 3G15G 9G23G18
  21680745.419    -9776478.21249  -7436677.68247  21680744.623    21680755.161
  21965258.712   -19569622.59649 -15237001.44847  21965258.118    21965268.233
  21838992.469   -14100437.70349 -10966018.57046  21838992.000    21839001.373
  20236440.142   -28039057.35949 -21839828.12048  20236439.275    20236447.918
  23887770.983    -8283697.59949  -6443663.06645  23887770.710    23887784.354
  21443100.822   -19654737.15749 -15038952.82747  21443100.021    21443108.795
  20743145.255   -27138980.56149 -21120035.37848  20743144.709    20743151.764
 03  4  3  0 12  0.0000000  0  7G17G14G 3G15G 9G23G18
  21690681.602    -9724262.56149  -7395990.19147  21690680.894    21690691.465
  21947849.103   -19661110.18249 -15308290.29347  21947848.461    21947858.479
  21832826.359   -14132840.77149 -10991267.66446  21832825.949    21832835.237
  20236919.218   -28036539.68749 -21837866.27148  20236918.353    20236926.968
  23878860.624    -8330521.19349  -6480148.79545  23878860.300    23878874.058
  21451635.576   -19609886.79649 -15004004.48947  21451634.743    21451643.518
  20749703.858   -27104515.16649 -21093179.22248  20749703.279    20749710.191
 03  4  3  0 12 30.0000000  0  7G17G14G 3G15G 9G23G18
  21700676.624    -9671738.78149  -7355062.60447  21700675.875    21700686.481
  21930504.231   -19752255.93749 -15379312.77547  21930503.679    21930513.760
  21826763.861   -14164700.33249 -11016093.27046  21826763.346    21826772.353
  20237465.815   -28033667.09249 -21835627.86948  20237464.965    20237473.538
  23870028.751    -8376930.60349  -6516311.79945  23870028.484    23870042.714
  21460197.191   -19564894.96349 -14968945.92347  21460196.365    21460205.139
  20756308.397   -27069807.93449 -21066134.64047  20756307.837    20756314.626
 03  4  3  0 13  0.0000000  0  8G17G14G31G 3G15G 9G23G18
  21710730.258    -9618906.74449  -7313894.80547  21710729.485    21710740.113
  21913225.058   -19843057.58449 -15450067.11547  21913224.451    21913234.578
                   -289678.17149   -207769.11043
  21820804.734   -14196015.65149 -11040494.81246  21820804.182    21820813.027
  20238080.118   -28030438.83549 -21833112.32248  20238079.269    20238087.854
  23861276.241    -8422923.42549  -6552150.18345  23861275.953    23861290.384
  21468785.590   -19519763.02949 -14933778.17347  21468784.700    21468793.477
  20762958.770   -27034860.48749 -21038902.85648  20762958.183    20762964.936
 03  4  3  0 13 30.0000000  0  7G17G14G 3G15G 9G23G18
  21720842.665    -9565765.94349  -7272486.41547  21720841.884    21720852.566
  21896012.013   -19933512.01849 -15520550.90547  21896011.397    21896021.603
  21814949.163   -14226785.07549 -11064470.94446  21814948.785    21814957.710
  20238762.381   -28026853.36849 -21830318.41648  20238761.487    20238770.082
  23852603.877    -8468496.37549  -6587661.35545  23852603.527    23852617.861
  21477400.332   -19474491.77749 -14898501.87247  21477399.446    21477408.306
  20769654.571   -26999673.59049 -21011484.47347  20769653.948    20769660.729
 03  4  3  0 14  0.0000000  0  8G17G14G31G 3G15G 9G23G18
  21731013.782    -9512316.87449  -7230837.82747  21731013.022    21731023.750
  21878865.419   -20023617.71149 -15590762.95247  21878864.827    21878874.913
                   -440831.52649   -148066.65543
  21809197.842   -14257008.47649 -11088021.63946  21809197.426    21809206.339
  20239512.661   -28022910.45449 -21827245.99948  20239511.788    20239520.327
  23844011.607    -8513647.59849  -6622843.94045  23844011.235    23844025.275
  21486041.161   -19429083.40149 -14863118.71447  21486040.354    21486049.239
  20776395.617   -26964249.21149 -20983881.05347  20776394.971    20776401.699
 03  4  3  0 14 30.0000000  0  8G17G14G31G 3G15G 9G23G18
  21741243.422    -9458560.48949  -7188949.79047  21741242.631    21741253.179
  21861785.448   -20113373.11849 -15660702.04247  21861784.812    21861794.802
                   -515791.67849   -206477.30943
  21803550.432   -14286685.64049 -11111146.65146  21803549.997    21803558.958
  20240330.924   -28018610.09049 -21823895.03848  20240330.061    20240338.599
  23835499.954    -8558375.39849  -6657696.57745  23835499.588    23835513.318
  21494707.832   -19383539.77549 -14827630.17547  21494707.024    21494715.898
  20783181.396   -26928589.66749 -20956094.37647  20783180.754    20783187.528
 03  4  3  0 15  0.0000000  0  8G17G14G31G 3G15G 9G23G18
  21751531.768    -9404495.30149  -7146821.10246  21751530.939    21751541.317
  21844772.509   -20202775.18449 -15730365.81247  21844771.970    21844781.896
                   -590337.10149   -264564.59544                  23413313.366
  21798007.289   -14315815.04449 -11133844.85246  21798006.855    21798015.971
  20241217.556   -28013950.39849 -21820264.08948  20241216.737    20241225.228
  23827069.500    -8602676.23249  -6692216.50545  23827069.173    23827082.866
  21503400.094   -19337861.38049 -14792036.61547  21503399.336    21503408.232
  20790011.799   -26892695.30349 -20928124.71047  20790011.165    20790018.027
 03  4  3  0 15 30.0000000  0  8G17G14G31G 3G15G 9G23G18
  21761878.696    -9350121.58949  -7104452.03246  21761877.905    21761888.173
  21827827.375   -20291821.50849 -15799752.38547  21827826.890    21827836.803
  23399195.125     -664465.55849   -322326.86445  23399195.244    23399203.275
  21792568.438   -14344395.86349 -11156115.56946  21792568.019    21792577.232
  20242172.889   -28008930.72149 -21816352.62748  20242172.036    20242180.519
  23818720.942    -8646547.76149  -6726401.91945  23818720.624    23818734.241
  21512117.799   -19292049.56749 -14756339.12047  21512117.031    21512125.901
  20796886.663   -26856567.24949 -20899972.98147  20796886.036    20796893.012
 03  4  3  0 16  0.0000000  0  8G17G14G31G 3G15G 9G23G18
  21772284.703    -9295438.05849  -7061841.52146  21772283.882    21772294.199
  21810950.671   -20380508.99749 -15868859.32747  21810950.123    21810960.073
  23385168.870     -738173.90449   -379761.81945  23385168.165    23385176.895
  21787234.318   -14372426.04349 -11177957.23246  21787233.912    21787243.312
  20243197.028   -28003549.08949 -21812159.13848  20243196.127    20243204.636
  23810454.750    -8689986.32249  -6760249.92445  23810454.496    23810468.017
  21520860.819   -19246104.58549 -14720537.84347  21520860.088    21520868.870
  20803805.909   -26820206.01149 -20871639.53447  20803805.325    20803812.316
 03  4  3  0 16 30.0000000  0  8G17G14G31G 3G15G 9G23G18
  21782749.421    -9240445.04549  -7018989.86246  21782748.647    21782759.177
  21794142.765   -20468835.13749 -15937684.73947  21794142.110    21794152.083
  23371222.770     -811459.85349   -436867.60345  23371221.480    23371231.419
  21782005.081   -14399905.05449 -11199369.39446  21782004.672    21782014.211
  20244290.053   -27997804.85449 -21807683.07248  20244289.180    20244297.741
  23802271.394    -8732989.38549  -6793758.59645  23802271.201    23802284.307
  21529629.010   -19200027.71349 -14684633.79147  21529628.308    21529636.926
  20810769.182   -26783613.32049 -20843125.74047  20810768.615    20810775.624
 03  4  3  0 17  0.0000000  0  8G17G14G31G 3G15G 9G23G18
  21793273.263    -9185142.26749  -6975896.81346  21793272.441    21793283.053
  21777403.849   -20556797.88649 -16006226.97047  21777403.248    21777413.148
  23357357.533     -884321.46749   -493642.73445  23357355.999    23357365.943
  21776881.042   -14426832.04649 -11220351.40846  21776880.659    21776890.131
  20245452.260   -27991696.99549 -21802923.67248  20245451.416    20245460.045
  23794171.453    -8775554.50449  -6826926.02945  23794171.148    23794183.894
  21538422.022   -19153820.33049 -14648628.02847  21538421.311    21538429.832
  20817776.380   -26746790.19249 -20814432.39047  20817775.814    20817782.848
 03  4  3  0 17 30.0000000  0  8G17G14G31G 3G15G 9G23G18
  21803855.923    -9129530.03849  -6932562.62746  21803855.145    21803865.748
  21760734.555   -20644395.54549 -16074484.71847  21760733.927    21760743.632
  23343573.374     -956756.76949   -550085.68045  23343572.181    23343582.356
  21771862.267   -14453206.41349 -11240902.81246  21771861.804    21771871.194
  20246683.780   -27985225.04049 -21797880.56448  20246682.923    20246691.621
  23786155.317    -8817679.49749  -6859750.53145  23786155.017    23786167.716
  21547239.539   -19107484.13949 -14612521.91947  21547238.807    21547247.370
  20824827.210   -26709738.34049 -20785560.81947  20824826.583    20824833.510
 03  4  3  0 18  0.0000000  0  8G17G14G31G 3G15G 9G23G18
  21814497.784    -9073607.81749  -6888986.91846  21814496.908    21814507.448
  21744135.350   -20731625.23349 -16142455.72347  21744134.649    21744144.116
  23329870.818    -1028762.92049   -606194.24545  23329869.837    23329880.600
  21766948.677   -14479026.96549 -11261022.67546  21766948.225    21766957.595
  20247984.893   -27978387.57549 -21792552.64648  20247984.052    20247992.724
  23778223.346    -8859361.36449  -6892229.76945  23778223.009    23778235.757
  21556081.454   -19061019.85949 -14576315.98847  21556080.736    21556089.344
  20831921.346   -26672458.59949 -20756511.67548  20831920.721    20831927.595
 03  4  3  0 18 30.0000000  0  8G17G14G31G 3G15G 9G23G18
  21825198.463    -9017375.51449  -6845169.58246  21825197.570    21825208.170
  21727606.468   -20818484.26349 -16210137.91147  21727605.772    21727615.190
  23316250.362    -1100337.63549   -661966.60945  23316249.597    23316260.706
  21762140.581   -14504292.69949 -11280710.21046  21762140.244    21762149.611
  20249355.797   -27971183.68749 -21786939.21248  20249354.973    20249363.556
  23770376.169    -8900597.58349  -6924361.73945  23770375.881    23770388.896
  21564947.609   -19014428.48649 -14540011.01147  21564946.878    21564955.367
  20839058.653   -26634951.96449 -20727285.72348  20839058.030    20839064.914
 03  4  3  0 19  0.0000000  0  8G17G14G31G 3G15G 9G23G18
  21835958.177    -8960833.03749  -6801110.55446  21835957.291    21835967.905
  21711148.438   -20904970.74949 -16277529.81347  21711147.785    21711157.181
  23302712.780    -1171478.75849   -717401.13745  23302711.987    23302722.951
  21757438.313   -14529003.22249 -11299965.11346  21757437.909    21757447.418
  20250796.669   -27963612.32849 -21781039.46048  20250795.816    20250804.308
  23762614.184    -8941385.80649  -6956144.58745  23762613.835    23762627.075
  21573837.598   -18967711.27549 -14503608.00547  21573836.864    21573845.313
  20846238.869   -26597219.90349 -20697884.12148  20846238.220    20846245.156
 03  4  3  0 19 30.0000000  0  8G17G14G31G 3G15G 9G23G18
  21846776.769    -8903980.58249  -6756809.98546  21846775.992    21846786.549
  21694761.602   -20991082.91349 -16344630.03247  21694760.990    21694770.268
  23289258.086    -1242184.63349   -772496.49045  23289257.263    23289268.018
  21752841.730   -14553158.07549 -11318787.02246  21752841.401    21752850.914
  20252307.325   -27955673.39849 -21774853.26748  20252306.480    20252314.938
  23754937.885    -8981723.94549  -6987576.70745  23754937.609    23754950.840
  21582751.123   -18920869.90449 -14467108.23147  21582750.423    21582758.938
  20853461.599   -26559263.96849 -20668308.06748  20853460.959    20853467.950
 03  4  3  0 20  0.0000000  0  8G17G14G31G 3G15G 9G23G18
  21857654.435    -8846818.14549  -6712267.87246  21857653.682    21857664.281
  21678446.535   -21076818.01249 -16411436.44247  21678445.965    21678455.242
  23275886.404    -1312452.56049   -827250.57145  23275885.650    23275896.479
  21748351.194   -14576756.39549 -11337175.28346  21748350.810    21748360.250
  20253888.053   -27947365.78349 -21768379.77648  20253887.276    20253895.733
  23747347.772    -9021609.23949  -7018655.98345  23747347.523    23747360.814
  21591688.180   -18873905.34249 -14430512.47047  21591687.496    21591695.996
  20860726.806   -26521085.28649 -20638558.44748  20860726.180    20860733.121
 03  4  3  0 20 30.0000000  0  8G17G14G31G 3G15G 9G23G18
  21868590.996    -8789345.49949  -6667484.02946  21868590.240    21868600.907
  21662203.825   -21162173.53049 -16477947.05647  21662203.239    21662212.437
  23262598.322    -1382280.27149   -881661.64344  23262597.738    23262608.523
  21743966.714   -14599797.23849 -11355129.15446  21743966.296    21743975.774
  20255539.330   -27938688.27449 -21761618.06048  20255538.522    20255547.010
  23739844.568    -9061039.01349  -7049380.28345  23739844.259    23739857.702
  21600648.495   -18826818.31549 -14393821.27047  21600647.783    21600656.347
  20868034.149   -26482684.88549 -20608636.04347  20868033.511    20868040.490
 03  4  3  0 21  0.0000000  0  8G17G14G31G 3G15G 9G23G18
  21879586.883    -8731562.41649  -6622458.28946  21879586.087    21879596.690
  21646033.703   -21247147.63049 -16544160.50047  21646033.103    21646042.197
  23249394.506    -1451665.70749   -935728.11844  23249393.831    23249404.284
  21739688.329   -14622279.95249 -11372648.10446  21739687.927    21739697.474
  20257261.162   -27929640.30949 -21754567.69248  20257260.310    20257268.806
  23732428.272    -9100011.04549  -7079747.93345  23732427.992    23732441.347
  21609631.796   -18779610.37749 -14357035.85947  21609631.084    21609639.693
  20875383.338   -26444064.27549 -20578542.06747  20875382.743    20875389.732
 03  4  3  0 21 30.0000000  0  8G17G14G31G 3G15G 9G23G18
  21890641.766    -8673469.35149  -6577191.01746  21890640.934    21890651.512
  21629936.629   -21331738.34249 -16610075.18247  21629936.007    21629944.970
  23236275.403    -1520606.69649   -989448.19044  23236274.672    23236285.489
  21735516.404   -14644203.96649 -11389731.71446  21735515.996    21735525.403
  20259053.560   -27920221.07049 -21747228.00448  20259052.710    20259061.222
  23725099.724    -9138523.01249  -7109757.05945  23725099.347    23725112.592
  21618637.968   -18732282.67749 -14320157.11847  21618637.249    21618645.942
  20882774.298   -26405224.78749 -20548277.51447  20882773.667    20882780.650
 03  4  3  0 22  0.0000000  0  8G17G14G31G 3G15G 9G23G18
  21901755.374    -8615066.33949  -6531682.21046  21901754.640    21901765.226
  21613912.835   -21415943.71049 -16675689.61047  21613912.200    21613921.032
  23223241.358    -1589101.61349  -1042820.75844  23223240.285    23223251.529
  21731450.660   -14665569.08749 -11406379.85146  21731450.250    21731459.671
  20260916.684   -27910429.98349 -21739598.57648  20260915.860    20260924.389
  23717858.733    -9176572.85149  -7139406.12445  23717858.469    23717871.511
  21627666.552   -18684836.86349 -14283186.36447  21627665.819    21627674.594
  20890206.466   -26366168.07549 -20517843.69447  20890205.842    20890212.948
 03  4  3  0 22 30.0000000  0  8G17G14G31G 3G15G 9G23G18
  21912928.439    -8556352.50349  -6485931.20746  21912927.645    21912938.147
  21597962.857   -21499760.69749 -16741001.39347  21597962.222    21597971.067
  23210292.768    -1657147.45649  -1095843.35744  23210291.878    23210302.548
  21727491.475   -14686373.93549 -11422591.37046  21727491.101    21727500.725
  20262850.946   -27900265.51149 -21731678.19048  20262850.121    20262858.617
  23710706.442    -9214157.49449  -7168692.67345  23710706.270    23710719.058
  21636717.610   -18637273.26249 -14246123.80247  21636716.883    21636725.718
  20897679.899   -26326894.49749 -20487240.88547  20897679.318    20897686.517
 03  4  3  0 23  0.0000000  0  8G17G14G31G 3G15G 9G23G18
  21924160.703    -8497328.17049  -6439938.28646  21924159.850    21924170.050
  21582087.007   -21583187.15049 -16806008.87247  21582086.433    21582095.406
  23197429.728    -1724742.16249  -1148514.41044  23197428.614    23197439.550
  21723639.096   -14706618.06549 -11438365.99346  21723638.718    21723648.451
  20264856.421   -27889726.92049 -21723466.29948  20264855.562    20264864.026
  23703642.931    -9251274.58349  -7197614.86745  23703642.810    23703655.343
  21645790.948   -18589592.83249 -14208970.21147  21645790.221    21645799.013
  20905194.465   -26287405.09349 -20456469.90647  20905193.866    20905201.127
 03  4  3  0 23 30.0000000  0  8G17G14G31G 3G15G 9G23G18
  21935451.965    -8437992.73849  -6393702.96846  21935451.083    21935461.128
  21566285.947   -21666220.69149 -16870710.18147  21566285.432    21566294.538
  23184652.888    -1791883.35549  -1200832.09244  23184651.730    23184662.937
  21719893.794   -14726300.31249 -11453702.84546  21719893.350    21719902.915
  20266933.219   -27878813.18749 -21714962.08848  20266932.375    20266940.829
  23696669.100    -9287921.77249  -7226170.91845  23696668.947    23696681.274
  21654886.244   -18541796.69949 -14171726.47547  21654885.485    21654894.227
  20912749.838   -26247701.05049 -20425531.70847  20912749.225    20912756.610
 03  4  3  0 24  0.0000000  0  8G17G14G31G 3G15G 9G23G18
  21946802.010    -8378346.09049  -6347225.07946  21946801.247    21946811.533
  21550560.305   -21748859.29449 -16935103.74947  21550559.778    21550568.757
  23171962.940    -1858568.91849  -1252794.73244  23171961.994    23171973.095
  21716255.295   -14745420.56649 -11468601.67346  21716254.919    21716264.410
  20269081.625   -27867523.32249 -21706164.78848  20269080.797    20269089.213
  23689785.188    -9324096.49649  -7254358.86145  23689784.894    23689797.265
  21664003.372   -18493885.88049 -14134393.36047  21664002.613    21664011.354
  20920345.866   -26207783.59149 -20394427.18147  20920345.286    20920352.604
 03  4  3  0 24 30.0000000  0  8G17G14G31G 3G15G 9G23G18
  21958211.204    -8318389.04549  -6300505.34346  21958210.567    21958221.111
  21534910.278   -21831100.71249 -16999187.81947  21534909.693    21534918.523
  23159360.028    -1924796.78249  -1304400.77044  23159358.911    23159369.246
  21712723.887   -14763978.21349 -11483062.18446  21712723.475    21712732.837
  20271301.734   -27855856.65849 -21697073.87248  20271300.910    20271309.252
  23682991.583    -9359796.58649  -7282176.93445  23682991.346    23683003.689
  21673142.118   -18445861.57649 -14096971.80947  21673141.357    21673150.053
  20927982.211   -26167654.01349 -20363157.37347  20927981.660    20927988.916
 03  4  3  0 25  0.0000000  0  8G17G14G31G 3G15G 9G23G18
  21969679.879    -8258121.67949  -6253543.78546  21969679.157    21969689.834
  21519336.045   -21912943.20549 -17062961.05647  21519335.465    21519344.284
  23146844.468    -1990565.31949  -1355648.89744  23146842.957    23146852.837
  21709299.464   -14781973.27449 -11497084.25746  21709299.055    21709308.343
  20273593.623   -27843812.65549 -21687688.91948  20273592.774    20273601.142
  23676289.050    -9395020.09549  -7309623.64645  23676288.636    23676300.802
  21682302.153   -18397725.24949 -14059462.97747  21682301.375    21682310.080
  20935658.782   -26127313.84749 -20331723.46547  20935658.205    20935665.394
 03  4  3  0 25 30.0000000  0  8G17G14G31G 3G15G 9G23G18
  21981207.684    -8197543.99249  -6206340.46546  21981206.857    21981217.505
  21503837.961   -21994384.93649 -17126421.99247  21503837.453    21503846.321
  23134416.840    -2055872.53749  -1406537.59444  23134415.566    23134425.739
  21705982.100   -14799405.49449 -11510667.79446  21705981.702    21705991.121
  20275957.368   -27831390.84849 -21678009.57348  20275956.527    20275964.897
  23669677.313    -9429765.08049  -7336697.48445  23669676.894    23669689.197
  21691483.180   -18349478.27949 -14021867.93547  21691482.379    21691491.138
  20943375.104   -26086764.44749 -20300126.53047  20943374.523    20943381.657
 03  4  3  0 26  0.0000000  0  8G17G14G31G 3G15G 9G23G18
  21992794.372    -8136655.82849  -6158895.19546  21992793.536    21992804.028
  21488416.766   -22075423.21949 -17189568.56647  21488416.229    21488425.111
  23122077.270    -2120716.11149  -1457064.92244  23122076.152    23122086.361
  21702772.112   -14816273.83249 -11523811.89946  21702771.734    21702781.075
  20278393.270   -27818589.93449 -21668034.80948  20278392.441    20278400.789
  23663157.085    -9464028.79449  -7363396.35145  23663156.638    23663169.038
  21700685.179   -18301121.35049 -13984187.20947  21700684.418    21700693.207
  20951131.045   -26046006.88249 -20268367.36847  20951130.484    20951137.567
 03  4  3  0 26 30.0000000  0  8G17G14G31G 3G15G 9G23G18
  22004440.089    -8075456.96749  -6111207.81046  22004439.233    22004449.801
  21473072.768   -22156055.55649 -17252398.80547  21473072.271    21473081.100
  23109826.308    -2185093.17649  -1507228.80444  23109825.412    23109835.635
  21699669.634   -14832577.33249 -11536515.94346  21699669.252    21699678.533
  20280901.572   -27805408.52049 -21657763.57148  20280900.745    20280909.090
  23656729.107    -9497808.36649  -7389717.94445  23656728.608    23656741.045
  21709908.163   -18252654.93649 -13946421.17847  21709907.384    21709916.072
  20958926.514   -26005041.43149 -20236446.22647  20958925.888    20958933.008
 03  4  3  0 27  0.0000000  0  8G17G14G31G 3G15G 9G23G18
  22016144.958    -8013947.39849  -6063278.33546  22016144.141    22016154.704
  21457806.479   -22236280.30749 -17314911.45847  21457805.980    21457814.802
  23097664.785    -2249002.47549  -1557028.16744  23097663.800    23097674.198
  21696674.598   -14848316.06749 -11548779.82846  21696674.235    21696683.555
  20283482.339   -27791846.43049 -21647195.69548  20283481.488    20283489.781
  23650393.239    -9531101.90949  -7415660.81545  23650392.716    23650405.439
  21719151.608   -18204080.46349 -13908570.95347  21719150.815    21719159.441
  20966761.069   -25963869.67349 -20204364.32647  20966760.484    20966767.731
 03  4  3  0 27 30.0000000  0  8G17G14G31G 3G15G 9G23G18
  22027909.184    -7952127.30049  -6015106.89646  22027908.316    22027918.657
  21442618.233   -22316095.13349 -17377104.68247  21442617.685    21442626.437
  23085592.732    -2312441.66549  -1606461.18344  23085591.886    23085601.978
  21693787.326   -14863489.35749 -11560603.12946  21693786.844    21693796.159
  20286135.779   -27777902.61349 -21636330.38048  20286134.921    20286143.154
  23644150.295    -9563907.30249  -7441223.30645  23644149.746    23644162.339
  21728415.386   -18155398.98749 -13870637.32147  21728414.572    21728423.261
  20974634.793   -25922492.93449 -20172122.70047  20974634.263    20974641.424
 03  4  3  0 28  0.0000000  0  8G17G14G31G 3G15G 9G23G18
  22039732.129    -7889997.31649  -5966693.99046  22039731.232    22039741.597
  21427508.200   -22395498.85049 -17438977.56247  21427507.565    21427516.290
  23073610.921    -2375409.38649  -1655526.91244  23073609.930    23073619.169
  21691007.170   -14878097.55549 -11571986.09346  21691006.809    21691016.229
  20288861.788   -27763577.14149 -21625167.65948  20288860.954    20288869.210
  23638000.627    -9596222.95749  -7466404.14545  23638000.054    23638012.323
  21737699.034   -18106612.22449 -13832621.65247  21737698.284    21737707.112
  20982547.307   -25880912.93249 -20139722.69247  20982546.745    20982553.896
 03  4  3  0 28 30.0000000  0  8G17G14G31G 3G15G 9G23G18
  22051613.886    -7827557.07249  -5918039.29546  22051613.066    22051623.626
  21412476.717   -22474488.95849 -17500528.17047  21412476.082    21412484.949
  23061719.013    -2437903.36349  -1704223.50744  23061717.954    23061727.525
  21688334.963   -14892140.31549 -11582928.46047  21688334.598    21688343.955
  20291660.532   -27748868.85449 -21613706.63348  20291659.716    20291668.148
  23631944.626    -9628046.48649  -7491201.52745  23631944.105    23631956.222
  21747002.766   -18057720.93849 -13794524.55647  21747002.064    21747010.828
  20990498.220   -25839130.69949 -20107165.11647  20990497.681    20990504.807
 03  4  3  0 29  0.0000000  0  8G17G14G31G 3G15G 9G23G18
  22063554.771    -7764806.65549  -5869142.92746  22063553.989    22063564.832
  21397524.357   -22553062.90549 -17561754.48347  21397523.713    21397532.730
  23049917.176    -2499921.02249  -1752548.92945  23049916.315    23049925.867
  21685770.661   -14905616.59249 -11593429.45047  21685770.253    21685779.489
  20294532.416   -27733776.42549 -21601946.25747  20294531.598    20294540.118
  23625982.818    -9659375.02349  -7515613.22645  23625982.403    23625994.686
  21756326.348   -18008725.45949 -13756346.27747  21756325.649    21756334.396
  20998487.541   -25797146.45949 -20074450.11447  20998487.010    20998494.132
 03  4  3  0 29 30.0000000  0  8G17G14G31G 3G15G 9G23G18
  22075555.008    -7701745.45649  -5820004.39746  22075554.261    22075565.297
  21382651.614   -22631218.32649 -17622654.68647  21382651.069    21382660.049
  23038206.703    -2561460.21949  -1800501.49645  23038205.852    23038215.650
  21683314.115   -14918525.95849 -11603488.65247  21683313.695    21683322.943
  20297477.687   -27718298.97749 -21589885.89148  20297476.869    20297485.379
  23620115.759    -9690206.34549  -7539637.50145  23620115.285    23620127.951
  21765669.624   -17959626.61049 -13718087.45547  21765668.881    21765677.683
  21006515.007   -25754961.48349 -20041578.70647  21006514.513    21006521.712
 03  4  3  0 30  0.0000000  0  8G17G14G31G 3G15G 9G23G18
  22087614.464    -7638373.85049  -5770623.99046  22087613.723    22087624.823
  21367859.125   -22708953.63749 -17683227.52047  21367858.490    21367867.189
  23026587.288    -2622519.25649  -1848079.85445  23026586.576    23026596.904
  21680965.222   -14930868.31149 -11613106.02347  21680964.890    21680974.255
  20300496.376   -27702436.10849 -21577525.19848  20300495.539    20300503.967
  23614343.323    -9720538.65949  -7563272.90145  23614343.061    23614355.850
  21775032.157   -17910425.79049 -13679749.16347  21775031.450    21775040.272
  21014580.350   -25712577.17249 -20008551.97847  21014579.859    21014587.190
 03  4  3  0 30 30.0000000  0  8G17G14G31G 3G15G 9G23G18
  22099732.845    -7574691.87249  -5721001.73346  22099732.074    22099743.165
  21353146.826   -22786266.67549 -17743471.30747  21353146.155    21353154.689
  23015059.653    -2683096.16949  -1895282.60745  23015059.146    23015069.459
  21678724.551   -14942643.48549 -11622281.44447  21678724.161    21678733.569
  20303588.443   -27686187.04349 -21564863.57948  20303587.629    20303596.015
  23608666.646    -9750369.72949  -7586517.71945  23608666.480    23608678.883
  21784413.958   -17861123.82749 -13641332.05447  21784413.275    21784422.045
  21022683.477   -25669994.65049 -19975370.78347  21022683.000    21022690.310
 03  4  3  0 31  0.0000000  0  8G17G14G31G 3G15G 9G23G18
  22111909.700    -7510700.58349  -5671138.46546  22111909.044    22111920.292
  21338514.959   -22863156.44649 -17803385.29647  21338514.404    21338522.869
  23003624.081    -2743189.66349  -1942108.64745  23003623.653    23003633.594
  21676591.705   -14953851.86349 -11631015.21047  21676591.278    21676600.680
  20306754.144   -27669551.64149 -21551900.92348  20306753.307    20306761.663
  23603085.994    -9779698.12749  -7609370.88045  23603085.694    23603097.768
  21793814.846   -17811722.24549 -13602837.32747  21793814.146    21793822.874
  21030824.030   -25627215.49649 -19942036.37347  21030823.564    21030830.887
 03  4  3  0 31 30.0000000  0  8G17G14G31G 3G15G 9G23G18
  22124145.679    -7446399.32049  -5621033.66446  22124145.103    22124156.331
  21323964.485   -22939619.65849 -17862966.89647  21323963.917    21323972.228
  22992281.061    -2802796.85449  -1988555.70145  22992280.715    22992290.543
  21674566.789   -14964492.11649 -11639306.27647  21674566.430    21674575.856
  20309993.671   -27652528.10949 -21538635.82848  20309992.835    20310001.262
  23597601.187    -9808520.74249  -7631829.88845  23597600.891    23597612.775
  21803234.579   -17762221.15349 -13564265.05547  21803233.855    21803242.583
  21039002.134   -25584239.77549 -19908548.79147  21039001.612    21039008.984
 03  4  3  0 32  0.0000000  0  8G17G14G31G 3G15G 9G23G18
  22136440.702    -7381788.36849  -5570687.52646  22136440.221    22136451.355
  21309495.425   -23015654.95549 -17922215.04747  21309494.824    21309503.062
  22981031.247    -2861916.55349  -2034622.93045  22981030.614    22981040.547
  21672650.075   -14974564.81349 -11647155.11247  21672649.687    21672659.028
  20313306.992   -27635116.41749 -21525068.27548  20313306.181    20313314.642
  23592212.874    -9836836.48149  -7653893.92446  23592212.512    23592224.306
  21812672.884   -17712622.19749 -13525616.53147  21812672.191    21812680.902
  21047217.198   -25541069.56949 -19874909.67547  21047216.665    21047224.053
 03  4  3  0 32 30.0000000  0  8G17G14G31G 3G15G 9G23G18
  22148794.835    -7316868.34449  -5520100.57746  22148794.259    22148805.353
  21295107.964   -23091260.66849 -17981128.48047  21295107.384    21295115.650
  22969874.046    -2920546.87649  -2080308.77445  22969873.378    22969883.598
  21670841.317   -14984070.01049 -11654561.74747  21670840.919    21670850.232
  20316694.307   -27617316.05149 -21511197.85348  20316693.496    20316701.893
  23586921.114    -9864643.44749  -7675561.57345  23586920.745    23586932.665
  21822129.704   -17662926.44949 -13486892.58147  21822129.014    21822137.696
  21055469.036   -25497706.03449 -19841119.90647  21055468.512    21055475.833
 03  4  3  0 33  0.0000000  0  8G17G14G31G 3G15G 9G23G18
  22161207.952    -7251638.40349  -5469272.11446  22161207.235    22161218.144
  21280802.850   -23166433.93449 -18039704.94447  21280802.268    21280810.587
  22958810.212    -2978685.04949  -2125611.13545  22958809.607    22958820.273
  21669140.823   -14993006.51149 -11661525.22647  21669140.396    21669149.680
  20320155.888   -27599125.37349 -21497023.29448  20320155.039    20320163.441
  23581726.753    -9891938.65949  -7696830.42145  23581726.471    23581738.368
  21831604.905   -17613133.98349 -13448093.26947  21831604.195    21831612.864
  21063757.662   -25454149.07549 -19807179.43647  21063757.144    21063764.390
 03  4  3  0 33 30.0000000  0  8G17G14G31G 3G15G 9G23G18
  22173679.890    -7186099.17349  -5418202.65546  22173679.151    22173689.970
  21266580.294   -23241173.49449 -18097943.43047  21266579.753    21266587.985
  22947840.600    -3036329.90949  -2170529.12845  22947840.200    22947850.823
  21667548.462   -15001374.93549 -11668046.06447  21667548.019    21667557.216
  20323691.633   -27580544.56849 -21482544.73548  20323690.822    20323699.259
  23576630.249    -9918720.99349  -7717699.69545  23576629.850    23576641.517
  21841098.085   -17563246.57449 -13409219.97147  21841097.403    21841106.048
  21072082.772   -25410400.84649 -19773089.91547  21072082.241    21072089.321
 03  4  3  0 34  0.0000000  0  8G17G14G31G 3G15G 9G23G18
  22186210.527    -7120251.53449  -5366892.88046  22186209.736    22186220.274
  21252440.623   -23315477.93349 -18155842.87747  21252440.032    21252448.366
  22936965.101    -3093480.15649  -2215061.74045  22936964.700    22936975.171
  21666064.008   -15009175.91249 -11674124.72847  21666063.527    21666072.733
  20327301.697   -27561573.18049 -21467761.82447  20327300.913    20327309.387
  23571631.435    -9944988.57649  -7738167.83945  23571630.960    23571642.792
  21850609.180   -17513265.45249 -13370273.65847  21850608.488    21850617.079
  21080443.968   -25366462.71349 -19738852.41547  21080443.373    21080450.379
 03  4  3  0 34 30.0000000  0  8G17G14G31G 3G15G 9G23G18
  22198799.692    -7054094.83049  -5315342.27946  22198798.952    22198809.482
  21238384.227   -23389344.56649 -18213401.20947  21238383.643    21238392.086
  22926184.665    -3150133.14049  -2259206.85745  22926184.183    22926194.143
  21664687.570   -15016408.49649 -11679760.47547  21664687.109    21664696.358
  20330986.404   -27542209.72249 -21452673.40248  20330985.612    20330994.120
  23566731.034    -9970738.94449  -7758232.97345  23566730.653    23566742.366
  21860138.098   -17463190.74849 -13331254.41947  21860137.382    21860146.028
  21088841.100   -25322335.13049 -19704467.28547  21088840.539    21088847.615
 03  4  3  0 35  0.0000000  0  8G17G14G31G 3G15G 9G23G18
  22211447.326    -6987628.96449  -5263550.75146  22211446.746    22211457.627
  21224411.378   -23462771.31349 -18270616.74147  21224410.787    21224419.458
  22915498.970    -3206287.00949  -2302963.02645  22915498.330    22915508.282
  21663419.373   -15023072.37049 -11684953.06647  21663418.937    21663428.213
  20334745.925   -27522453.45549 -21437278.90048  20334745.119    20334753.641
  23561929.372    -9995969.99449  -7777893.40045  23561929.077    23561940.824
  21869684.660   -17413023.35949 -13292162.95247  21869683.983    21869692.624
  21097274.132   -25278018.95349 -19669935.22247  21097273.561    21097280.762
 03  4  3  0 35 30.0000000  0  8G17G14G31G 3G15G 9G23G18
  22224154.175    -6920854.06849  -5211518.44346  22224153.609    22224164.666
  21210522.621   -23535756.03649 -18327487.85847  21210522.131    21210530.769
  22904908.452    -3261939.61348  -2346328.59344  22904908.103    22904918.265
  21662259.586   -15029167.19949 -11689702.26747  21662259.160    21662268.385
  20338580.279   -27502303.54749 -21421577.66448  20338579.494    20338588.061
  23557227.127   -10020679.59749  -7797147.52545  23557226.891    23557238.272
  21879248.690   -17362763.89849 -13252999.74347  21879248.052    21879256.725
  21105742.972   -25233514.90949 -19635256.74747  21105742.428    21105749.639
 03  4  3  0 36  0.0000000  0  8G17G14G31G 3G15G 9G23G18
  22236919.657    -6853770.99049  -5159245.95946  22236919.032    22236930.326
  21196718.553   -23608297.27949 -18384013.37647  21196718.007    21196726.436
  22894413.098    -3317089.49448  -2389302.41344  22894412.850    22894423.438
  21661208.091   -15034693.35349 -11694008.33247  21661207.648    21661216.824
  20342489.756   -27481759.25349 -21405569.10848  20342489.008    20342497.492
  23552624.455   -10044866.26849  -7815994.13445  23552624.258    23552635.509
  21888830.054   -17312413.56649 -13213765.72347  21888829.429    21888838.052
  21114247.492   -25188824.50949 -19600433.07247  21114246.871    21114253.956
 03  4  3  0 36 30.0000000  0  8G17G14G31G 3G15G 9G23G18
  22249743.879    -6786379.31449  -5106733.03146  22249743.323    22249754.680
  21182999.377   -23680392.77949 -18440191.57747  21182998.755    21183006.967
  22884014.424    -3371734.54148  -2431882.83544  22884013.738    22884025.194
  21660264.740   -15039650.53149 -11697871.05647  21660264.321    21660273.528
  20346474.492   -27460819.87649 -21389252.70148  20346473.660    20346482.084
  23548121.884   -10068527.74649  -7834431.54345  23548121.664    23548132.565
  21898428.748   -17261972.90049 -13174461.32047  21898428.054    21898436.524
  21122786.993   -25143948.44849 -19565464.70447  21122786.400    21122793.586
 03  4  3  0 37  0.0000000  0  8G17G14G31G 3G15G 9G23G18
  22262626.624    -6718680.84749  -5053981.06246  22262626.054    22262637.398
  21169364.572   -23752042.82249 -18496022.68647  21169364.025    21169372.325
  22873712.150    -3425875.02049  -2474070.13144  22873711.188    22873722.198
  21659429.172   -15044040.94249 -11701292.11347  21659428.760    21659437.983
  20350533.952   -27439486.93849 -21372629.61448  20350533.139    20350541.613
  23543719.284   -10091664.42849  -7852459.98045  23543718.963    23543729.716
  21908043.945   -17211444.86549 -13135088.84747  21908043.278    21908051.760
  21131361.300   -25098889.71049 -19530354.01147  21131360.733    21131368.003
 03  4  3  0 37 30.0000000  0  8G17G14G31G 3G15G 9G23G18
  22275567.754    -6650675.24249  -5000989.74346  22275567.116    22275578.468
  21155815.122   -23823244.83349 -18551504.66147  21155814.585    21155822.998
  22863506.165    -3479508.39049  -2515862.29544  22863505.275    22863515.847
  21658701.719   -15047863.58349 -11704270.77847  21658701.263    21658710.386
  20354668.636   -27417758.81749 -21355698.58948  20354667.827    20354676.333
  23539416.687   -10114273.36449  -7870077.28145  23539416.451    23539427.586
  21917675.776   -17160829.31649 -13095648.17747  21917675.119    21917683.593
  21139970.413   -25053648.55049 -19495101.17447  21139969.823    21139977.175
 03  4  3  0 38  0.0000000  0  8G17G14G31G 3G15G 9G23G18
  22288567.553    -6582361.78649  -4947758.56146  22288566.895    22288578.206
  21142351.519   -23893995.87449 -18606635.25047  21142351.005    21142359.367
  22853396.909    -3532631.86549  -2557257.05644  22853396.143    22853406.776
  21658082.295   -15051117.69249 -11706806.41747  21658081.872    21658091.019
  20358878.810   -27395633.96849 -21338458.43448  20358878.012    20358886.545
  23535215.139   -10136351.84849  -7887281.17745  23535214.870    23535226.545
  21927324.306   -17110126.16349 -13056139.25347  21927323.550    21927332.042
  21148614.210   -25008225.19449 -19459706.36147  21148613.629    21148620.928
 03  4  3  0 38 30.0000000  0  8G17G14G31G 3G15G 9G23G18
  22301625.901    -6513741.32349  -4894288.14746  22301625.156    22301636.289
  21128974.170   -23964294.67949 -18661413.43147  21128973.566    21128981.750
  22843385.287    -3585244.28448  -2598253.65844  22843384.394    22843394.941
  21657571.047   -15053803.94649 -11708899.58947  21657570.725    21657579.824
  20363164.565   -27373112.22349 -21320909.01548  20363163.775    20363172.224
  23531114.844   -10157898.77249  -7904070.93645  23531114.648    23531126.396
  21936989.105   -17059336.92449 -13016563.23347  21936988.389    21936996.916
  21157292.476   -24962621.05249 -19424170.65947  21157291.901    21157299.040
 03  4  3  0 39  0.0000000  0  8G17G14G31G 3G15G 9G23G18
  22314742.204    -6444813.92949  -4840578.55546  22314741.436    22314752.722
  21115683.225   -24034139.14249 -18715837.57447  21115682.627    21115690.603
  22833470.752    -3637343.80149  -2638850.65544  22833470.218    22833480.864
  21657168.047   -15055922.29949 -11710550.20047  21657167.645    21657176.801
  20367526.092   -27350192.78349 -21303049.71948  20367525.266    20367533.541
  23527116.153   -10178912.15049  -7920444.88745  23527115.797    23527127.897
  21946670.177   -17008462.12049 -12976920.54147  21946669.477    21946678.067
  21166004.970   -24916836.83849 -19388494.65947  21166004.420    21166011.446
 03  4  3  0 39 30.0000000  0  8G17G14G31G 3G15G 9G23G18
  22327916.990    -6375578.77949  -4786629.15546  22327916.305    22327927.755
  21102479.004   -24103526.93049 -18769905.86747  21102478.468    21102486.331
  22823654.697    -3688927.84349  -2679045.85044  22823653.845    22823664.495
  21656873.177   -15057472.02849 -11711757.75647  21656872.769    21656881.951
  20371963.418   -27326874.31949 -21284879.47248  20371962.584    20371970.873
  23523219.097   -10199389.30849  -7936401.05145  23523218.934    23523231.334
  21956367.616   -16957501.69549 -12937211.13547  21956366.903    21956375.615
  21174751.663   -24870872.82149 -19352678.54047  21174751.085    21174758.070
 03  4  3  0 40  0.0000000  0  8G17G14G31G 3G15G 9G23G18
  22341150.323    -6306037.98849  -4732441.58846  22341149.514    22341161.129
  21089361.775   -24172457.95849 -18823618.23947  21089361.249    21089369.078
  22813936.815    -3739996.38349  -2718839.38644  22813935.820    22813946.370
  21656686.218   -15058454.87449 -11712523.60347  21656685.768    21656694.807
  20376476.512   -27303157.66549 -21266398.95948  20376475.699    20376483.934
  23519424.631   -10219330.27149  -7951939.32745  23519424.421    23519436.516
  21966080.829   -16906458.16549 -12897436.96447  21966080.149    21966088.985
  21183531.923   -24824731.54949 -19316724.29547  21183531.397    21183538.385
 03  4  3  0 40 30.0000000  0  8G17G14G31G 3G15G 9G23G18
  22354441.497    -6236192.25749  -4678016.43346  22354440.822    22354452.292
  21076331.816   -24240930.85049 -18876973.63347  21076331.279    21076339.028
  22804317.473    -3790548.30449  -2758230.45844  22804316.859    22804326.543
  21656606.859   -15058871.63049 -11712848.31547  21656606.404    21656615.465
  20381065.453   -27279042.91549 -21247608.23048  20381064.632    20381072.832
  23515732.394   -10238733.61049  -7967058.68845  23515732.077    23515743.911
  21975809.617   -16855332.84549 -12857599.04047  21975808.984    21975817.911
  21192345.664   -24778414.54749 -19280633.12147  21192345.165    21192352.104
 03  4  3  0 41  0.0000000  0  8G17G14G31G 3G15G 9G23G18
  22367791.131    -6166040.60249  -4623352.86046  22367790.371    22367801.830
  21063389.587   -24308942.65649 -18929969.73247  21063389.010    21063396.694
  22794796.478    -3840580.70949  -2797216.70744  22794795.892    22794805.361
  21656635.440   -15058721.17649 -11712731.05147  21656634.983    21656644.124
  20385730.450   -27254528.31349 -21228505.94848  20385729.643    20385737.794
  23512142.675   -10257596.71749  -7981757.07645  23512142.392    23512154.030
  21985554.097   -16804125.31549 -12817697.08547  21985553.428    21985562.498
  21201193.016   -24731921.55549 -19244404.82847  21201192.490    21201199.459
 03  4  3  0 41 30.0000000  0  8G17G14G31G 3G15G 9G23G18
  22381198.860    -6095583.05549  -4568450.98046  22381198.079    22381209.451
  21050535.452   -24376491.03249 -18982604.72047  21050534.868    21050542.597
  22785374.625    -3890091.59049  -2835796.57044  22785373.946    22785383.326
  21656772.066   -15058003.40149 -11712171.71747  21656771.599    21656780.676
  20390471.689   -27229612.92849 -21209091.35548  20390470.881    20390479.050
  23508656.231   -10275917.28749  -7996032.70745  23508655.936    23508667.804
  21995314.201   -16752835.79149 -12777731.22147  21995313.521    21995322.700
  21210073.743   -24685253.10649 -19208039.79347  21210073.242    21210080.267
 03  4  3  0 42  0.0000000  0  8G17G14G31G 3G15G 9G23G18
  22394664.656    -6024819.85049  -4513310.89046  22394663.986    22394675.340
  21037769.621   -24443574.92949 -19034877.79647  21037769.096    21037777.030
  22776052.275    -3939079.61249  -2873968.99045  22776051.686    22776060.977
  21657016.445   -15056718.78849 -11711170.69947  21657015.980    21657025.031
  20395289.295   -27204296.44749 -21189364.21548  20395288.456    20395296.643
  23505273.618   -10293694.15949  -8009884.72545  23505273.298    23505285.134
  22005089.609   -16701465.40049 -12737702.35347  22005088.974    22005098.200
  21218987.772   -24638410.27549 -19171538.88647  21218987.171    21218994.167
 03  4  3  0 42 30.0000000  0  8G17G14G31G 3G15G 9G23G18
  22408188.438    -5953752.80449  -4457934.03646  22408187.735    22408199.076
  21025092.383   -24510193.49849 -19086788.27047  21025091.872    21025100.018
  22766829.868    -3987544.35349  -2911733.65345  22766829.322    22766838.498
  21657368.458   -15054868.77549 -11709729.12547  21657368.046    21657377.098
  20400183.156   -27178578.95649 -21169324.61548  20400182.298    20400190.447
  23501994.464   -10310926.78649  -8023312.64745  23501993.969    23502005.661
  22014880.243   -16650016.05949 -12697611.97447  22014879.516    22014888.610
  21227934.328   -24591395.28149 -19134903.82647  21227933.777    21227940.840
 03  4  3  0 43  0.0000000  0  8G17G14G31G 3G15G 9G23G18
  22421769.909    -5882381.90849  -4402320.42046  22421769.212    22421780.642
  21012504.121   -24576344.62449 -19138334.50047  21012503.627    21012511.805
  22757707.532    -4035483.83849  -2949088.92945  22757706.858    22757716.258
  21657828.199   -15052453.35749 -11707846.98847  21657827.758    21657836.597
  20405153.448   -27152459.68649 -21148971.93048  20405152.657    20405160.737
  23498818.918   -10327613.28549  -8036315.02345  23498818.436    23498830.124
  22024685.745   -16598488.06149 -12657460.27547  22024685.038    22024694.004
  21236913.544   -24544208.76249 -19098135.09947  21236913.071    21236920.180
 03  4  3  0 43 30.0000000  0  8G17G14G31G 3G15G 9G23G18
  22435409.368    -5810706.61949  -4346469.63546  22435408.610    22435420.125
  21000005.333   -24642026.29649 -19189514.91047  21000004.779    21000012.801
  22748685.173    -4082895.87249  -2986033.26745  22748684.523    22748694.073
  21658395.397   -15049472.17149 -11705523.98947  21658394.965    21658403.817
  20410200.369   -27125937.66549 -21128305.41647  20410199.543    20410207.678
  23495747.772   -10343751.42949  -8048890.09545  23495747.064    23495758.832
  22034506.168   -16546881.54149 -12617247.39047  22034505.439    22034514.438
  21245925.473   -24496851.11049 -19061233.03447  21245924.962    21245932.054
 03  4  3  0 44  0.0000000  0  8G17G14G31G 3G15G 9G23G18
  22449106.678    -5738726.57549  -4290381.36746  22449105.938    22449117.331
  20987596.232   -24707236.34049 -19240327.82247  20987595.690    20987603.580
  22739763.627    -4129778.47149  -3022565.06445  22739762.849    22739772.289
  21659070.280   -15045925.08849 -11702760.02047  21659069.908    21659078.848
  20415324.194   -27099011.68249 -21107324.12447  20415323.356    20415331.544
  23492781.281   -10359339.13849  -8061036.24945  23492780.805    23492792.309
  22044341.421   -16495196.66249 -12576973.47247  22044340.681    22044349.762
  21254969.768   -24449322.69949 -19024197.91047  21254969.271    21254976.363
 03  4  3  0 44 30.0000000  0  8G17G14G31G 3G15G 9G23G18
  22462861.684    -5666443.61549  -4234057.05846  22462860.835    22462872.159
  20975276.879   -24771974.62849 -19290773.12647  20975276.348    20975284.130
  22730942.958    -4176131.55949  -3058684.30145  22730942.327    22730951.394
  21659852.756   -15041813.89049 -11699556.48847  21659852.306    21659861.232
  20420524.671   -27071682.79849 -21086028.87947  20420523.875    20420532.111
  23489919.937   -10374376.46449  -8072753.53545  23489919.517    23489930.725
  22054191.140   -16443435.78549 -12536640.33447  22054190.392    22054199.501
  21264046.233   -24401625.85249 -18987031.52947  21264045.727    21264052.764
 03  4  3  0 45  0.0000000  0  8G17G14G31G 3G15G 9G23G18
  22476674.419    -5593857.23749  -4177496.32046  22476673.602    22476684.807
  20963047.858   -24836238.64649 -19340848.87047  20963047.255    20963054.987
  22722223.323    -4221952.90649  -3094389.18345  22722222.485    22722231.892
  21660742.351   -15037138.38549 -11695913.21647  21660741.921    21660750.898
  20425802.111   -27043949.82249 -21064418.77048  20425801.282    20425809.535
  23487163.552   -10388861.12949  -8084040.18245  23487163.075    23487174.447
  22064055.356   -16391598.83149 -12496247.89647  22064054.653    22064063.709
  21273154.847   -24353760.50049 -18949733.87447  21273154.252    21273161.239
 03  4  3  0 45 30.0000000  0  8G17G14G31G 3G15G 9G23G18
  22490544.921    -5520968.04549  -4120699.61346  22490544.030    22490555.333
  20950909.210   -24900026.72449 -19390553.78147  20950908.648    20950916.480
  22713604.975    -4267241.10149  -3129678.64745  22713604.031    22713613.832
  21661739.341   -15031898.90249 -11691830.52547  21661738.940    21661747.894
  20431156.571   -27015812.15049 -21042493.30948  20431155.725    20431164.024
  23484512.526   -10402791.61449  -8094895.02045  23484512.002    23484523.526
  22073934.133   -16339686.41349 -12455796.65147  22073933.394    22073942.386
  21282295.084   -24305727.94649 -18912305.90347  21282294.514    21282301.500
 03  4  3  0 46  0.0000000  0  8G17G14G31G 3G15G 9G23G18
  22504472.806    -5447776.57949  -4063667.37146  22504471.938    22504483.494
  20938861.484   -24963337.67749 -19439886.88247  20938860.958    20938868.718
  22705088.536    -4311994.56249  -3164551.38444  22705087.176    22705097.302
  21662843.602   -15026095.80749 -11687308.63047  21662843.156    21662852.179
  20436588.015   -26987269.29149 -21020252.11147  20436587.175    20436595.475
  23481967.223   -10416166.49749  -8105316.91745  23481966.584    23481978.163
  22083827.058   -16287699.20249 -12415287.12747  22083826.305    22083835.226
  21291467.044   -24257528.88949 -18874748.19347  21291466.514    21291473.443
 03  4  3  0 46 30.0000000  0  8G17G14G31G 3G15G 9G23G18
  22518457.979    -5374284.16449  -4006400.61346  22518457.126    22518468.767
  20926904.696   -25026170.88349 -19488847.72747  20926904.106    20926911.809
  22696674.502    -4356213.07349  -3199007.39145  22696673.019    22696682.828
  21664054.664   -15019730.99849 -11682349.04047  21664054.218    21664063.381
  20442096.512   -26958321.93149 -20997695.71947  20442095.672    20442103.954
  23479527.867   -10428985.44649  -8115305.59245  23479527.201    23479538.553
  22093733.716   -16235639.06049 -12374720.79047  22093732.957    22093741.812
  21300670.355   -24209165.39349 -18837062.36247  21300669.793    21300676.748
 03  4  3  0 47  0.0000000  0  8G17G14G31G 3G15G 9G23G18
  22532500.461    -5300490.42249  -3948899.07646  22532499.725    22532511.553
  20915039.211   -25088524.01349 -19537434.48547  20915038.670    20915046.260
  22688361.886    -4399894.47949  -3233044.80345  22688360.735    22688370.721
  21665372.810   -15012803.96849 -11676951.36747  21665372.345    21665381.600
  20447682.270   -26928968.62049 -20974823.01447  20447681.415    20447689.702
  23477194.739   -10441246.38149  -8124859.46045  23477194.097    23477205.252
  22103654.238   -16183505.94349 -12334097.59547  22103653.569    22103662.226
  21309904.853   -24160637.53349 -18799248.45847  21309904.290    21309911.419
 03  4  3  0 47 30.0000000  0  8G17G14G31G 3G15G 9G23G18
  22546600.612    -5226395.83049  -3891163.10046  22546599.724    22546611.473
  20903265.448   -25150395.71249 -19585646.08947  20903264.851    20903272.383
  22680151.903    -4443037.50249  -3266662.66045  22680150.739    22680160.881
  21666797.764   -15005315.50749 -11671116.20947  21666797.358    21666806.681
  20453345.294   -26899209.17949 -20951633.82547  20453344.454    20453352.738
  23474968.023   -10452947.84149  -8133977.39445  23474967.437    23474978.464
  22113588.606   -16131300.56749 -12293418.06647  22113587.912    22113596.485
  21319170.484   -24111946.31349 -18761307.23547  21319169.916    21319177.147
 03  4  3  0 48  0.0000000  0  8G17G14G31G 3G15G 9G23G18
  22560757.638    -5152000.59349  -3833192.86946  22560756.773    22560768.460
  20891583.433   -25211784.42249 -19633481.35147  20891582.858    20891590.376
  22672044.309    -4485640.75649  -3299859.91945  22672043.202    22672053.693
  21668329.608   -14997265.80949 -11664843.72147  21668329.168    21668338.567
  20459085.645   -26869043.30549 -20928127.94947  20459084.790    20459093.090
  23472847.669   -10464088.74049  -8142658.50745  23472847.217    23472858.376
  22123536.554   -16079023.54449 -12252682.73247  22123535.875    22123544.454
  21328466.917   -24063092.75349 -18723239.50647  21328466.420    21328473.701
 03  4  3  0 48 30.0000000  0  8G17G14G31G 3G15G 9G23G18
  22574971.914    -5077304.43449  -3774988.17546  22574971.082    22574982.693
  20879993.789   -25272688.10949 -19680938.66847  20879993.212    20880000.729
  22664040.292    -4527702.12349  -3332634.96145  22664039.342    22664049.646
  21669968.287   -14988654.90349 -11658133.95047  21669967.853    21669977.128
  20464903.666   -26838469.69449 -20904304.35247  20464902.822    20464911.089
  23470834.369   -10474666.96749  -8150901.21545  23470833.970    23470845.337
  22133498.042   -16026674.87949 -12211891.56747  22133497.359    22133506.224
  21337794.459   -24014077.05649 -18685045.46347  21337793.882    21337801.090
 03  4  3  0 49  0.0000000  0  8G17G14G31G 3G15G 9G23G18
  22589243.042    -5002309.21249  -3716550.42146  22589242.283    22589253.720
  20868496.508   -25333106.40949 -19728017.77247  20868495.861    20868503.477
  22656139.500    -4569221.46549  -3364987.66845  22656138.561    22656148.788
  21671713.492   -14979484.45349 -11650988.15747  21671713.065    21671722.229
  20470799.012   -26807489.17549 -20880163.68847  20470798.122    20470806.471
  23468928.417   -10484682.44749  -8158705.43245  23468927.940    23468939.067
  22143472.898   -15974256.32649 -12171045.95247  22143472.203    22143481.301
  21347152.377   -23964901.05749 -18646726.51247  21347151.794    21347158.935
 03  4  3  0 49 30.0000000  0  8G17G14G31G 3G15G 9G23G18
  22603570.836    -4927015.76549  -3657880.30546  22603570.094    22603581.397
  20857091.655   -25393038.14449 -19774717.74447  20857091.067    20857098.770
  22648342.072    -4610198.08249  -3396917.44345  22648341.199    22648350.894
  21673564.837   -14969755.81949 -11643407.41447  21673564.414    21673573.588
  20476771.657   -26776101.72749 -20855705.91847  20476770.817    20476779.341
  23467129.791   -10494134.38449  -8166070.48845  23467129.304    23467140.338
  22153460.776   -15921769.09549 -12130146.80547  22153460.139    22153469.296
  21356540.419   -23915566.18249 -18608283.75647  21356539.865    21356547.045
 03  4  3  0 50  0.0000000  0  8G17G14G31G 3G15G 9G23G18
  22617955.541    -4851424.08149  -3598977.78846  22617954.846    22617966.026
  20845779.774   -25452481.79949 -19821037.37347  20845779.188    20845786.800
  22640647.965    -4650630.22349  -3428422.93745  22640647.246    22640656.615
  21675522.324   -14959469.27349 -11635391.92947  21675521.938    21675531.067
  20482821.943   -26744306.58349 -20830930.47147  20482821.138    20482829.789
  23465438.809   -10503021.10449  -8172995.13045  23465438.384    23465449.271
  22163461.786   -15869213.61749 -12089194.48347  22163461.095    22163470.206
  21365958.709   -23866073.11049 -18569717.73047  21365958.145    21365965.255
 03  4  3  0 50 30.0000000  0  8G17G14G31G 3G15G 9G23G18
  22632396.702    -4775534.45549  -3539843.07746  22632396.049    22632407.370
  20834561.116   -25511435.49749 -19866975.23647  20834560.534    20834568.137
  22633058.018    -4690516.33749  -3459502.94945  22633057.131    22633066.531
  21677586.001   -14948625.07549 -11626941.91347  21677585.560    21677594.626
  20488950.165   -26712103.00949 -20805836.76747  20488949.355    20488957.951
  23463855.504   -10511341.24249  -8179478.29345  23463855.141    23463865.966
  22173475.731   -15816589.84449 -12048188.95747  22173475.043    22173484.050
  21375406.928   -23816421.84049 -18531028.43447  21375406.354    21375413.533
 03  4  3  0 51  0.0000000  0  8G17G14G31G 3G15G 9G23G18
  22646894.715    -4699346.57649  -3480476.01846  22646894.131    22646905.379
  20823436.090   -25569897.25249 -19912529.75947  20823435.556    20823443.205
  22625572.082    -4729854.27249  -3490155.87845  22625571.254    22625580.804
  21679755.703   -14937223.01049 -11618057.18347  21679755.288    21679764.313
  20495156.303   -26679489.85549 -20780423.92847  20495155.489    20495164.012
  23462380.422   -10519092.70349  -8185518.31445  23462380.032    23462390.986
  22183502.769   -15763897.85749 -12007130.28847  22183502.091    22183510.961
  21384885.203   -23766612.87149 -18492216.27647  21384884.692    21384891.866
 03  4  3  0 51 30.0000000  0  8G17G14G31G 3G15G 9G23G18
  22661449.526    -4622860.88849  -3420876.85745  22661448.806    22661459.976
  20812405.097   -25627865.29049 -19957699.56247  20812404.582    20812412.268
  22618190.353    -4768642.67448  -3520380.53445  22618189.734    22618199.276
  21682031.522   -14925263.49849 -11608738.09947  21682031.122    21682040.149
  20501440.595   -26646466.35749 -20754691.33647  20501439.759    20501448.090
  23461013.601   -10526274.12149  -8191114.18645  23461013.149    23461024.337
  22193542.789   -15711137.81049 -11966018.59647  22193542.080    22193550.844
  21394393.522   -23716646.63149 -18453281.54247  21394392.970    21394400.118
 03  4  3  0 52  0.0000000  0  8G17G14G31G 3G15G 9G23G18
  22676060.506    -4546078.57049  -3361046.60546  22676059.970    22676071.386
  20801468.197   -25685339.27849 -20002484.40147  20801467.653    20801475.188
  22610914.460    -4806881.35349  -3550176.81245  22610913.659    22610922.536
  21684413.109   -14912748.52049 -11598986.14847  21684412.663    21684421.729
  20507802.735   -26613033.24949 -20728639.57747  20507801.914    20507810.133
  23459755.319   -10532885.34449  -8196265.73545  23459755.049    23459766.225
  22203595.439   -15658311.32349 -11924855.10847  22203594.741    22203603.436
  21403931.436   -23666525.00949 -18414225.77047  21403930.877    21403937.918
 03  4  3  0 52 30.0000000  0  8G17G14G31G 3G15G 9G23G18
  22690728.191    -4469001.92049  -3300986.93446  22690727.486    22690738.922
  20790625.155   -25742319.94349 -20046884.82647  20790624.590    20790631.939
  22603742.985    -4844570.76649  -3579545.16645  22603742.253    22603750.384
  21686899.838   -14899680.70349 -11588803.42347  21686899.382    21686908.528
  20514242.488   -26579192.08049 -20702269.83547  20514241.676    20514249.914
  23458606.009   -10538927.12749  -8200973.54645  23458605.546    23458616.714
  22213660.272   -15605420.89349 -11883641.81347  22213659.494    22213668.237
  21413498.417   -23616250.75449 -18375051.04247  21413497.824    21413504.743
 03  4  3  0 53  0.0000000  0  8G17G14G31G 3G15G 9G23G18
  22705451.672    -4391630.28649  -3240697.45346  22705451.033    22705462.559
  20779876.393   -25798804.75349 -20090898.88547  20779875.772    20779883.107
  22596674.748    -4881714.72658  -3608488.57544  22596673.710    22596682.849
  21689491.803   -14886059.65249 -11578189.59147  21689491.377    21689500.565
  20520760.167   -26544941.55849 -20675581.11147  20520759.344    20520767.680
  23457564.918   -10544397.12849  -8205235.83945  23457564.376    23457575.751
  22223737.260   -15552465.90249 -11842378.21047  22223736.537    22223745.289
  21423094.488   -23565823.44649 -18335757.05047  21423093.871    21423100.815
 03  4  3  0 53 30.0000000  0  8G17G14G31G 3G15G 9G23G18
  22720232.012    -4313960.19449  -3180175.38946  22720231.341    22720242.904
  20769222.920   -25854788.07949 -20134522.16247  20769222.377    20769229.732
  22589711.348    -4918298.00348  -3636995.31244                  22589710.231
  21692189.847   -14871882.11249 -11567142.18247  21692189.389    21692198.439
  20527356.593   -26510277.20849 -20648569.93947  20527355.797    20527364.099
  23456633.492   -10549290.36349  -8209048.72145  23456633.051    23456644.473
  22233827.203   -15499443.09749 -11801061.75247  22233826.482    22233835.194
  21432720.177   -23515239.89049 -18296341.30347  21432719.597    21432726.641
 03  4  3  0 54  0.0000000  0  8G17G14G31G 3G15G 9G23G18
  22735067.940    -4235997.14149  -3119425.04146  22735067.320    22735078.833
  20758664.371   -25910273.71349 -20177757.63647  20758663.796    20758671.051
  22582856.305    -4954326.82049  -3665069.55744  22582855.184    22582865.456
  21694992.693   -14857153.53849 -11555665.36947  21694992.200    21695001.178
  20534030.996   -26475203.35349 -20621239.66747  20534030.147    20534038.346
  23455811.450   -10553610.54149  -8212414.99445  23455810.950    23455821.876
  22243929.119   -15446357.61849 -11759696.48147  22243928.379    22243937.011
  21442374.625   -23464505.72149 -18256808.18147  21442374.033    21442381.107
 03  4  3  0 54 30.0000000  0  8G17G14G31G 3G15G 9G23G18
  22749959.251    -4157741.75249  -3058446.90646  22749958.712    22749970.364
  20748200.714   -25965260.66449 -20220604.53047  20748200.070    20748207.242
  22576105.804    -4989802.05148  -3692712.49644  22576104.538    22576114.661
  21697899.939   -14841875.22149 -11543760.18747  21697899.487    21697908.478
  20540783.119   -26439720.24349 -20593590.48447  20540782.293    20540790.509
  23455098.557   -10557357.10849  -8215334.31645  23455098.034    23455108.693
  22254042.766   -15393210.46849 -11718283.15247  22254042.027    22254050.573
  21452057.453   -23413622.11549 -18217158.61747  21452056.880    21452063.937
 03  4  3  0 55  0.0000000  0  8G17G14G31G 3G15G 9G23G18
  22764906.640    -4079192.68249  -2997239.93846  22764906.094    22764917.931
  20737832.322   -26019745.84849 -20263060.43047  20737831.748    20737839.006
  22569460.892    -5024720.70449  -3719921.77144  22569459.907    22569470.221
  21700912.069   -14826046.14649 -11531425.83347  21700911.631    21700920.585
  20547613.627   -26403825.50949 -20565620.56547  20547612.834    20547621.004
  23454495.075   -10560527.18549  -8217804.44945  23454494.562    23454505.333
  22264168.363   -15340000.29749 -11676820.72247  22264167.647    22264176.158
  21461768.994   -23362587.67249 -18177391.52647  21461768.417    21461775.489
 03  4  3  0 55 30.0000000  0  8G17G14G31G 3G15G 9G23G18
  22779909.759    -4000351.38949  -2935805.26846  22779909.216    22779920.946
  20727559.773   -26073728.75149 -20305124.95348  20727559.189    20727566.463
  22562922.556    -5059082.71349  -3746697.28045  22562921.334    22562931.301
  21704028.714   -14809668.20349 -11518663.80847  21704028.244    21704037.176
  20554522.475   -26367519.65149 -20537330.29247  20554521.641    20554529.812
  23454001.393   -10563120.48749  -8219825.11445  23454001.033    23454011.546
  22274305.843   -15286728.41649 -11635310.20147  22274305.059    22274313.486
  21471508.838   -23311404.22049 -18137508.33047  21471508.254    21471515.288
 03  4  3  0 56  0.0000000  0  8G17G14G31G 3G15G 9G23G18
  22794968.613    -3921218.87149  -2874143.66246  22794967.842    22794979.140
  20717382.792   -26127208.76649 -20346797.62448  20717382.195    20717389.516
  22556489.635    -5092887.13849  -3773038.32545  22556488.717    22556498.614
  21707249.465   -14792742.73549 -11505475.12147  21707249.044    21707258.025
  20561509.363   -26330802.97649 -20508719.89047  20561508.554    20561516.866
  23453617.698   -10565136.57849  -8221396.01645  23453617.258    23453627.963
  22284454.544   -15233395.99549 -11593752.48547  22284453.834    22284462.454
  21481276.808   -23260072.96449 -18097509.93647  21481276.232    21481283.209
 03  4  3  0 56 30.0000000  0  8G17G14G31G 3G15G 9G23G18
  22810082.580    -3841795.29149  -2812255.29446  22810081.887    22810092.778
  20707301.769   -26180184.14449 -20388077.06747  20707301.154    20707308.550
  22550163.059    -5126132.74949  -3798943.93845  22550162.197    22550172.212
  21710574.358   -14775270.16149 -11491860.13547  21710573.962    21710582.944
  20568574.582   -26293674.64949 -20479788.70947  20568573.753    20568582.282
  23453344.228   -10566574.13449  -8222516.13445  23453343.807    23453354.470
  22294614.892   -15180002.78649 -11552147.38747  22294614.140    22294622.934
  21491072.796   -23208593.99149 -18057396.43647  21491072.250    21491079.319
 03  4  3  0 57  0.0000000  0  8G17G14G31G 3G15G 9G23G18
  22825251.904    -3762082.35449  -2750141.40745  22825250.899    22825261.755
  20697316.652   -26232654.97649 -20428963.36547  20697316.116    20697323.612
  22543943.193    -5158819.66349  -3824414.19844  22543942.423    22543951.734
  21714003.074   -14757252.36849 -11477820.29847  21714002.619    21714011.686
  20575718.011   -26256135.55749 -20450537.46247  20575717.207    20575725.751
  23453180.974   -10567433.40149  -8223185.58245  23453180.430    23453191.153
  22304786.487   -15126550.33849 -11510496.15747  22304785.728    22304794.622
  21500896.547   -23156969.37149 -18017169.46647  21500896.010    21500903.116
 03  4  3  0 57 30.0000000  0  8G17G14G31G 3G15G 9G23G18
  22840475.684    -3682078.78249  -2687801.03445  22840474.839    22840486.177
  20687428.305   -26284618.09849 -20469454.03647  20687427.802    20687435.320
  22537830.297    -5190945.02449  -3849446.90844  22537829.445    22537838.104
  21717535.465   -14738688.59549 -11463355.01247  21717535.083    21717544.337
  20582940.061   -26218183.58649 -20420964.50947  20582939.237    20582947.622
  23453128.113   -10567711.73849  -8223402.39545  23453127.589    23453138.220
  22314969.600   -15073037.39849 -11468797.76946  22314968.859    22314977.740
  21510748.329   -23105198.13849 -17976828.25547  21510747.779    21510754.725
 03  4  3  0 58  0.0000000  0  8G17G14G31G 3G15G 9G23G18
  22855754.856    -3601784.32649  -2625234.02545  22855754.102    22855766.072
  20677637.036   -26336071.53449 -20509547.54147  20677636.560    20677643.909
  22531824.256    -5222506.93249  -3874040.57244  22531823.454    22531831.102
  21721171.902   -14719578.99249 -11448464.41847  21721171.516    21721180.781
  20590240.940   -26179817.70449 -20391069.02947  20590240.063    20590248.355
  23453185.784   -10567407.18249  -8223165.01145  23453185.389    23453195.869
  22325164.429   -15019463.62549 -11427051.98347  22325163.701    22325172.353
  21520628.266   -23053279.85549 -17936372.46847  21520627.619    21520634.315
 03  4  3  0 58 30.0000000  0  8G17G14G31G 3G15G 9G23G18
  22871089.446    -3521199.31249  -2562440.59445  22871088.884    22871101.037
  20667943.013   -26387014.17949 -20549243.02847  20667942.471    20667949.688
  22525924.885    -5253504.49549  -3898194.41344  22525924.170    22525932.247
  21724912.185   -14699924.51449 -11433149.25547  21724911.717    21724920.811
  20597620.558   -26141037.53749 -20360850.72547  20597619.705    20597627.931
  23453354.809   -10566519.13249  -8222472.92145  23453354.171    23453364.541
  22335370.766   -14965829.37149 -11385259.08247  22335370.065    22335378.581
  21530535.792   -23001215.24949 -17895802.66647  21530535.151    21530541.775
 03  4  3  0 59  0.0000000  0  8G17G14G31G 3G15G 9G23G18
  22886479.266    -3440326.29249  -2499422.77446  22886478.709    22886490.724
  20658345.950   -26437446.84249 -20588541.12548  20658345.415    20658352.620
  22520132.737    -5283938.72249  -3921909.32944  22520132.267    22520140.752
  21728755.335   -14679728.05249 -11417411.76647  21728754.886    21728763.998
  20605078.613   -26101845.04849 -20330311.12347  20605077.712    20605085.998
  23453634.545   -10565048.65849  -8221327.01645  23453633.998    23453644.104
  22345588.128   -14912137.15949 -11343420.99247  22345587.422    22345595.877
  21540470.545   -22949007.13549 -17855121.02547  21540469.963    21540476.644
 03  4  3  0 59 30.0000000  0  8G17G14G31G 3G15G 9G23G18
  22901924.093    -3359167.50449  -2436182.26646  22901923.298    22901934.995
  20648845.939   -26487369.62649 -20627441.92248  20648845.392    20648852.556
  22514448.583    -5313809.96649  -3945185.58544  22514447.773    22514456.413
  21732701.143   -14658991.90349 -11401253.72347  21732700.744    21732710.001
  20612614.867   -26062241.11949 -20299450.91447  20612614.014    20612622.425
  23454024.661   -10562996.22349  -8219727.61345  23454024.099    23454034.556
  22355816.228   -14858388.57649 -11301538.99047  22355815.550    22355823.950
  21550432.357   -22896657.33549 -17814328.98147  21550431.766    21550438.557
 03  4  3  1  0  0.0000000  0  8G17G14G31G 3G15G 9G23G18
  22917422.723    -3277722.56849  -2372718.78446  22917421.889    22917433.504
  20639443.304   -26536780.87149 -20665944.11048  20639442.721    20639449.828
  22508871.945    -5343116.77049  -3968021.99645  22508871.182    22508879.923
  21736749.611   -14637716.56649 -11384675.52847  21736749.242    21736758.642
  20620229.681   -26022225.02249 -20268269.53547  20620228.823    20620237.271
  23454525.665   -10560360.40449  -8217673.69945  23454525.280    23454536.133
  22366055.013   -14804583.52849 -11259612.99147  22366054.313    22366062.726
  21560421.021   -22844166.21149 -17773426.80347  21560420.511    21560427.389
 03  4  3  1  0 30.0000000  0  8G17G14G31G 3G15G 9G23G18
  22932975.414    -3195991.54149  -2309032.37945  22932974.633    22932986.336
  20630138.214   -26585678.92149 -20704046.41848  20630137.613    20630144.804
  22503402.825    -5371857.60649  -3990417.40045  22503402.019    22503410.720
  21740900.732   -14615902.47249 -11367677.52447  21740900.368    21740909.748
  20627923.082   -25981795.92949 -20236766.33547  20627922.266    20627930.733
  23455138.817   -10557139.86549  -8215164.13445  23455138.545    23455149.257
  22376304.390   -14750721.71349 -11217642.73546  22376303.658    22376312.288
  21570436.890   -22791533.20849 -17732414.08947  21570436.347    21570443.202
 03  4  3  1  1  0.0000000  0  8G17G14G31G 3G15G 9G23G18
  22948582.372    -3113975.66549  -2245124.00845  22948581.638    22948593.367
  20620930.716   -26634063.02549 -20741748.25947  20620930.217    20620937.539
  22498041.459    -5400031.96149  -4012371.43145  22498040.581    22498049.341
  21745154.132   -14593551.22949 -11350260.95347  21745153.703    21745163.086
  20635695.086   -25940953.98849 -20204941.44447  20635694.236    20635702.692
  23455863.062   -10553334.44849  -8212198.82345  23455862.754    23455873.667
  22386564.220   -14696803.92749 -11175628.86146  22386563.505    22386572.400
  21580479.425   -22738759.63349 -17691291.83847  21580478.895    21580485.710
 03  4  3  1  1 30.0000000  0  8G17G14G31G 3G15G 9G23G18
  22964243.765    -3031674.92249  -2180993.67545  22964243.145    22964254.616
  20611821.450   -26681931.95449 -20779048.65247  20611820.934    20611828.303
  22492787.846    -5427638.69049  -4033883.12045  22492787.137    22492796.306
  21749509.550   -14570663.52849 -11332426.38647  21749509.108    21749518.345
  20643545.714   -25899698.32949 -20172794.16547  20643544.901    20643553.316
  23456698.400   -10548943.05349  -8208776.88845  23456698.296    23456709.287
  22396834.881   -14642830.13349 -11133571.35946  22396834.244    22396843.225
  21590548.636   -22685845.73849 -17650060.24047  21590548.045    21590554.969
 03  4  3  1  2  0.0000000  0  8G17G14G31G 3G15G 9G23G18
  22979959.227    -2949090.34549  -2116642.15945  22979958.724    22979969.982
  20602810.434   -26729284.89649 -20815946.97348  20602809.931    20602817.274
  22487642.648    -5454677.54749  -4054952.34045  22487641.941    22487651.182
  21753966.655   -14547241.05049 -11314175.08947  21753966.262    21753975.444
  20651475.117   -25858029.31649 -20140324.81147  20651474.262    20651482.589
  23457645.761   -10543965.33049  -8204898.05645  23457645.520    23457656.471
  22407116.438   -14588801.27149 -11091470.96446  22407115.716    22407124.637
  21600644.080   -22632792.80649 -17608720.28947  21600643.536    21600650.698
 03  4  3  1  2 30.0000000  0  8G17G14G31G 3G15G 9G23G18
  22995728.775    -2866223.45049  -2052070.68546  22995728.088    22995739.211
  20593897.792   -26776121.64449 -20852443.07248  20593897.261    20593904.526
  22482605.120    -5481148.20349  -4075578.74445  22482604.407    22482614.008
  21758525.327   -14523285.48049 -11295508.41347  21758524.906    21758534.060
  20659483.091   -25815947.51349 -20107533.80547  20659482.208    20659490.531
  23458704.742   -10538401.21049  -8200562.30445  23458704.507    23458715.586
  22417408.294   -14534718.24649 -11049328.36947  22417407.571    22417416.378
  21610765.878   -22579602.02449 -17567272.94747  21610765.358    21610772.592
 03  4  3  1  3  0.0000000  0  8G17G14G31G 3G15G 9G23G18
  23011551.538    -2783074.28849  -1987279.17846  23011550.904    23011562.395
  20585083.609   -26822440.94849 -20888535.96348  20585083.043    20585090.180
  22477676.250    -5507049.71549  -4095761.69445  22477675.709    22477685.117
  21763185.233   -14498797.69049 -11276427.00647  21763184.771    21763193.920
  20667569.760   -25773452.49649 -20074420.81747  20667568.870    20667577.142
  23459875.469   -10532250.17249  -8195769.21245  23459875.037    23459886.421
  22427710.409   -14480581.20549 -11007143.65447  22427709.680    22427718.395
  21620913.923   -22526273.70449 -17525718.40947  21620913.403    21620920.629
 03  4  3  1  3 30.0000000  0  8G17G14G31G 3G15G 9G23G18
  23027428.141    -2699642.56849  -1922267.57146  23027427.513    23027439.433
  20576368.257   -26868240.72849 -20924224.03548  20576367.707    20576374.680
  22472856.098    -5532380.15949  -4115499.67145  22472855.516    22472864.732
  21767946.219   -14473777.61849 -11256930.84347  21767945.855    21767954.957
  20675735.157   -25730542.83549 -20040984.72247  20675734.228    20675742.561
  23461157.582   -10525509.97649  -8190517.08745  23461157.010    23461168.980
  22438022.904   -14426389.28349 -10964916.20347  22438022.140    22438030.866
  21631088.228   -22472807.35349 -17484056.33947  21631087.749    21631094.934
 03  4  3  1  4  0.0000000  0  8G17G14G31G 3G15G 9G23G18
  23043358.046    -2615929.90649  -1857037.02245  23043357.376    23043369.378
  20567751.746   -26913520.95649 -20959507.27148  20567751.152    20567758.127
  22468144.494    -5557139.83449  -4134792.89845  22468143.928    22468152.892
  21772808.431   -14448227.48549 -11237021.65147  21772808.028    21772816.882
  20683979.120   -25687219.37949 -20007226.18947  20683978.270    20683986.688
  23462552.285   -10518181.28549  -8184806.43145  23462551.722    23462563.686
  22448345.479   -14372143.64549 -10922646.89447  22448344.764    22448353.554
  21641288.641   -22419204.40449 -17442287.82547  21641288.058    21641295.222
 03  4  3  1  4 30.0000000  0  8G17G14G31G 3G15G 9G23G18
  23059340.810    -2531938.21449  -1791589.07545  23059340.251    23059352.355
  20559233.917   -26958282.15849 -20994386.05948  20559233.319    20559240.245
  22463541.704    -5581329.32149  -4153641.82345  22463541.034    22463549.746
  21777770.944   -14422149.99749 -11216701.54047  21777770.483    21777779.159
  20692301.686   -25643483.39249 -19973146.20747  20692300.898    20692309.365
  23464059.211   -10510265.01549  -8178637.81145  23464058.530    23464070.367
  22458677.991   -14317846.19649 -10880337.21747  22458677.242    22458686.055
  21651514.571   -22365466.68149 -17400414.30547  21651514.049    21651521.163
 03  4  3  1  5  0.0000000  0  8G17G14G31G 3G15G 9G23G18
  23075376.847    -2447666.99049  -1725923.28445  23075376.380    23075388.385
  20550815.338   -27002521.62849 -21028858.31948  20550814.727    20550821.669
  22459047.565    -5604946.39649  -4172044.71546  22459046.836    22459055.671
  21782833.625   -14395544.99749 -11195970.35447  21782833.188    21782842.004
  20700703.199   -25599333.21249 -19938743.47347  20700702.372    20700710.865
  23465677.968   -10501758.93449  -8172009.59345  23465677.469    23465688.817
  22469020.513   -14263495.60649 -10837986.12546  22469019.752    22469028.669
  21661766.401   -22311593.45349 -17358435.19347  21661765.841    21661772.865
 03  4  3  1  5 30.0000000  0  8G17G14G31G 3G15G 9G23G18
  23091466.246    -2363117.01349  -1660040.31845  23091465.770    23091477.776
  20542496.153   -27046238.83249 -21062923.60648  20542495.556    20542502.500
  22454662.127    -5627990.60249  -4190001.18045  22454661.492    22454670.448
  21787996.563   -14368413.80549 -11174829.15847  21787996.114    21788004.952
  20709183.615   -25554768.72049 -19904017.91247  20709182.791    20709191.217
  23467408.846   -10492662.66149  -8164921.53544  23467408.370    23467419.020
  22479372.826   -14209092.26849 -10795593.92846  22479372.125    22479381.193
  21672043.883   -22257585.43349 -17316351.03647  21672043.317    21672050.239
 03  4  3  1  6  0.0000000  0  8G17G14G31G 3G15G 9G23G18
  23107608.629    -2278289.26949  -1593940.90545  23107608.185    23107620.107
  20534276.376   -27089433.45449 -21096581.69348  20534275.757    20534282.720
  22450385.796    -5650461.92749  -4207511.24146  22450385.122    22450394.286
  21793259.246   -14340758.31649 -11153279.40847  21793258.771    21793267.665
  20717742.670   -25509790.75149 -19868970.15247  20717741.866    20717750.213
  23469251.639   -10482976.63448  -8157373.93144  23469250.739    23469261.859
  22489735.141   -14154637.05349 -10753161.30146  22489734.451    22489743.638
  21682346.719   -22203443.72249 -17274162.70347  21682346.174    21682353.013
 03  4  3  1  6 30.0000000  0  8G17G14G31G 3G15G 9G23G18
  23123803.764    -2193183.87349  -1527625.11345  23123803.285    23123815.364
  20526156.259   -27132103.85549 -21129831.29548  20526155.659    20526162.673
  22446218.921    -5672359.17849  -4224573.99946  22446218.276    22446227.259
  21798621.437   -14312579.30349 -11131321.73147  21798621.009    21798629.841
  20726380.545   -25464398.61049 -19833599.67447  20726379.736    20726388.044
  23471206.241   -10472699.59949  -8149365.88944  23471205.645    23471216.609
  22500107.615   -14100129.59949 -10710687.96146  22500106.920    22500116.077
  21692675.044   -22149168.27749 -17231870.16247  21692674.454    21692681.264
 03  4  3  1  7  0.0000000  0  8G17G14G31G 3G15G 9G23G18
  23140051.332    -2107801.75949  -1461093.69445  23140050.796    23140063.089
  20518136.024   -27174249.89349 -21162672.31248  20518135.451    20518142.582
  22442161.230    -5693682.07349  -4241189.19746  22442160.666    22442169.621
  21804082.918   -14283878.63649 -11108957.58347  21804082.528    21804091.331
  20735097.272   -25418592.61849 -19797906.71247  20735096.451    20735104.667
  23473273.869   -10461831.50949  -8140897.19644  23473273.369    23473284.828
  22510490.040   -14045570.76549 -10668174.60746  22510489.282    22510498.374
  21703028.512   -22094760.04249 -17189474.14747  21703027.947    21703034.839
 03  4  3  1  7 30.0000000  0  8G17G14G31G 3G15G 9G23G18
  23156351.647    -2022145.05949  -1394348.35045  23156351.101    23156363.094
  20510215.624   -27215871.92449 -21195105.00348  20510215.053    20510222.164
  22438212.660    -5714431.46849  -4257357.49146  22438212.179    22438221.136
  21809643.348   -14254658.62249 -11086188.76847  21809642.869    21809651.627
  20743892.360   -25372374.10549 -19761892.29547  20743891.543    20743899.753
  23475454.679   -10450373.35649  -8131968.68844  23475454.011    23475465.038
  22520881.718   -13990962.14949 -10625622.44046  22520880.999    22520890.158
  21713406.986   -22040220.93449 -17146976.13747  21713406.391    21713413.361
 03  4  3  1  8  0.0000000  0  8G17G14G31G 3G15G 9G23G18
  23172703.762    -1936216.70649  -1327391.30645  23172703.041    23172715.073
  20502394.806   -27256970.94449 -21227130.15048  20502394.228    20502401.206
  22434373.399    -5734608.57249  -4273079.87246  22434372.837    22434381.530
  21815301.729   -14224922.55149 -11063017.78847  21815301.331    21815310.184
  20752765.668   -25325744.57049 -19725557.61447  20752764.880    20752773.016
  23477747.879   -10438326.60049  -8122581.53544  23477746.903    23477756.796
  22531282.485   -13936305.63449 -10583032.95546  22531281.807    22531290.984
  21723809.894   -21985553.33449 -17104377.98447  21723809.350    21723816.381
 03  4  3  1  8 30.0000000  0  8G17G14G31G 3G15G 9G23G18
  23189107.514    -1850015.29749  -1260221.48145  23189106.775    23189118.970
  20494673.970   -27297544.45149 -21258745.79548  20494673.323    20494680.263
  22430643.212    -5754211.13049  -4288354.54546  22430642.550    22430651.148
  21821058.650   -14194669.80149 -11039444.19747  21821058.286    21821067.229
  20761717.498   -25278702.28449 -19688901.29847  20761716.713    20761724.778
  23480152.902   -10425689.39849  -8112734.24545  23480151.959    23480161.544
  22541692.683   -13881599.77449 -10540405.03246  22541691.981    22541701.117
  21734237.578   -21930755.95949 -17061678.73347  21734237.021    21734243.996
 03  4  3  1  9  0.0000000  0  8G17G14G31G 3G15G 9G23G18
  23205563.139    -1763541.04849  -1192839.04845  23205562.314    23205574.737
  20487053.263   -27337590.92149 -21289950.78248  20487052.669    20487059.611
  22427022.359    -5773237.70749  -4303180.40746  22427021.727    22427030.423
  21826913.856   -14163901.31949 -11015468.75247  21826913.412    21826922.340
  20770747.985   -25231246.36549 -19651922.68947  20770747.231    20770755.312
  23482669.904   -10412460.44449  -8102425.93744  23482669.506    23482679.531
  22552112.307   -13826844.06549 -10497738.26646  22552111.648    22552120.766
  21744689.964   -21875828.32749 -17018877.98047  21744689.435    21744696.271
 03  4  3  1  9 30.0000000  0  8G17G14G31G 3G15G 9G23G18
  23222070.286    -1676794.36449  -1125244.36045  23222069.586    23222082.310
  20479533.054   -27377109.24249 -21320744.21348  20479532.505    20479539.369
  22423511.408    -5791687.64249  -4317556.90446  22423510.756    22423519.534
  21832866.687   -14132618.19749 -10991092.30047  21832866.321    21832875.346
  20779857.453   -25183376.35649 -19614621.39747  20779856.695    20779864.766
  23485300.192   -10398639.00249  -8091656.00844  23485299.755    23485309.375
  22562541.637   -13772038.33249 -10455032.49946  22562540.898    22562549.802
  21755167.007   -21820770.63049 -16975975.86047  21755166.482    21755173.251
 03  4  3  1 10  0.0000000  0  8G17G14G31G 3G15G 9G23G18
  23238629.304    -1589776.50549  -1057438.35945  23238628.622    23238641.428
  20472113.500   -27416099.41449 -21351126.08948  20472112.911    20472119.635
  22420110.188    -5809561.12549  -4331484.24846  22420109.551    22420118.264
  21838917.240   -14100822.38149 -10966316.34747  21838916.852    21838925.869
  20789045.525   -25135093.15149 -19576998.13247  20789044.744    20789052.855
  23488043.093   -10384225.39349  -8080424.58044  23488042.657    23488051.688
  22572980.188   -13717183.41849 -10412288.43046  22572979.521    22572988.213
  21765668.619   -21765584.42149 -16932973.62447  21765668.111    21765674.841
 03  4  3  1 10 30.0000000  0  8G17G14G31G 3G15G 9G23G18
  23255239.986    -1502488.89949   -989422.16645  23255239.232    23255251.334
  20464794.461   -27454561.51949 -21381096.50048  20464793.848    20464800.491
  22416818.523    -5826858.51549  -4344962.68346  22416817.890    22416826.663
  21845065.078   -14068516.14649 -10941142.64847  21845064.586    21845073.480
  20798312.072   -25086397.36549 -19539053.36547  20798311.269    20798319.429
  23490898.438   -10369220.32749  -8068732.20545  23490897.990    23490907.267
  22583427.957   -13662280.41149 -10369506.86246  22583427.178    22583435.903
  21776194.479   -21710270.71049 -16889872.02647  21776193.994    21776200.689
 03  4  3  1 11  0.0000000  0  8G17G14G31G 3G15G 9G23G18
  23271901.456    -1414933.12249   -921197.03345  23271900.628    23271912.501
  20457575.796   -27492495.66149 -21410655.50448  20457575.166    20457581.813
  22413636.566    -5843580.15449  -4357992.50246  22413635.902    22413644.661
  21851309.387   -14035701.79549 -10915573.03247  21851308.943    21851317.828
  20807656.976   -25037289.78949 -19500787.72747  20807656.159    20807664.366
  23493866.373   -10353624.13149  -8056579.26945  23493865.875    23493875.273
  22593884.712   -13607330.01449 -10326688.37846  22593883.979    22593892.802
  21786744.554   -21654830.59649 -16846671.93747  21786743.991    21786750.617
 03  4  3  1 11 30.0000000  0  8G17G14G31G 3G15G 9G23G18
  23288613.773    -1327109.17549   -852762.90845  23288612.969    23288624.884
  20450457.794   -27529900.56649 -21439802.12248  20450457.213    20450463.871
  22410564.500    -5859725.01649  -4370572.87246  22410563.919    22410572.604
  21857650.244   -14002380.21449 -10889608.17947  21857649.755    21857658.797
  20817080.378   -24987769.74649 -19462200.68647  20817079.496    20817087.803
  23496947.149   -10337436.27649  -8043965.31645  23496946.403    23496955.764
  22604350.537   -13552332.00449 -10283832.79446  22604349.814    22604358.761
  21797318.473   -21599264.20049 -16803373.42847  21797317.901    21797324.578
 03  4  3  1 12  0.0000000  0  8G17G14G31G 3G15G 9G23G18
  23305377.111    -1239017.92749   -784120.49145  23305376.193    23305388.191
  20443440.773   -27566775.25849 -21468535.59348  20443440.131    20443446.823
  22407602.258    -5875292.68749  -4382703.48045  22407601.670    22407610.279
  21864087.107   -13968552.82649 -10863249.16147  21864086.738    21864095.987
  20826582.125   -24937837.29949 -19423292.28047  20826581.288    20826589.692
  23500139.962   -10320656.39649  -8030890.10945  23500139.373    23500149.073
  22614825.467   -13497286.35649 -10240940.11746  22614824.723    22614833.695
  21807916.287   -21543571.62649 -16759976.62447  21807915.774    21807922.590
 03  4  3  1 12 30.0000000  0  8G17G14G31G 3G15G 9G23G18
  23322191.062    -1150660.96249   -715271.02545  23322190.124    23322202.141
  20436524.491   -27603119.68549 -21496855.86248  20436523.919    20436530.666
  22404749.749    -5890283.22749  -4394384.39345  22404749.085    22404757.515
  21870620.199   -13934221.45849 -10836497.44347  21870619.815    21870629.168
  20836162.353   -24887492.85549 -19384062.84347  20836161.515    20836169.924
  23503445.594   -10303284.93149  -8017353.87545  23503444.925    23503454.569
  22625309.351   -13442193.70549 -10198010.79046  22625308.625    22625317.581
  21818537.941   -21487754.02549 -16716482.37147  21818537.431    21818544.436
 03  4  3  1 13  0.0000000  0  8G17G14G31G 3G15G 9G23G18
  23339055.194    -1062038.32549   -646214.54345  23339054.399    23339066.637
  20429709.366   -27638932.88149 -21524762.19648  20429708.807    20429715.571
  22402006.844    -5904696.00949  -4405615.09445  22402006.224    22402014.634
  21877249.057   -13899387.26649 -10809353.93247  21877248.685    21877258.031
  20845821.128   -24836736.25949 -19344512.26147  20845820.249    20845828.550
  23506863.438   -10285321.37249  -8003356.21245  23506863.008    23506872.356
  22635802.094   -13387053.91349 -10155044.72746  22635801.401    22635810.198
  21829183.465   -21431811.17549 -16672890.52747  21829182.901    21829190.124
 03  4  3  1 13 30.0000000  0  8G17G14G31G 3G15G 9G23G18
  23355969.908     -973150.85449   -576951.69745  23355969.218    23355981.577
  20422995.507   -27674214.13249 -21552254.02448  20422994.955    20423001.719
  22399373.868    -5918530.67249  -4416395.26045  22399373.277    22399382.020
  21883973.193   -13864052.04149 -10781820.01347  21883972.741    21883982.077
  20855558.279   -24785567.37549 -19304640.41247  20855557.378    20855565.587
  23510394.384   -10266765.42149  -7988896.96545  23510394.053    23510403.956
  22646303.870   -13331866.87949 -10112041.85046  22646303.151    22646311.826
  21839852.765   -21375743.56549 -16629201.47547  21839852.235    21839859.525
 03  4  3  1 14  0.0000000  0  8G17G14G31G 3G15G 9G23G18
  23372935.120     -884000.58549   -507484.08645  23372934.214    23372946.702
  20416382.730   -27708964.43349 -21579332.12748  20416382.153    20416388.949
  22396851.436    -5931788.09449  -4426725.65145  22396850.603    22396859.270
  21890792.035   -13828218.65449 -10753897.89447  21890791.551    21890800.802
  20865373.642   -24733987.58349 -19264448.37947  20865372.733    20865380.915
  23514037.999   -10247618.37849  -7973977.14445  23514037.591    23514047.638
  22656814.136   -13276634.26449 -10069003.43546  22656813.445    22656822.176
  21850545.621   -21319553.13549 -16585416.72247  21850545.023    21850552.159
 03  4  3  1 14 30.0000000  0  8G17G14G31G 3G15G 9G23G18
  23389949.803     -794588.60249   -437812.51245  23389948.934    23389961.593
  20409871.081   -27743182.99049 -21605995.88248  20409870.491    20409877.310
  22394438.227    -5944467.99849  -4436606.01945  22394437.654    22394446.325
  21897705.120   -13791888.47349 -10725588.69647  21897704.745    21897714.162
  20875267.091   -24681996.93249 -19223936.17647  20875266.174    20875274.446
  23517793.994   -10227879.88049  -7958596.39645  23517793.591    23517804.074
  22667333.168   -13221356.03649 -10025929.49646  22667332.462    22667341.290
  21861261.717   -21263239.78449 -16541536.20847  21861261.164    21861268.053
 03  4  3  1 15  0.0000000  0  8G17G14G31G 3G15G 9G23G18
  23407014.358     -704914.61949   -367936.81345  23407013.660    23407026.275
  20403460.954   -27776868.31749 -21632244.13148  20403460.368    20403467.042
  22392135.092    -5956569.51549  -4446035.71745  22392134.538    22392143.203
  21904712.950   -13755062.39549 -10696893.08047  21904712.583    21904721.903
  20885238.771   -24629594.77349 -19183103.32147  20885237.881    20885246.252
  23521662.657   -10207549.42049  -7942754.48845  23521662.362    23521673.137
  22677861.015   -13166031.36149  -9982819.34746  22677860.295    22677869.243
  21872001.337   -21206803.34249 -16497559.75447  21872000.759    21872007.451
 03  4  3  1 15 30.0000000  0  8G17G14G31G 3G15G 9G23G18
  23424128.545     -614981.21749   -297858.98645  23424127.704    23424140.089
  20397152.024   -27810022.15249 -21658078.22048  20397151.436    20397157.902
  22389942.522    -5968094.41849  -4455016.14245  22389941.686    22389950.078
  21911814.624   -13717744.00849 -10667813.84547  21911814.177    21911823.343
  20895288.548   -24576783.22649 -19141951.47547  20895287.633    20895295.886
  23525643.669   -10186629.19349  -7926452.99145  23525643.226    23525654.475
  22688397.299   -13110662.41349  -9939674.71746  22688396.540    22688405.557
  21882763.850   -21150246.10349 -16453489.20047  21882763.258    21882769.900
 03  4  3  1 16  0.0000000  0  8G17G14G31G 3G15G 9G23G18
  23441291.480     -524788.81149   -227579.30645  23441290.593    23441303.156
  20390944.363   -27842643.62649 -21683497.48948  20390943.783    20390950.067
  22387858.828    -5979042.09848  -4463546.74345  22387858.159    22387866.817
  21919009.694   -13679934.33849 -10638351.79447  21919009.216    21919018.415
  20905416.160   -24523561.68749 -19100480.15347  20905415.262    20905423.633
  23529737.214   -10165118.62349  -7909691.45345  23529736.862    23529747.926
  22698942.123   -13055248.92749  -9896495.37246  22698941.399    22698950.293
  21893549.277   -21093568.45049 -16409324.81947  21893548.712    21893555.320
 03  4  3  1 16 30.0000000  0  8G17G14G31G 3G15G 9G23G18
  23458503.689     -434336.78149   -157097.33745  23458503.046    23458515.771
  20384838.522   -27874730.24449 -21708499.98148  20384837.930    20384844.127
  22385885.631    -5989410.65849  -4471626.06045  22385884.965    22385893.643
  21926298.097   -13641633.49149 -10608506.99647  21926297.640    21926306.970
  20915622.093   -24469928.80449 -19058688.30247  20915621.257    20915629.794
  23533942.722   -10143015.99349  -7892468.63945  23533942.342    23533953.797
  22709495.951   -12999789.25649  -9853280.03546  22709495.193    22709503.835
  21904357.975   -21036768.75749 -16365065.32847  21904357.369    21904364.004
 03  4  3  1 17  0.0000000  0  8G17G14G31G 3G15G 9G23G18
  23475765.066     -343627.01649    -86414.51645  23475764.348    23475777.251
  20378834.260   -27906282.53149 -21733086.11248  20378833.667    20378839.870
  22384022.394    -5999200.85349  -4479254.77945  22384021.634    22384030.493
  21933679.470   -13602844.22949 -10578281.59847  21933679.010    21933688.262
  20925906.183   -24415885.75749 -19016576.84447  20925905.347    20925913.932
  23538260.855   -10120322.54349  -7874785.37745  23538260.490    23538271.613
  22720058.275   -12944284.25749  -9810029.39446  22720057.541    22720066.135
  21915189.478   -20979848.47749 -16320711.86147  21915188.901    21915195.642
 03  4  3  1 17 30.0000000  0  8G17G14G31G 3G15G 9G23G18
  23493075.192     -252660.80549    -15531.88645  23493074.602    23493087.463
  20372931.670   -27937301.00049 -21757256.28548  20372931.103    20372937.212
  22382269.281    -6008413.18949  -4486433.17945  22382268.538    22382277.450
  21941153.358   -13563568.86149 -10547677.44147  21941152.895    21941162.070
  20936268.298   -24361433.18049 -18974146.28847  20936267.434    20936275.885
  23542691.696   -10097038.98749  -7856642.30845  23542691.404    23542701.726
  22730628.991   -12888734.77949  -9766744.09446  22730628.314    22730636.902
  21926043.718   -20922808.36249 -16276265.02347  21926043.186    21926050.025
 03  4  3  1 18  0.0000000  0  8G17G14G31G 3G15G 9G23G18
  23510434.224     -161440.52149     55548.70245  23510433.545    23510446.369
  20367130.629   -27967786.15449 -21781010.89248  20367129.999    20367136.047
  22380626.104    -6017048.81949  -4493162.16745  22380625.196    22380634.225
  21948719.290   -13523810.20749 -10516696.69947  21948718.838    21948727.809
  20946707.839   -24306572.64849 -18931397.83747  20946706.997    20946715.387
  23547234.452   -10073166.63249  -7838040.40045  23547233.929    23547244.245
  22741207.982   -12833142.05049  -9723425.07646  22741207.320    22741215.912
  21936920.522   -20865650.04349 -16231726.07747  21936919.987    21936926.933
 03  4  3  1 18 30.0000000  0  8G17G14G31G 3G15G 9G23G18
  23527841.323      -69967.17649    126826.51445  23527840.545    23527853.168
  20361430.884   -27997737.86049 -21804349.82348  20361430.285    20361436.387
  22379092.403    -6025107.93349  -4499441.96145  22379091.537    22379100.532
  21956376.733   -13483570.36049 -10485340.99547  21956376.327    21956385.247
  20957224.935   -24251304.37049 -18888331.66147  20957224.165    20957232.569
  23551889.536   -10048705.78249  -7818979.91545  23551889.046    23551898.824
  22751795.191   -12777506.36649  -9680072.60546  22751794.510    22751803.122
  21947819.784   -20808374.10649 -16187095.50447  21947819.221    21947826.190
 03  4  3  1 19  0.0000000  0  8G17G14G31G 3G15G 9G23G18
  23545296.186       21759.11749    198301.37945  23545295.531    23545308.436
  20355832.852   -28027155.16849 -21827272.36048  20355832.251    20355838.365
  22377668.429    -6032589.88949  -4505272.00745  22377667.793    22377676.867
  21964125.613   -13442850.30749 -10453611.10947  21964125.103    21964134.037
  20967819.829   -24195627.88649 -18844947.39147  20967818.991    20967827.478
  23556656.397   -10023655.88848  -7799460.54844  23556655.768    23556665.530
  22762390.494   -12721827.17649  -9636686.19346  22762389.726    22762398.582
  21958741.517   -20750980.22949 -16142372.97847  21958740.930    21958748.033
 03  4  3  1 19 30.0000000  0  8G17G14G31G 3G15G 9G23G18
  23562799.232      113738.51149    269973.49745  23562798.553    23562811.947
  20350336.859   -28056036.58349 -21849777.29448  20350336.265    20350342.393
  22376354.625    -6039493.63849  -4510651.44145  22376353.973    22376363.202
  21971965.529   -13401650.94449 -10421507.72347  21971965.065    21971974.074
  20978492.491   -24139542.15949 -18801244.24047  20978491.683    20978500.287
  23561535.192    -9998016.23749  -7779481.58744  23561534.657    23561544.639
  22772994.144   -12666103.37249  -9593265.05946  22772993.454    22773002.538
  21969685.879   -20693467.73549 -16097558.05347  21969685.263    21969692.381
 03  4  3  1 20  0.0000000  0  8G17G14G31G 3G15G 9G23G18
  23580350.235      205968.95349    341841.26045  23580349.474    23580362.913
  20344942.642   -28084383.12549 -21871865.45748  20344942.040    20344948.126
  22375150.502    -6045820.33049  -4515581.33345  22375149.816    22375159.239
  21979896.074   -13359975.20049 -10389033.13547  21979895.615    21979904.739
  20989242.894   -24083048.76749 -18757223.43147  20989242.090    20989250.610
  23566526.259    -9971788.10549  -7759044.04144  23566525.965    23566535.469
  22783606.481   -12610336.21349  -9549810.17246  22783605.767    22783614.643
  21980652.400   -20635838.38249 -16052652.07047  21980651.761    21980658.937
 03  4  3  1 20 30.0000000  0  8G17G14G31G 3G15G 9G23G18
  23597948.938      298448.81549    413903.34645  23597948.149    23597961.064
  20339650.224   -28112194.81549 -21893536.83948  20339649.614    20339655.577
  22374056.223    -6051570.35049  -4520061.84045  22374055.584    22374064.785
  21987917.047   -13317825.05249 -10356188.87947  21987916.611    21987925.705
  21000070.819   -24026148.21549 -18712885.35347  21000069.984    21000078.364
  23571628.938    -9944972.44649  -7738148.73344  23571628.900    23571638.265
  22794227.126   -12554525.99849  -9506321.72546  22794226.315    22794234.905
  21991640.978   -20578092.56949 -16007655.32847  21991640.344    21991647.570
 03  4  3  1 21  0.0000000  0  8G17G14G31G 3G15G 9G23G18
  23615595.006      391176.18149    486158.27345  23615594.074    23615606.387
  20334459.385   -28139472.71649 -21914792.29148  20334458.777    20334464.776
  22373071.264    -6056745.15849  -4524094.19345  22373070.715    22373079.590
  21996027.764   -13275203.65949 -10322977.42747  21996027.218    21996036.323
  21010975.781   -23968842.38449 -18668231.47547  21010974.925    21010983.259
  23576843.611    -9917570.82949  -7716796.74144  23576843.491    23576852.520
  22804855.398   -12498674.22649  -9462800.88446  22804854.637    22804863.047
  22002651.350   -20520231.88949 -15962569.10247  22002650.812    22002657.974
 03  4  3  1 21 30.0000000  0  8G17G14G31G 3G15G 9G23G18
  23633287.610      484151.18849    558606.21545  23633286.616    23633299.066
  20329370.372   -28166215.63449 -21935630.86448  20329369.731    20329375.739
  22372196.363    -6061343.80749  -4527677.54045  22372195.761    22372204.759
  22004227.696   -13232111.87649 -10289399.42847  22004227.260    22004236.365
  21021957.966   -23911130.40949 -18623261.10447  21021957.092    21021965.495
  23582169.572    -9889582.56849  -7694987.62844  23582169.325    23582178.202
  22815491.730   -12442779.91849  -9419246.88646  22815490.924    22815499.312
  22013683.982   -20462255.66249 -15917392.81647  22013683.384    22013690.294
 03  4  3  1 22  0.0000000  0  8G17G14G31G 3G15G 9G23G18
  23651027.157      577373.14849    631246.56445  23651026.296    23651038.922
  20324383.229   -28192422.53349 -21956051.77848  20324382.613    20324388.668
  22371430.919    -6065366.00249  -4530811.67345  22371430.301    22371439.694
  22012516.996   -13188551.36649 -10255456.17947  22012516.522    22012525.682
  21033017.451   -23853012.09149 -18577974.11347  21033016.646    21033025.013
  23587607.015    -9861007.43149  -7672721.19044  23587606.511    23587615.481
  22826136.176   -12386842.52149  -9375659.31646  22826135.395    22826143.819
  22024738.565   -20404163.83649 -15872126.46447  22024737.911    22024744.686
 03  4  3  1 22 30.0000000  0  8G17G14G31G 3G15G 9G23G18
  23668813.368      670840.95249    704078.51745  23668812.523    23668825.575
  20319498.177   -28218093.42749 -21976055.01448  20319497.575    20319503.603
  22370775.124    -6068811.91449  -4533496.76545  22370774.495    22370784.091
  22020895.038   -13144523.91849 -10221149.10447  22020894.632    22020903.934
  21044154.327   -23794487.66549 -18532370.66447  21044153.456    21044161.812
  23593156.346    -9831845.95749  -7649997.96144  23593155.627    23593165.787
  22836788.816   -12330862.17049  -9332038.26046  22836788.051    22836796.589
  22035815.026   -20345956.79049 -15826770.33047  22035814.393    22035821.132
 03  4  3  1 23  0.0000000  0  8G17G14G31G 3G15G 9G23G18
  23686645.759      764552.82849    777100.63545  23686644.908    23686658.687
  20314715.041   -28243228.70449 -21995640.89548  20314714.426    20314720.534
  22370229.110    -6071682.28049  -4535733.44645  22370228.413    22370237.846
  22029361.548   -13100032.17949 -10186480.23947  22029361.150    22029370.482
  21055368.240   -23735558.20149 -18486451.61147  21055367.382    21055375.716
  23598817.319    -9802099.18549  -7626818.61644  23598816.678    23598826.769
  22847449.464   -12274839.39549  -9288384.16346  22847448.651    22847457.379
  22046913.199   -20287635.64749 -15781325.27747  22046912.530    22046919.465
 03  4  3  1 23 30.0000000  0  8G17G14G31G 3G15G 9G23G18
  23704524.436      858507.69949    850312.11545  23704523.808    23704537.904
  20310033.732   -28267828.66949 -22014809.64948  20310033.127    20310039.313
  22369792.432    -6073977.77249  -4537522.16645  22369791.736    22369800.883
  22037916.104   -13055078.31449 -10151451.29247  22037915.708    22037924.830
  21066659.151   -23676224.33549 -18440217.43947  21066658.266    21066666.629
  23604589.607    -9771767.89749  -7603183.77444  23604588.912    23604598.559
  22858118.124   -12218774.60849  -9244697.31946  22858117.294    22858126.118
  22058032.794   -20229200.95049 -15735791.73547  22058032.202    22058039.324
 03  4  3  1 24  0.0000000  0  8G17G14G31G 3G15G 9G23G18
  23722449.947      952703.79749    923711.52945  23722449.179    23722463.052
  20305454.137   -28291894.26149 -22033562.00848  20305453.547    20305459.762
  22369464.701    -6075699.77649  -4538864.00545  22369464.122    22369473.241
  22046558.062   -13009665.42549 -10116064.66047  22046557.615    22046566.626
  21078026.817   -23616487.41549 -18393669.19147  21078025.906    21078034.284
  23610472.616    -9740853.78949  -7579094.83444  23610471.761    23610481.400
  22868794.700   -12162668.87649  -9200978.55846  22868793.853    22868802.652
  22069173.862   -20170654.08749 -15690170.81447  22069173.279    22069180.383
 03  4  3  1 24 30.0000000  0  8G17G14G31G 3G15G 9G23G18
  23740421.120     1047139.89049    997297.97345  23740420.289    23740433.876
  20300976.345   -28315425.10249 -22051897.67548  20300975.757    20300981.968
  22369246.329    -6076848.24749  -4539758.94845  22369245.594    22369254.608
  22055286.959   -12963795.24649 -10080321.70347  22055286.513    22055295.447
  21089471.110   -23556347.79249 -18346807.16147  21089470.174    21089478.447
  23616465.865    -9709357.09848  -7554551.94744  23616465.334    23616475.066
  22879479.246   -12106521.93049  -9157227.71646  22879478.406    22879487.112
  22080336.463   -20111994.86849 -15644462.31647  22080335.821    22080342.718
 03  4  3  1 25  0.0000000  0  8G17G14G31G 3G15G 9G23G18
  23758437.828     1141816.17749   1071071.58545  23758436.866    23758450.063
  20296600.579   -28338420.01049 -22069815.73048  20296599.947    20296606.164
  22369136.778    -6077422.54949  -4540206.44445  22369136.130    22369145.150
  22064102.672   -12917468.66649 -10044223.10547  22064102.160    22064111.113
  21100992.051   -23495804.65149 -18299630.69347  21100991.108    21100999.362
  23622569.562    -9677277.14749  -7529554.58144  23622569.186    23622579.377
  22890171.882   -12050332.68449  -9113443.87746  22890171.014    22890179.742
  22091520.626   -20053222.69049 -15598665.85047  22091519.929    22091526.598
 03  4  3  1 25 30.0000000  0  8G17G14G31G 3G15G 9G23G18
  23776499.546     1236731.35649   1145031.30245  23776498.652    23776511.888
  20292326.588   -28360879.22849 -22087316.35948  20292326.005    20292332.200
  22369136.392    -6077422.93449  -4540206.71245  22369135.859    22369145.099
  22073004.732   -12870687.82149 -10007770.54147  22073004.237    22073013.148
  21112589.576   -23434858.39349 -18252140.09347  21112588.699    21112597.003
  23628784.668    -9644614.64148  -7504103.19544  23628784.414    23628794.804
  22900872.373   -11994101.27249  -9069627.20146  22900871.497    22900880.334
  22102725.897   -19994338.08049 -15552781.73847  22102725.262    22102731.945
 03  4  3  1 26  0.0000000  0  8G17G14G31G 3G15G 9G23G18
  23794606.469     1331884.18549   1219176.28045  23794605.727    23794618.905
  20288154.626   -28382802.77049 -22104399.58648  20288154.083    20288160.227
  22369245.434    -6076850.02349  -4539760.25545  22369244.945    22369254.065
  22081992.952   -12823455.00049  -9970965.78147  22081992.415    22082001.243
  21124263.808   -23373509.76949 -18204335.98047  21124262.957    21124271.291
  23635110.541    -9611370.63849  -7478198.78944  23635110.633    23635121.537
  22911580.738   -11937827.87649  -9025777.77646  22911579.953    22911588.834
  22113952.526   -19935341.48049 -15506810.36647  22113951.900    22113958.697
 03  4  3  1 26 30.0000000  0  8G17G14G31G 3G15G 9G23G18
  23812758.262     1427272.29049   1293504.51745  23812757.431    23812770.195
  20284084.553   -28404191.74949 -22121066.26048  20284083.991    20284089.973
  22369463.315    -6075705.33749  -4538868.26845  22369462.823    22369471.950
  22091066.606   -12775773.21649  -9933811.18947  22091066.073    22091074.783
  21136014.410   -23311760.37849 -18156219.59047  21136013.562    21136021.788
  23641547.328    -9577546.65348  -7451842.41044  23641547.258    23641557.704
  22922297.026   -11881513.62449  -8981896.56846  22922296.185    22922305.058
  22125200.045   -19876234.32049 -15460752.83946  22125199.434    22125206.526
 03  4  3  1 27  0.0000000  0  8G17G14G31G 3G15G 9G23G18
  23830954.957     1522895.65249   1368016.07345  23830954.223    23830966.271
  20280116.182   -28425045.83549 -22137316.13948  20280115.568    20280121.498
  22369790.042    -6073988.93149  -4537530.79546  22369789.447    22369798.451
  22100225.217   -12727644.31149  -9896308.17647  22100224.683    22100233.566
  21147841.426   -23249610.11649 -18107790.82647  21147840.485    21147848.578
  23648093.730    -9543143.26649  -7425034.52244  23648093.547    23648103.467
  22933021.187   -11825158.09549  -8937983.18546  22933020.361    22933029.132
  22136468.695   -19817016.37349 -15414608.99746  22136468.132    22136475.378
 03  4  3  1 27 30.0000000  0  8G17G14G31G 3G15G 9G23G18
  23849196.256     1618752.54649   1442709.60745  23849195.395    23849207.109
  20276249.430   -28445365.46649 -22153149.56748  20276248.815    20276254.751
  22370225.283    -6071701.55749  -4535748.41946  22370224.795    22370233.621
  22109468.375   -12679070.81749  -9858458.71347  22109467.854    22109476.964
  21159744.327   -23187059.94849 -18059050.43547  21159743.394    21159751.545
  23654750.392    -9508161.17349  -7397775.67944  23654750.007    23654759.813
  22943753.020   -11768761.56249  -8894037.82846  22943752.231    22943761.110
  22147758.508   -19757688.57449 -15368379.54746  22147757.856    22147764.993
 03  4  3  1 28  0.0000000  0  8G17G14G31G 3G15G 9G23G18
  23867481.309     1714841.56549   1517584.02345  23867480.437    23867492.924
  20272484.338   -28465151.03649 -22168566.83648  20272483.702    20272489.567
  22370769.283    -6068844.06949  -4533521.80046  22370768.739    22370777.435
  22118795.843   -12630055.06949  -9820264.65447  22118795.317    22118804.495
  21171723.160   -23124110.74049 -18009999.10447  21171722.202    21171730.443
  23661516.883    -9472601.79549  -7370067.06444  23661516.493    23661526.699
  22954492.627   -11712324.55349  -8850060.93546  22954491.827    22954500.753
  22159069.114   -19698251.35349 -15322064.84447  22159068.496    22159075.439
 03  4  3  1 28 30.0000000  0  8G17G14G31G 3G15G 9G23G18
  23885810.436     1811161.53249   1592638.44445  23885809.449    23885822.593
  20268820.760   -28484402.17649 -22183567.67248  20268820.168    20268826.075
  22371421.506    -6065416.60749  -4530851.03846  22371420.938    22371429.758
  22128207.015   -12580598.92549  -9781727.41947  22128206.521    22128215.686
  21183777.866   -23060762.53849 -17960636.86147  21183776.917    21183785.351
  23668393.090    -9436465.27448  -7341908.69144  23668392.594    23668402.961
  22965239.795   -11655846.53349  -8806052.07746  22965239.006    22965248.212
  22170400.641   -19638704.51249 -15275664.71747  22170400.031    22170406.804
 03  4  3  1 29  0.0000000  0  8G17G14G31G 3G15G 9G23G18
  23904183.060     1907711.78049   1667872.29645  23904182.209    23904196.138
  20265259.118   -28503118.69449 -22198151.92248  20265258.533    20265264.446
  22372182.239    -6061419.45249  -4527736.35946  22372181.631    22372190.355
  22137701.725   -12530704.17749  -9742848.41147  22137701.208    22137710.322
  21195908.531   -22997015.50049 -17910963.85847  21195907.578    21195915.985
  23675378.540    -9399752.27148  -7313301.16344  23675378.328    23675389.309
  22975994.857   -11599327.11549  -8762010.95946  22975994.171    22976003.416
  22181752.980   -19579048.05349 -15229179.15647  22181752.323    22181759.189
 03  4  3  1 29 30.0000000  0  8G17G14G31G 3G15G 9G23G18
  23922599.742     2004490.52249   1743284.20845  23922598.670    23922612.829
  20261799.036   -28521301.87949 -22212320.58548  20261798.389    20261804.249
  22373051.134    -6056853.91849  -4524178.79346  22373050.360    22373058.991
  22147279.244   -12480373.65549  -9703629.84247  22147278.768    22147287.825
  21208114.914   -22932871.16249 -17860981.26847  21208113.928    21208122.190
  23682474.763    -9362464.21249  -7284245.50144  23682474.512    23682484.760
  22986757.757   -11542767.25349  -8717938.34446  22986757.110    22986766.304
  22193125.667   -19519283.25249 -15182609.17447  22193125.090    22193132.188
 03  4  3  1 30  0.0000000  0  8G17G14G31G 3G15G 9G23G18
  23941059.630     2101496.08449   1818872.80545  23941058.510    23941072.694
  20258440.144   -28538952.26749 -22226074.08548  20258439.534    20258445.437
  22374027.370    -6051721.40849  -4520179.41746  22374026.784    22374035.625
  22156939.215   -12429610.37349  -9664074.07547  22156938.710    22156947.822
  21220396.649   -22868330.58649 -17810689.91447  21220395.626    21220403.844
  23689680.083    -9324602.79349  -7254743.00644  23689679.476    23689689.883
  22997528.252   -11486167.61249  -8673834.73746  22997527.563    22997536.769
  22204518.823   -19459411.13349 -15135955.56946  22204518.242    22204525.427
 03  4  3  1 30 30.0000000  0  8G17G14G31G 3G15G 9G23G18
  23959562.250     2198727.37949   1894637.32945  23959560.961    23959575.245
  20255182.784   -28556069.58849 -22239412.20848  20255182.209    20255188.065
  22375111.927    -6046022.15449  -4515738.40946  22375111.302    22375120.127
  22166681.156   -12378416.24049  -9624182.58147  22166680.686    22166689.775
  21232753.518   -22803394.13949 -17760090.08247  21232752.561    21232760.870
  23696994.319    -9286168.42149  -7224794.11845  23696993.901    23697004.290
  23008306.530   -11429527.69049  -8629699.74146  23008305.841    23008314.974
  22215932.516   -19399431.76249 -15089218.39246  22215931.930    22215938.993
 03  4  3  1 31  0.0000000  0  8G17G14G31G 3G15G 9G23G18
  23978107.711     2296182.90349   1970576.58445  23978106.621    23978120.422
  20252026.901   -28572654.09649 -22252335.15248  20252026.254    20252032.156
  22376304.443    -6039756.50349  -4510856.07646  22376303.747    22376312.385
  22176504.737   -12326793.22649  -9583956.89847  22176504.266    22176513.280
  21245185.755   -22738062.02749 -17709181.94247  21245184.845    21245193.157
  23704417.435    -9247161.68949  -7194399.20645  23704417.074    23704426.915
  23019092.731   -11372847.13249  -8585533.08846  23019091.964    23019100.909
  22227366.737   -19339344.77649 -15042397.38746  22227366.085    22227373.110
 03  4  3  1 31 30.0000000  0  8G17G14G31G 3G15G 9G23G18
  23996695.527     2393861.91049   2046689.94245  23996694.424    23996708.185
  20248972.069   -28588706.43049 -22264843.41948  20248971.479    20248977.399
  22377604.323    -6032925.73349  -4505533.35446  22377603.548    22377612.265
  22186409.427   -12274744.11549  -9543399.16947  22186408.949    22186417.825
  21257692.990   -22672335.57249 -17657966.52347  21257692.106    21257700.420
  23711949.072    -9207584.18649  -7163559.52445  23711948.479    23711958.293
  23029886.337   -11316126.56949  -8541335.24146  23029885.572    23029894.346
  22238821.180   -19279151.14349 -14995493.25846  22238820.505    22238827.583
 03  4  3  1 32  0.0000000  0  8G17G14G31G 3G15G 9G23G18
  24015325.633     2491763.01749   2122976.37045  24015324.426    24015337.969
  20246018.675   -28604226.51749 -22276936.93948  20246018.073    20246023.971
  22379011.617    -6025530.05449  -4499770.48446  22379010.913    22379019.730
  22196394.765   -12222270.91749  -9502510.97247  22196394.266    22196403.171
  21270275.427   -22606214.78249 -17606443.83547  21270274.515    21270282.737
  23719589.015    -9167436.60749  -7132275.64645  23719588.570    23719597.899
  23040687.544   -11259365.43449  -8497105.77346  23040686.884    23040695.573
  22250295.913   -19218850.67249 -14948505.86746  22250295.291    22250302.377
 03  4  3  1 32 30.0000000  0  8G17G14G31G 3G15G 9G23G18
  24033997.155     2589885.93349   2199435.70345  24033996.203    24034009.989
  20243166.572   -28619213.87649 -22288615.35048  20243165.978    20243172.001
  22380526.310    -6017569.51149  -4493567.43946  22380525.605    22380534.638
  22206460.503   -12169374.99749  -9461293.37947  22206459.998    22206469.025
  21282932.898   -22539699.81149 -17554614.00147  21282932.003    21282940.087
  23727337.325    -9126719.10849  -7100547.71745  23727336.917    23727346.350
  23051496.724   -11202562.91849  -8452844.08146  23051496.071    23051504.747
  22261791.161   -19158442.99249 -14901434.93146  22261790.543    22261797.518
 03  4  3  1 33  0.0000000  0  8G17G14G31G 3G15G 9G23G18
  24052710.430     2688228.91649   2276066.46445  24052709.606    24052724.123
  20240415.785   -28633669.09749 -22299879.11048  20240415.192    20240421.279
  22382148.588    -6009045.17949  -4486925.10746  22382147.792    22382156.696
  22216606.315   -12116058.81649  -9419748.33247  22216605.774    22216614.846
  21295665.245   -22472791.51349 -17502477.68347  21295664.318    21295672.423
  23735193.760    -9085432.87449  -7068376.62845  23735193.298    23735203.231
  23062313.829   -11145719.38549  -8408550.44546  23062313.063    23062321.831
  22273306.618   -19097928.67149 -14854280.94146  22273306.041    22273312.953
 03  4  3  1 33 30.0000000  0  8G17G14G31G 3G15G 9G23G18
  24071465.828     2786790.04449   2352867.26845  24071464.972    24071480.058
  20237766.106   -28647592.99449 -22310728.84848  20237765.477    20237771.570
  22383877.805    -5999958.40449  -4479844.47346  22383877.044    22383885.786
  22226831.302   -12062325.36349  -9377878.12147  22226830.855    22226840.093
  21308472.098   -22405491.13549 -17450035.84447  21308471.152    21308479.392
  23743158.012    -9043579.73549  -7035763.72044  23743157.574    23743167.233
  23073138.542   -11088835.37749  -8364225.24646  23073137.779    23073146.630
  22284842.244   -19037308.60449 -14807044.50646  22284841.576    22284848.667
 03  4  3  1 34  0.0000000  0  8G17G14G31G 3G15G 9G23G18
  24090262.876     2885568.31949   2429837.19945  24090261.839    24090277.248
  20235217.248   -28660986.59849 -22321165.36948  20235216.691    20235222.760
  22385713.617    -5990310.55449  -4472326.62746  22385712.903    22385721.674
  22237135.321   -12008177.51549  -9335684.99747  22237134.882    22237144.107
  21321353.214   -22337799.71949 -17397289.28847  21321352.275    21321360.664
  23751229.930    -9001161.17449  -7002710.19744  23751229.456    23751238.832
  23083970.839   -11031911.44049  -8319868.96046  23083970.050    23083978.916
  22296397.623   -18976583.59849 -14759726.29946  22296397.026    22296404.330
 03  4  3  1 34 30.0000000  0  8G17G14G31G 3G15G 9G23G18
  24109100.308     2984561.96449   2506975.05345  24109099.518    24109115.584
  20232769.374   -28673850.38749 -22331189.05548  20232768.806    20232774.798
  22387656.165    -5980102.42549  -4464372.20546  22387655.478    22387664.124
  22247517.776   -11953617.59449  -9293170.82547  22247517.344    22247526.509
  21334308.631   -22269718.22349 -17344238.76947  21334307.766    21334316.101
  23759409.492    -8958178.08849  -6969216.81344  23759408.893    23759418.136
  23094810.705   -10974947.36849  -8275481.36146  23094809.916    23094818.847
  22307973.018   -18915753.73949 -14712326.40046  22307972.522    22307979.936
 03  4  3  1 35  0.0000000  0  8G17G14G31G 3G15G 9G23G18
  24127979.282     3083770.01549   2584279.87045  24127978.406    24127994.564
  20230422.328   -28686184.15649 -22340799.72748  20230421.750    20230427.684
  22389705.353    -5969334.49149  -4455981.59846  22389704.630    22389713.078
  22257978.141   -11898647.70549  -9250337.15146  22257977.713    22257986.908
  21347338.378   -22201247.02249 -17290884.60247  21347337.426    21347345.735
  23767696.038    -8914631.43149  -6935284.27744  23767695.328    23767705.351
  23105658.241   -10917942.82249  -8231062.25146  23105657.456    23105666.445
  22319568.581   -18854818.84649 -14664844.66546  22319568.064    22319575.337
 03  4  3  1 35 30.0000000  0  8G17G14G31G 3G15G 9G23G18
  24146899.198     3183190.29449   2661750.09245  24146898.269    24146913.722
  20228175.788   -28697989.61949 -22349998.73648  20228175.196    20228181.132
  22391860.430    -5958008.93149  -4447156.47446  22391859.798    22391868.177
  22268515.869   -11843271.47149  -9207186.86147  22268515.478    22268524.724
  21360441.735   -22132387.89049 -17237228.14947  21360440.835    21360449.287
  23776089.593    -8870523.48549  -6900914.43145  23776088.927    23776099.464
  23116513.209   -10860898.79549  -8186612.35746  23116512.512    23116521.539
  22331183.788   -18793780.74749 -14617282.51946  22331183.243    22331190.354
 03  4  3  1 36  0.0000000  0  8G17G14G31G 3G15G 9G23G18
  24165858.958     3282822.04949   2739385.10245  24165858.104    24165872.859
  20226029.782   -28709266.42349 -22358785.81148  20226029.202    20226035.194
  22394121.632    -5946125.82949  -4437896.88746  22394121.003    22394129.499
  22279130.729   -11787490.44249  -9163721.16247  22279130.339    22279139.562
  21373619.084   -22063140.87449 -17183269.45147  21373618.112    21373626.687
  23784589.201    -8825854.84249  -6866107.68445  23784588.892    23784599.723
  23127376.138   -10803814.42649  -8142131.05046  23127375.431    23127384.395
  22342818.786   -18732638.61149 -14569639.30146  22342818.238    22342825.365
 03  4  3  1 36 30.0000000  0  9G17G14G31G25G 3G15G 9G23G18
  24184857.315     3382658.01149   2817179.24945  24184856.323    24184870.720
  20223983.275   -28720020.76749 -22367165.77248  20223982.688    20223988.647
  22396487.757    -5933691.97949  -4428208.14047  22396487.085    22396495.656
  24526130.173    -2848560.21249  -1521955.71445  24526129.615    24526147.027
  22289821.184   -11731312.68749  -9119946.31647  22289820.728    22289829.778
  21386868.955   -21993512.44649 -17129013.53547  21386868.009    21386876.599
  23793194.818    -8780632.47149  -6830869.44245  23793194.464    23793205.279
  23138245.764   -10746695.50149  -8097622.80446  23138244.907    23138253.933
  22354472.449   -18671398.38049 -14521919.64046  22354471.951    22354479.109
 03  4  3  1 37  0.0000000  0  9G17G14G31G25G 3G15G 9G23G18
  24203895.664     3482705.29849   2895138.04845  24203894.743    24203909.423
  20222037.692   -28730244.82849 -22375132.52748  20222037.085    20222042.936
  22398960.132    -5920699.80349  -4418084.33547  22398959.483    22398968.008
  24507482.454    -2946551.42849  -1598312.00945  24507482.063    24507498.856
  22300588.052   -11674732.18149  -9075857.63546  22300587.595    22300596.652
  21400192.680   -21923494.85849 -17074454.37647  21400191.796    21400200.418
  23801907.189    -8734848.82149  -6795193.84345  23801906.823    23801917.322
  23149123.341   -10689533.41649  -8053080.93746  23149122.556    23149131.548
  22366146.258   -18610052.20749 -14474117.43546  22366145.809    22366152.971
 03  4  3  1 37 30.0000000  0  9G17G14G31G25G 3G15G 9G23G18
  24222974.026     3582961.71249   2973259.78945  24222973.144    24222987.348
  20220192.682   -28739940.33549 -22382687.41848  20220192.013    20220197.907
  22401538.456    -5907151.61549  -4407527.27747  22401537.648    22401546.225
  24488824.781    -3044596.06849  -1674709.91445  24488824.422    24488840.810
  22311430.813   -11617752.80549  -9031458.15846  22311430.358    22311439.525
  21413590.277   -21853090.04149 -17019593.49647  21413589.360    21413597.824
  23810726.164    -8688506.48749  -6759082.88145  23810725.777    23810735.579
  23160008.948   -10632329.46149  -8008506.43546  23160008.020    23160017.092
  22377840.007   -18548601.44749 -14426233.73446  22377839.464    22377846.710
 03  4  3  1 38  0.0000000  0  9G17G14G31G25G 3G15G 9G23G18
  24242091.414     3683425.52149   3051543.14245  24242090.790    24242104.647
  20218448.003   -28749108.35249 -22389831.28448  20218447.390    20218453.235
  22404222.006    -5893049.13049  -4396538.30547  22404221.270    22404229.799
  24470156.951    -3142691.71549  -1751147.58945  24470156.795    24470173.234
  22322348.884   -11560377.56949  -8986750.20346  22322348.460    22322357.692
  21427061.370   -21782299.74449 -16964432.24847  21427060.434    21427068.735
  23819650.924    -8641607.41749  -6722538.10645  23819650.459    23819660.065
  23170902.468   -10575084.11649  -7963899.69746  23170901.609    23170910.449
  22389553.374   -18487046.98549 -14378269.23346  22389552.845    22389559.938
 03  4  3  1 38 30.0000000  0  9G17G14G31G25G 3G15G 9G23G18
  24261248.014     3784094.64649   3129986.50045  24261247.578    24261261.587
  20216803.650   -28757749.71449 -22396564.75748  20216803.028    20216808.770
  22407010.894    -5878393.47249  -4385118.29747  22407010.159    22407018.536
  24451480.076    -3240836.28449  -1827623.38445  24451480.073    24451496.289
  22333341.947   -11502609.05349  -8941735.81746  22333341.430    22333350.625
  21440605.587   -21711124.92549 -16908971.36947  21440604.638    21440612.903
  23828681.553    -8594153.08549  -6685560.67145  23828680.788    23828690.238
  23181803.745   -10517797.55249  -7919260.82846  23181802.931    23181811.574
  22401286.623   -18425388.92249 -14330223.99346  22401286.102    22401292.924
 03  4  3  1 39  0.0000000  0  9G17G14G31G25G 3G15G 9G23G18
  24280443.776     3884967.09549   3208588.27645  24280443.118    24280457.034
  20215259.158   -28765865.99049 -22402889.07748  20215258.528    20215264.267
  22409904.691    -5863186.87649  -4373268.98747  22409903.907    22409912.168
  24432794.783    -3339027.81549  -1904135.78745  24432794.618    24432810.474
  22344409.034   -11444450.63349  -8896417.59846  22344408.558    22344417.779
  21454222.498   -21639567.47449 -16853212.31947  21454221.562    21454229.914
  23837816.901    -8546145.88949  -6648152.45744  23837816.213    23837825.433
  23192712.878   -10460470.72849  -7874590.62746  23192712.080    23192720.547
  22413039.331   -18363628.82749 -14282099.26946  22413038.746    22413045.476
 03  4  3  1 39 30.0000000  0  8G14G31G25G 3G15G 9G23G18
  20213814.537   -28773457.66649 -22408804.61848  20213813.878    20213819.525
  22412903.065    -5847430.27049  -4360991.10146  22412902.291    22412910.568
  24414101.189    -3437263.60449  -1980682.64345  24414100.810    24414116.541
  22355549.943   -11385904.84149  -8850797.52446  22355549.425    22355558.719
  21467912.105   -21567628.16449 -16797155.72647  21467911.184    21467919.569
  23847057.374    -8497587.10949  -6610314.45444  23847056.857    23847065.448
  23203629.793   -10403103.29749  -7829888.75546  23203628.922    23203637.334
  22424811.343   -18301766.73049 -14233895.03246  22424810.746    22424817.560
 03  4  3  1 40  0.0000000  0  8G14G31G25G 3G15G 9G23G18
  20212469.698   -28780525.08549 -22414311.64048  20212469.019    20212474.554
  22416005.726    -5831124.49349  -4348285.27146  22416004.993    22416013.441
  24395399.292    -3535541.11149  -2057261.98845  24395398.838    24395414.848
  22366764.289   -11326973.74249  -8804877.22646  22366763.761    22366772.933
  21481674.395   -21495307.37249 -16740801.89147  21481673.417    21481681.630
  23856401.906    -8448477.72449  -6572047.41644  23856401.307    23856410.690
  23214554.196   -10345694.95849  -7785155.00446  23214553.340    23214561.805
  22436602.756   -18239802.65049 -14185611.31346  22436602.134    22436609.151
 03  4  3  1 40 30.0000000  0  8G14G31G25G 3G15G 9G23G18
  20211224.585   -28787068.24549 -22419410.15248  20211223.901    20211229.415
  22419212.983    -5814270.03649  -4335151.91246  22419212.262    22419220.699
  24376689.662    -3633857.20749  -2133871.42845  24376689.291    24376705.824
  22378051.570   -11267659.28349  -8758658.21147  22378051.057    22378060.176
  21495508.932   -21422605.48149 -16684151.08247  21495507.980    21495516.166
  23865851.799    -8398818.61049  -6533352.00144  23865851.183    23865860.212
  23225486.209   -10288245.00349  -7740388.79746  23225485.452    23225494.063
  22448413.728   -18177736.16549 -14137247.80746  22448412.987    22448420.158
 03  4  3  1 41  0.0000000  0  8G14G31G25G 3G15G 9G23G18
  20210078.695   -28793089.49349 -22424101.99348  20210078.054    20210083.657
  22422524.198    -5796869.68249  -4321593.18846  22422523.460    22422531.788
  24357972.974    -3732210.48749  -2210509.81045  24357972.607    24357989.881
  22389410.983   -11207965.63749  -8712143.71547  22389410.453    22389419.623
  21509415.702   -21349525.06249 -16627205.30647  21509414.732    21509422.882
  23875405.747    -8348612.56849  -6494230.34944  23875405.431    23875413.737
  23236426.153   -10230754.57149  -7695591.05646  23236425.347    23236434.069
  22460243.661   -18115568.93749 -14088805.80446  22460243.017    22460250.164
 03  4  3  1 41 30.0000000  0  8G14G31G25G 3G15G 9G23G18
  20209032.108   -28798588.94949 -22428387.24048  20209031.479    20209037.107
  22425938.997    -5778924.32049  -4307609.76846  22425938.296    22425946.673
  24339249.915    -3830597.99049  -2287174.84145  24339249.570    24339266.935
  22400841.970   -11147895.13649  -8665335.55847  22400841.480    22400850.688
  21523394.364   -21276066.47149 -16569964.86247  21523393.474    21523401.729
  23885063.438    -8297860.85249  -6454683.52244  23885062.765    23885071.396
  23247374.116   -10173223.44749  -7650761.58646  23247373.268    23247381.928
  22472092.905   -18053300.97749 -14040285.30246  22472092.294    22472099.260
 03  4  3  1 42  0.0000000  0  8G14G31G25G 3G15G 9G23G18
  20208084.604   -28803567.81249 -22432266.82348  20208084.005    20208089.598
  22429457.365    -5760435.39449  -4293202.80546  22429456.640    22429464.968
  24320521.076    -3929017.35549  -2363864.74445  24320520.445    24320537.605
  22412344.291   -11087450.37049  -8618235.77146  22412343.767    22412352.863
  21537444.892   -21202230.81249 -16512430.59247  21537443.958    21537452.362
  23894824.842    -8246565.16949  -6414712.81544  23894824.187    23894832.551
  23258329.939   -10115651.68749  -7605900.46446  23258329.163    23258337.660
  22483961.257   -17990932.61149 -13991686.55946  22483960.658    22483967.566
 03  4  3  1 42 30.0000000  0  8G14G31G25G 3G15G 9G23G18
  20207236.145   -28808026.81949 -22435741.32548  20207235.502    20207241.001
  22433078.915    -5741404.30449  -4278373.36646  22433078.193    22433086.319
  24301785.879    -4027466.31349  -2440577.65445  24301785.316    24301803.027
  22423917.259   -11026634.20949  -8570846.57846  22423916.656    22423925.791
  21551566.814   -21128019.43049 -16454603.54747  21551565.901    21551574.421
  23904689.250    -8194727.13849  -6374319.53444  23904688.610    23904697.105
  23269293.337   -10058039.36549  -7561007.72846  23269292.405    23269301.052
  22495848.706   -17928464.30149 -13943009.94646  22495848.019    22495854.949
 03  4  3  1 43  0.0000000  0  8G14G31G25G 3G15G 9G23G18
  20206486.738   -28811965.07949 -22438810.06048  20206486.071    20206491.515
  22436803.724    -5721830.80349  -4263121.28246  22436802.954    22436810.888
  24283045.579    -4125940.48249  -2517310.20845  24283045.478    24283063.444
  22435560.681   -10965447.61349  -8523168.73646  22435560.194    22435569.317
  21565760.436   -21053431.83749 -16396483.36947  21565759.555    21565767.984
  23914656.530    -8142346.84249  -6333503.69944  23914655.748    23914664.735
  23280264.320   -10000384.93849  -7516082.19046  23280263.489    23280272.244
  22507755.253   -17865894.68549 -13894254.39646  22507754.606    22507761.502
 03  4  3  1 43 30.0000000  0  8G14G31G25G 3G15G 9G23G18
  20205836.038   -28815384.45449 -22441474.46848  20205835.401    20205840.815
  22440631.130    -5701717.25249  -4247448.35146  22440630.405    22440638.423
  24264302.102    -4224438.29549  -2594061.22545  24264301.765    24264319.119
  22447274.017   -10903894.18749  -8475205.07646  22447273.516    22447282.547
  21580025.208   -20978469.95649 -16338071.51947  21580024.340    21580032.727
  23924726.713    -8089426.89749  -6292267.33744  23924726.317    23924734.892
  23291243.004    -9942689.25049  -7471124.41645  23291242.100    23291251.205
  22519680.886   -17803225.08849 -13845420.95046  22519680.220    22519687.007
 03  4  3  1 44  0.0000000  0  8G14G31G25G 3G15G 9G23G18
  20205283.880   -28818286.02349 -22443735.39748  20205283.204    20205288.623
  22444561.028    -5681065.19749  -4231355.82746  22444560.324    22444568.380
  24245554.338    -4322957.25649  -2670828.65145  24245553.703    24245570.454
  22459056.393   -10841977.02349  -8426957.95546  22459055.769    22459065.017
  21594360.872   -20903134.90049 -16279368.89747  21594359.996    21594368.488
  23934899.198    -8035968.98149  -6250611.71344  23934898.545    23934906.945
  23302229.738    -9884952.36749  -7426134.64045  23302229.012    23302238.035
  22531625.372   -17740455.85349 -13796509.85446  22531624.791    22531631.452
 03  4  3  1 44 30.0000000  0  8G14G31G25G 3G15G 9G23G18
  20204829.878   -28820671.17049 -22445593.92548  20204829.228    20204834.714
  22448593.075    -5659876.51449  -4214845.15246  22448592.433    22448600.361
  24226802.892    -4421495.23349  -2747610.92845  24226802.474    24226818.282
  22470907.269   -10779699.09349  -8378429.70846  22470906.804    22470916.108
  21608767.070   -20827428.16249 -16220376.64547  21608766.263    21608774.991
  23945174.076    -7981975.22349  -6208538.63644  23945173.601    23945181.630
  23313224.726    -9827174.73049  -7381113.11346  23313223.980    23313232.797
  22543588.859   -17677587.50349 -13747521.53446  22543588.189    22543594.873
 03  4  3  1 45  0.0000000  0  8G14G31G25G 3G15G 9G23G18
  20204474.020   -28822540.88349 -22447050.81148  20204473.404    20204478.851
  22452727.024    -5638152.87449  -4197917.60346  22452726.241    22452734.236
  24208048.106    -4520050.14049  -2824406.40145  24208048.027    24208063.175
  22482826.723   -10717063.23049  -8329622.58546  22482826.163    22482835.310
  21623244.049   -20751350.83049 -16161095.62247  21623243.310    21623251.980
  23955550.629    -7927447.47349  -6166049.50244  23955549.999    23955557.173
  23324227.419    -9769356.51849  -7336059.96646  23324226.624    23324235.352
  22555570.856   -17614620.71449 -13698456.49746  22555570.323    22555577.227
 03  4  3  1 45 30.0000000  0  8G14G31G25G 3G15G 9G23G18
  20204216.233   -28823895.47449 -22448106.29948  20204215.593    20204220.989
  22456962.309    -5615895.06749  -4180573.80746  22456961.589    22456969.894
  24189291.167    -4618618.56349  -2901212.35945  24189290.833    24189305.811
  22494813.953   -10654071.33249  -8280538.03646  22494813.314    22494822.282
  21637791.637   -20674903.57049 -16101526.35047  21637790.809    21637799.377
  23966028.407    -7872386.80649  -6123145.06244  23966027.404    23966034.776
  23335237.848    -9711496.95849  -7290974.57346  23335237.071    23335245.607
  22567571.823   -17551555.12949 -13649314.50246  22567571.255    22567578.206
 03  4  3  1 46  0.0000000  0  9G11G14G31G25G 3G15G 9G23G18
                   -746788.11349   -557161.43643
  20204056.437   -28824735.44449 -22448760.79148  20204055.763    20204061.122
  22461299.173    -5593104.31449  -4162814.75646  22461298.477    22461306.838
  24170532.074    -4717197.62249  -2978026.70145  24170531.619    24170546.477
  22506868.152   -10590725.88649  -8231177.99446  22506867.560    22506876.447
  21652409.314   -20598087.19749 -16041669.46247  21652408.529    21652416.996
  23976607.063    -7816794.70349  -6079826.57544  23976606.541    23976613.584
  23346256.133    -9653595.66749  -7245856.70146  23346255.304    23346263.802
  22579591.680   -17488390.71649 -13600095.46746  22579591.055    22579598.151
 03  4  3  1 46 30.0000000  0  8G14G31G25G 3G15G 9G23G18
  20203994.318   -28825061.75049 -22449015.02848  20203993.666    20203999.039
  22465737.349    -5569781.80549  -4144641.32446  22465736.585    22465744.923
  24151771.668    -4815784.42349  -3054847.07245  24151771.187    24151785.648
  22518989.091   -10527029.52149  -8181544.50446  22518988.548    22518997.368
  21667097.213   -20520902.43749 -15981525.53247  21667096.421    21667104.655
  23987286.649    -7760672.32449  -6036094.82044  23987286.327    23987293.318
  23357282.395    -9595652.37649  -7200706.09846  23357281.531    23357290.096
  22591630.294   -17425127.43849 -13550799.41046  22591629.650    22591636.827
 03  4  3  1 47  0.0000000  0  8G14G31G25G 3G15G 9G23G18
  20204029.679   -28824875.72249 -22448870.04048  20204029.032    20204034.420
  22470276.267    -5545929.51349  -4126055.09746  22470275.522    22470283.930
  24133010.017    -4914376.88349  -3131671.79545  24133009.496    24133024.108
  22531176.422   -10462985.13649  -8131639.82846  22531175.832    22531184.741
  21681854.926   -20443351.00649 -15921095.88047  21681854.144    21681862.187
  23998066.955    -7704021.99849  -5991951.71144  23998066.714    23998074.123
  23368316.403    -9537667.30849  -7155522.93746  23368315.671    23368324.197
  22603687.707   -17361765.79649 -13501426.71346  22603687.033    22603694.136
 03  4  3  1 47 30.0000000  0  8G14G31G25G 3G15G 9G23G18
  20204162.366   -28824178.31349 -22448326.57648  20204161.740    20204167.117
  22474915.735    -5521549.07249  -4107057.33246  22474915.000    22474923.397
  24114247.808    -5012972.24749  -3208498.87845  24114247.284    24114261.800
  22543429.350   -10398595.88249  -8081466.42246  22543428.779    22543437.805
  21696682.134   -20365433.98349 -15860381.35347  21696681.330    21696689.425
  24008947.185    -7646845.94149  -5947398.89844  24008946.415    24008954.754
  23379358.575    -9479640.49249  -7110307.24546  23379357.857    23379366.327
  22615763.753   -17298306.20149 -13451977.65446  22615763.024    22615769.996
 03  4  3  1 48  0.0000000  0  8G14G31G25G 3G15G 9G23G18
  20204392.241   -28822970.37249 -22447385.30148  20204391.581    20204396.999
  22479655.509    -5496642.03249  -4087649.23946  22479654.689    22479662.975
  24095485.750    -5111567.90449  -3285326.16745  24095485.233    24095499.267
  22555747.368   -10333864.63249  -8031026.52046  22555746.741    22555755.935
  21711578.520   -20287152.61349 -15799382.90647  21711577.688    21711586.018
  24019927.154    -7589145.73049  -5902437.66144  24019926.549    24019935.081
  23390408.944    -9421571.85249  -7065058.96346  23390407.988    23390416.449
  22627858.130   -17234749.02249 -13402452.56746  22627857.401    22627864.480
 03  4  3  1 48 30.0000000  0  8G14G31G25G 3G15G 9G23G18
  20204719.127   -28821252.44349 -22446046.63548  20204718.474    20204723.927
  22484495.076    -5471209.37149  -4067831.57646  22484494.229    22484502.587
  24076723.920    -5210160.53849  -3362151.07445  24076723.342    24076737.606
  22568129.939   -10268793.10149  -7980321.46346  22568129.380    22568138.708
  21726544.049   -20208507.36549 -15738100.91947  21726543.228    21726551.684
  24031006.747    -7530922.43449  -5857068.77144  24031006.660    24031015.272
  23401466.986    -9363460.53749  -7019777.39746  23401466.082    23401474.668
  22639971.150   -17171093.72049 -13352851.04646  22639970.535    22639977.645
 03  4  3  1 49  0.0000000  0  8G14G31G25G 3G15G 9G23G18
  20205143.013   -28819025.37449 -22444311.23148  20205142.301    20205147.723
  22489434.329    -5445252.37549  -4047605.32746  22489433.539    22489442.160
  24057963.037    -5308747.28049  -3438971.39545  24057962.361    24057976.717
  22580576.633   -10203383.86049  -7929353.25046  22580576.163    22580585.704
  21741578.722   -20129499.02249 -15676536.00947  21741577.999    21741586.477
  24042185.619    -7472177.90248  -5811293.76444  24042185.003    24042193.138
  23412533.257    -9305306.15549  -6974462.30246  23412532.431    23412541.077
  22652103.259   -17107340.31949 -13303173.08646  22652102.585    22652109.406
 03  4  3  1 49 30.0000000  0  8G14G31G25G 3G15G 9G23G18
  20205663.428   -28816290.28049 -22442179.96748  20205662.731    20205668.168
  22494473.175    -5418772.88149  -4026971.93746  22494472.371    22494481.136
  24039202.969    -5407325.82949  -3515785.34445  24039202.469    24039216.932
  22593087.109   -10137639.91749  -7878124.23546  22593086.632    22593096.405
  21756682.611   -20050129.15949 -15614689.39447  21756681.822    21756690.134
  24053463.438    -7412912.94758  -5765113.21444  24053463.083
  23423607.778    -9247108.77849  -6929113.66046  23423606.884    23423615.659
  22664253.945   -17043489.11049 -13253418.92046  22664253.243    22664259.783
 03  4  3  1 50  0.0000000  0  8G14G31G25G 3G15G 9G23G18
  20206280.367   -28813048.39249 -22439653.79348  20206279.674    20206285.097
  22499610.930    -5391772.78249  -4005932.89146  22499610.234    22499619.021
  24020444.794    -5505893.59949  -3592590.91445  24020444.583    24020458.845
  22605660.792   -10071564.10349  -7826636.60246  22605660.457    22605670.250
  21771855.084   -19970398.93549 -15552561.98947  21771854.189    21771862.488
  24064840.306    -7353130.89648  -5718529.76044  24064839.357
  23434690.466    -9188868.43449  -6883731.58946  23434689.642    23434698.581
  22676422.864   -16979540.34849 -13203588.71746  22676422.259    22676428.877
 03  4  3  1 50 30.0000000  0  8G14G31G25G 3G15G 9G23G18
  20206993.410   -28809301.31649 -22436733.96448  20206992.690    20206998.058
  22504847.543    -5364254.44849  -3984490.00846  22504846.829    22504855.440
  24001690.283    -5604448.39149  -3669386.35945  24001689.727    24001703.378
  22618297.427   -10005159.87549  -7774893.09546  22618296.929    22618306.615
  21787095.414   -19890310.46449 -15490155.40347  21787094.429    21787102.990
  24076314.701    -7292834.32048  -5671545.45444  24076314.544
  23445781.200    -9130585.82649  -6838316.54046  23445780.364    23445789.468
  22688609.969   -16915495.27049 -13153683.44646  22688609.353    22688616.314
 03  4  3  1 51  0.0000000  0  8G14G31G25G 3G15G 9G23G18
  20207802.291   -28805050.27749 -22433421.42548  20207801.610    20207806.886
  22510182.527    -5336219.40749  -3962644.51846  22510181.736    22510190.467
  23982938.580    -5702987.78049  -3746169.79245  23982937.928    23982951.111
  22630995.753    -9938429.97549  -7722895.77946  22630995.178    22631005.015
  21802403.434   -19809864.69549 -15427470.40047  21802402.521    21802411.293
  24087886.101    -7232024.60048  -5624161.28444  24087885.936    24087892.839
  23456880.049    -9072260.59749  -6792868.30246  23456879.280    23456888.347
  22700815.404   -16851353.61549 -13103702.91946  22700814.833    22700822.101
 03  4  3  1 51 30.0000000  0  8G14G31G25G 3G15G 9G23G18
  20208707.120   -28800295.28249 -22429716.20248  20208706.434    20208711.649
  22515615.667    -5307668.35849  -3940396.93646  22515614.794    22515623.602
  23964190.189    -5801508.09249  -3822938.42545  23964189.727    23964202.321
  22643755.500    -9871376.31549  -7670646.21246  22643755.084    22643764.844
  21817779.559   -19729062.00749 -15364507.28747  21817778.746    21817787.409
  24099554.520    -7170702.79648  -5576377.99444  24099554.158    24099561.549
  23467987.236    -9013891.67949  -6747386.03146  23467986.481    23467995.432
  22713039.943   -16787114.46649 -13053646.42746  22713039.269    22713046.427
 03  4  3  1 52  0.0000000  0  8G14G31G25G 3G15G 9G23G18
  20209707.530   -28795037.92949 -22425619.52248  20209706.831    20209712.007
  22521146.476    -5278603.44549  -3917748.96946  22521145.616    22521154.381
  23945446.085    -5900007.05049  -3899690.39745  23945445.543    23945457.988
  22656576.713    -9804001.96749  -7618146.75646  22656576.248    22656585.560
  21833223.755   -19647903.99749 -15301267.31447  21833222.774    21833231.151
  24111320.047    -7108871.17948  -5528197.42844  24111319.751    24111327.902
  23479102.767    -8955479.23049  -6701869.84646  23479102.116    23479111.007
  22725282.810   -16722778.85549 -13003514.77546  22725282.164    22725289.147
 03  4  3  1 52 30.0000000  0  8G14G31G25G 3G15G 9G23G18
  20210803.193   -28789279.84449 -22421132.65948  20210802.513    20210807.663
  22526774.546    -5249026.83649  -3894702.26846  22526773.858    22526782.475
  23926706.785    -5998482.37549  -3976423.97245  23926706.147    23926718.653
  22669458.187    -9736310.45649  -7565400.19246  22669457.591    22669466.623
  21848734.913   -19566392.44049 -15237751.84447  21848733.956    21848742.184
  24123182.538    -7046532.14548  -5479621.60044  24123181.891    24123191.782
  23490226.479    -8897023.60049  -6656320.00446  23490225.864    23490234.731
  22737544.028   -16658347.18149 -12953308.30146  22737543.306    22737550.075
 03  4  3  1 53  0.0000000  0  8G14G31G25G 3G15G 9G23G18
  20211993.993   -28783022.00649 -22416256.38648  20211993.318    20211998.501
  22532500.148    -5218940.39149  -3871258.29346  22532499.295    22532507.602
  23907972.148    -6096931.45749  -4053137.08345  23907971.626    23907984.409
  22682399.090    -9668304.40449  -7512408.47546  22682398.672    22682407.739
  21864313.009   -19484528.33849 -15173961.65047  21864312.202    21864320.358
  24135140.951    -6983686.67548  -5430651.15844                  24135139.786
  23501358.440    -8838524.56149  -6610736.32745  23501357.679    23501366.794
  22749823.340   -16593819.36049 -12903026.87146  22749822.606    22749829.360
 03  4  3  1 53 30.0000000  0  7G14G31G25G 3G15G23G18
  20213279.862   -28776264.59449 -22410990.82648  20213279.168    20213284.397
  22538322.170    -5188344.86449  -3847417.63046  22538321.385    22538329.669
  23889243.491    -6195350.62949  -4129826.93045  23889242.832    23889255.796
  22695399.802    -9599985.68549  -7459173.14546  22695399.352    22695408.382
  21879958.374   -19402311.93849 -15109896.94747  21879957.571    21879965.710
  23512499.006    -8779981.00649  -6565117.99445  23512498.186    23512507.323
  22762121.039   -16529195.09249 -12852670.28846  22762120.212    22762127.113
 03  4  3  1 54  0.0000000  0  7G14G31G25G 3G15G23G18
  20214660.749   -28769007.86249 -22405336.19348  20214660.062    20214665.229
  22544240.984    -5157241.07149  -3823180.88846  22544240.187    22544248.489
  23870520.811    -6293736.27549  -4206490.70645  23870520.174    23870533.195
  22708459.505    -9531356.00349  -7405695.49746  22708459.111    22708468.188
  21895670.815   -19319743.60149 -15045558.00647  21895669.913    21895678.098
  23523648.028    -8721391.74149  -6519464.00045  23523647.228    23523656.356
  22774436.963   -16464473.40849 -12802237.79346  22774436.256    22774443.390
 03  4  3  1 54 30.0000000  0  7G14G31G25G 3G15G23G18
  20216136.095   -28761254.61249 -22399294.66148  20216135.401    20216140.547
  22550255.930    -5125632.21749  -3798550.60746  22550255.143    22550263.492
  23851804.669    -6392087.05549  -4283127.24345  23851804.101    23851817.435
  22721577.745    -9462419.62649  -7351978.86846  22721577.339    22721586.372
  21911449.411   -19236826.12149 -14980946.99847  21911448.490    21911456.900
  23534805.658    -8662757.99749  -6473775.39545  23534804.962    23534813.574
  22786771.100   -16399655.70849 -12751730.46946  22786770.458    22786777.665
 03  4  3  1 55  0.0000000  0  7G14G31G25G 3G15G23G18
  20217705.414   -28753007.20749 -22392868.06648  20217704.764    20217709.925
  22556366.286    -5093521.50149  -3773529.24246  22556365.483    22556374.024
  23833095.528    -6490401.56649  -4359735.54745  23833095.132    23833108.165
  22734753.518    -9393180.86549  -7298026.60446  22734753.048    22734762.163
  21927293.906   -19153562.18449 -14916066.01347  21927292.981    21927301.464
  23545971.748    -8604081.00349  -6428053.08245  23545970.984    23545979.169
  22799123.529   -16334743.43949 -12701149.47846  22799122.836    22799129.908
 03  4  3  1 55 30.0000000  0  7G14G31G25G 3G15G23G18
  20219368.754   -28744266.30649 -22386056.93548  20219368.063    20219373.229
  22562571.798    -5060910.07649  -3748117.72346  22562571.067    22562579.826
  23814394.500    -6588676.13249  -4436312.73945  23814394.109    23814406.550
  22747986.448    -9323641.56649  -7243840.15146  22747985.997    22747995.329
  21943204.324   -19069952.25049 -14850915.42747  21943203.396    21943211.935
  23557146.037    -8545359.70849  -6382296.24045  23557145.298    23557153.559
  22811494.170   -16269736.08949 -12650494.40446  22811493.422    22811500.427
 03  4  3  1 56  0.0000000  0  7G14G31G25G 3G15G23G18
  20221125.848   -28735032.48149 -22378861.70848  20221125.137    20221130.328
  22568872.568    -5027799.22449  -3722317.04046  22568871.855    22568880.595
  23795701.518    -6686907.73049  -4512856.40445  23795701.060    23795713.408
  22761276.222    -9253804.33949  -7189421.55446  22761275.696    22761285.188
  21959180.744   -18985996.89049 -14785495.70047  21959179.776    21959188.181
  23568328.584    -8486593.59249  -6336504.43245  23568327.876    23568336.549
  22823882.840   -16204633.00949 -12599764.72046  22823882.106    22823889.098
 03  4  3  1 56 30.0000000  0  7G14G31G25G 3G15G23G18
  20222976.470   -28725307.04349 -22371283.40748  20222975.805    20222980.935
  22575268.222    -4994191.16849  -3696128.94946  22575267.437    22575275.930
  23777017.144    -6785093.76649  -4589364.57145  23777016.624    23777028.895
  22774621.983    -9183672.28649  -7134773.25146  22774621.487    22774630.918
  21975222.422   -18901697.66049 -14719808.01247  21975221.451    21975229.797
  23579519.880    -8427782.63249  -6290677.68845  23579519.109    23579528.053
  22836289.434   -16139435.04449 -12548961.12246  22836288.717    22836295.676
 03  4  3  1 57  0.0000000  0  7G14G31G25G 3G15G23G18
  20224920.390   -28715091.57949 -22363323.25848  20224919.720    20224924.826
  22581757.833    -4960087.84449  -3669554.91946  22581757.055    22581765.479
  23758341.827    -6883231.76549  -4665835.25845  23758341.304    23758353.333
  22788023.321    -9113248.18849  -7079897.34546  22788022.820    22788032.124
  21991328.892   -18817056.08249 -14653853.53947  21991328.050    21991336.496
  23590719.714    -8368926.62749  -6244815.86945  23590718.925    23590728.129
  22848714.527   -16074142.22449 -12498083.59746  22848713.734    22848720.442
 03  4  3  1 57 30.0000000  0  7G14G31G25G 3G15G23G18
  20226957.316   -28704387.18149 -22354982.12448  20226956.619    20226961.745
  22588341.328    -4925491.08549  -3642596.40846  22588340.567    22588348.954
  23739676.000    -6981318.71649  -4742266.20445  23739675.476    23739687.179
  22801479.600    -9042534.54549  -7024795.82746  22801479.075    22801488.502
  22007500.439   -18732073.48749 -14587633.33446  22007499.595    22007508.169
  23601928.308    -8310025.24949  -6198918.69545  23601927.635    23601936.712
  22861157.544   -16008754.58349 -12447132.20046  22861156.741    22861163.339
 03  4  3  1 58  0.0000000  0  7G14G31G25G 3G15G23G18
  20229087.201   -28693194.50349 -22346260.51848  20229086.555    20229091.647
  22595018.531    -4890402.22449  -3615254.43646  22595017.775    22595026.042
  23721020.436    -7079351.25649  -4818654.75745  23721020.081    23721031.639
  22814990.388    -8971533.78049  -6969470.53546  22814989.981    22814999.581
  22023736.974   -18646750.48949 -14521147.90347  22023736.154    22023744.526
  23613145.599    -8251077.68949  -6152985.55245  23613144.880    23613154.043
  22873618.632   -15943271.42149 -12396106.37446  22873617.944    22873624.425
 03  4  3  1 58 30.0000000  0  7G14G31G25G 3G15G23G18
  20231309.692   -28681515.10349 -22337159.65148  20231309.036    20231314.093
  22601788.971    -4854823.41549  -3587530.67246  22601788.208    22601796.461
  23702375.976    -7177326.77649  -4894998.83445  23702375.836    23702387.115
  22828555.367    -8900249.11249  -6913924.07346  22828554.960    22828564.624
  22040038.172   -18561088.76249 -14454398.52747  22040037.259    22040045.385
  23624371.822    -8192083.81849  -6107016.33345  23624371.127    23624379.994
  22886097.570   -15877693.22849 -12345006.47746  22886096.867    22886103.636
 03  4  3  1 59  0.0000000  0  7G14G31G25G 3G15G23G18
  20233624.592   -28669350.11649 -22327680.40248  20233623.894    20233628.998
  22608652.129    -4818756.43549  -3559426.51546  22608651.417    22608659.711
  23683743.480    -7275242.57749  -4971296.41546  23683743.116    23683754.004
  22842174.064    -8828683.15149  -6858158.40446  22842173.653    22842183.217
  22056403.454   -18475089.50349 -14387386.13147  22056402.500    22056410.564
  23635607.255    -8133043.29649  -6061010.74346  23635606.420    23635614.948
  22898594.012   -15812020.14149 -12293832.61546  22898593.325    22898600.898
 03  4  3  1 59 30.0000000  0  7G14G31G25G 3G15G23G18
  20236031.641   -28656701.03949 -22317823.94448  20236030.937    20236035.975
  22615607.928    -4782203.48249  -3530943.68446  22615607.241    22615615.344
  23665122.389    -7373096.03449  -5047545.36246  23665121.927    23665132.959
  22855845.703    -8756838.74249  -6802175.77946  22855845.238    22855854.781
  22072832.568   -18388754.12249 -14320111.80947  22072831.607    22072839.865
  23646851.232    -8073955.87449  -6014968.60046  23646850.446    23646859.115
  22911108.825   -15746251.90049 -12242584.60246  22911108.320    22911116.273
 03  4  3  2  0  0.0000000  0  8G11G14G31G25G 3G15G23G18
                   -717378.41049   -537915.33143
  20238530.330   -28643570.05249 -22307591.97848  20238529.598    20238534.696
  22622655.944    -4745167.32849  -3502084.35946  22622655.132    22622662.976
  23646513.453    -7470885.12449  -5123744.28745  23646513.040    23646523.810
  22869569.578    -8684719.75749  -6745979.22246  22869569.127    22869578.657
  22089325.225   -18302084.72249 -14252577.20846  22089324.249    22089332.605
  23658104.049    -8014822.31349  -5968890.48546  23658103.186    23658112.143
  22923642.019   -15680389.62449 -12191263.36646  22923641.592    22923649.412
 03  4  3  2  0 30.0000000  0  8G11G14G31G25G 3G15G23G18
                   -814885.74449   -613894.94344                  24050206.876
  20241120.423   -28629958.70349 -22296985.69148  20241119.744    20241124.780
  22629795.232    -4707650.17749  -3472850.19746  22629794.439    22629802.232
  23627917.370    -7568607.47849  -5199891.13445  23627916.894    23627927.427
  22883344.906    -8612329.32949  -6689571.12746  22883344.411    22883354.240
  22105881.134   -18215082.91249 -14184783.60546  22105880.138    22105888.564
  23669365.537    -7955642.39449  -5922776.25746  23669364.789    23669373.850
  22936193.445   -15614433.58849 -12139869.07946  22936192.944    22936200.260
 03  4  3  2  1  0.0000000  0  8G11G14G31G25G 3G15G23G18
  24031666.955     -912271.22849   -689779.60244  24031669.222    24031677.298
  20243801.918   -28615867.60749 -22286005.58648  20243801.168    20243806.214
  22637025.595    -4669653.54749  -3443242.41046  22637024.864    22637032.823
  23609334.416    -7666259.55349  -5275983.28145  23609333.890    23609344.418
  22897171.438    -8539669.59049  -6632953.16746  22897170.989    22897180.882
  22122500.040   -18127749.47049 -14116731.58946  22122498.983    22122507.494
  23680636.152    -7896415.33649  -5876625.30445  23680635.428    23680644.509
  22948762.229   -15548383.36949 -12088401.33646  22948761.713    22948769.033
 03  4  3  2  1 30.0000000  0  8G11G14G31G25G 3G15G23G18
  24013159.458    -1009534.36249   -765568.93044  24013159.915    24013169.159
  20246574.065   -28601299.45049 -22274653.74148  20246573.309    20246578.361
  22644346.834    -4631180.63749  -3413263.48446  22644346.055    22644354.078
  23590765.001    -7763839.60549  -5352019.33045  23590764.555    23590775.242
  22911048.508    -8466744.63949  -6576128.54946  22911048.111    22911057.915
  22139181.577   -18040087.16949 -14048423.30346  22139180.524    22139189.086
  23691915.311    -7837141.98949  -5830438.27245  23691914.689    23691923.658
  22961348.827   -15482239.87949 -12036860.96746  22961348.429    22961355.635
 03  4  3  2  2  0.0000000  0  8G11G14G31G25G 3G15G23G18
  23994674.932    -1106672.45649   -841260.83144  23994674.563    23994684.095
  20249436.690   -28586255.68649 -22262931.29748  20249435.977    20249440.993
  22651758.331    -4592233.65449  -3382915.16846  22651757.454    22651765.341
  23572209.623    -7861345.39049  -5427997.49145  23572209.250    23572220.180
  22924975.667    -8393557.36049  -6519099.55546  22924975.210    22924984.864
  22155925.526   -17952097.55749 -13979859.98446  22155924.453    22155932.893
  23703203.447    -7777822.31549  -5784215.18945  23703202.794    23703211.525
  22973953.442   -15416003.71149 -11985248.37746  22973952.933    22973960.050
 03  4  3  2  2 30.0000000  0  8G11G14G31G25G 3G15G23G18
  23976214.625    -1203682.41049   -916852.84344  23976214.162    23976223.745
  20252389.770   -28570736.60049 -22250838.46948  20252389.053    20252394.089
  22659259.703    -4552813.55749  -3352198.19046  22659258.861    22659266.689
  23553669.469    -7958772.70949  -5503914.54645  23553669.076    23553680.043
  22938952.347    -8320109.58549  -6461867.52446  22938951.824    22938961.438
  22172731.943   -17863780.73949 -13911041.68646  22172730.768    22172738.994
  23714500.789    -7718454.94449  -5737954.86245  23714500.123    23714508.675
  22986575.736   -15349673.59749 -11933562.54846  22986575.205    22986582.242
 03  4  3  2  3  0.0000000  0  8G11G14G31G25G 3G15G23G18
  23957779.867    -1300561.13549   -992342.67544  23957778.765    23957787.910
  20255433.208   -28554742.85149 -22238375.77548  20255432.496    20255437.655
  22666850.887    -4512921.53449  -3321113.48946  22666850.096    22666857.913
  23535144.942    -8056118.10649  -5579767.78745  23535144.509    23535155.380
  22952977.945    -8246403.31349  -6404434.09646  22952977.464    22952987.205
  22189600.380   -17775137.34649 -13841968.94646  22189599.190    22189607.069
  23725807.410    -7659038.57349  -5691656.39245  23725806.597    23725815.325
  22999216.305   -15283248.57449 -11881802.83446  22999215.714    22999222.461
 03  4  3  2  3 30.0000000  0  8G11G14G31G25G 3G15G23G18
  23939369.890    -1397306.57649  -1067728.64244  23939368.561    23939377.566
  20258566.728   -28538275.61049 -22225544.12648  20258566.057    20258571.224
  22674531.586    -4472559.78749  -3289662.76346  22674530.769    22674538.562
  23516636.557    -8153378.55949  -5655554.84846  23516636.033    23516646.967
  22967052.393    -8172441.53549  -6346801.54846  22967051.990    22967061.651
  22206530.251   -17686168.88449 -13772642.88346  22206529.170    22206536.986
  23737123.129    -7599573.12249  -5645319.67345  23737122.302    23737131.327
  23011874.548   -15216729.03349 -11829969.41845  23011873.762    23011880.548
 03  4  3  2  4  0.0000000  0  8G11G14G31G25G 3G15G23G18
  23920985.279    -1493915.65949  -1143008.28344  23920984.178    23920993.311
  20261790.250   -28521335.78649 -22212344.23648  20261789.555    20261794.781
  22682301.235    -4431729.65749  -3257847.06646  22682300.440    22682308.412
  23498144.718    -8250550.90549  -5731273.24146  23498144.354    23498155.636
  22981175.416    -8098226.28649  -6288971.53646  22981174.923    22981184.491
  22223521.953   -17596876.09849 -13703064.09746  22223520.927    22223528.962
  23748448.725    -7540057.55449  -5598943.88145  23748447.881    23748456.876
  23024550.695   -15150114.04249 -11778061.61145  23024549.966    23024556.930
 03  4  3  2  4 30.0000000  0  8G11G14G31G25G 3G15G23G18
  23902626.984    -1590387.16748  -1218180.77644  23902626.116    23902634.986
  20265103.254   -28503925.93349 -22198778.08948  20265102.551    20265107.784
  22690159.296    -4390434.38149  -3225668.90946  22690158.530    22690166.737
  23479670.336    -8347632.94849  -5806921.29646  23479669.924    23479681.380
  22995345.730    -8023761.51549  -6230947.06846  22995345.253    22995354.763
  22240575.137   -17507261.38449 -13633234.44346  22240574.071    22240582.442
  23759783.751    -7480492.45149  -5552529.50146  23759782.974    23759791.836
  23037244.914   -15083404.71549 -11726080.31846  23037244.347    23037251.487
 03  4  3  2  5  0.0000000  0  8G11G14G31G25G 3G15G23G18
  23884295.396    -1686719.20049  -1293244.58944  23884294.307    23884303.123
  20268505.408   -28486047.25849 -22184846.63148  20268504.716    20268509.943
  22698105.615    -4348676.04749  -3193129.93446  22698104.839    22698113.106
  23461213.884    -8444621.76349  -5882496.72146  23461213.362    23461224.790
  23009563.018    -7949050.06649  -6172730.40146  23009562.511    23009571.832
  22257689.170   -17417326.30049 -13563155.14746  22257688.103    22257696.755
  23771128.097    -7420877.49349  -5506076.27546  23771127.330    23771136.161
  23049957.281   -15016601.14549 -11674025.58346  23049956.607    23049963.964
 03  4  3  2  5 30.0000000  0  8G11G14G31G25G 3G15G23G18
  23865991.151    -1782910.44449  -1368198.68944  23865990.039    23865998.423
  20271996.245   -28467702.49449 -22170551.98448  20271995.540    20272000.791
  22706139.446    -4306458.07749  -3160232.78646  22706138.667    22706146.826
  23442775.141    -8541516.05049  -5957998.47046  23442774.705    23442786.116
  23023826.281    -7874096.04649  -6114324.72146  23023825.737    23023835.055
  22274863.894   -17327073.13749 -13492828.02746  22274862.813    22274871.443
  23782481.907    -7361213.56349  -5459584.90846  23782481.071    23782489.782
  23062687.150   -14949704.73049 -11621898.49346  23062686.564    23062694.078
 03  4  3  2  6  0.0000000  0  8G11G14G31G25G 3G15G23G18
  23847713.870    -1878958.12349  -1443040.92044  23847712.832    23847721.140
  20275575.747   -28448892.58549 -22155894.88448  20275575.061    20275580.188
  22714260.550    -4263781.92949  -3126978.63946  22714259.735    22714267.775
  23424355.310    -8638312.24049  -6033423.75646  23424354.867    23424366.029
  23038135.134    -7798901.51749  -6055731.60846  23038134.781    23038144.192
  22292098.926   -17236502.91949 -13422253.83046  22292097.862    22292106.286
  23793845.079    -7301499.65849  -5413054.59846  23793844.305    23793852.921
  23075435.102   -14882714.51549 -11569698.32546  23075434.429    23075441.841
 03  4  3  2  6 30.0000000  0  8G11G14G31G25G 3G15G23G18
  23829464.674    -1974859.99349  -1517769.46744  23829463.724    23829471.632
  20279243.436   -28429619.05549 -22140876.51648  20279242.713    20279247.776
  22722468.206    -4220649.89949  -3093369.25246  22722467.443    22722475.509
  23405954.870    -8735007.41949  -6108770.36146  23405954.366    23405965.161
  23052489.385    -7723469.86349  -5996953.73446  23052488.955    23052498.392
  22309393.988   -17145617.07849 -13351433.71246  22309392.948    22309401.123
  23805217.810    -7241735.68749  -5366485.24645  23805216.902    23805225.693
  23088200.755   -14815630.69849 -11517425.22846  23088200.131    23088207.377
 03  4  3  2  7  0.0000000  0  8G11G14G31G25G 3G15G23G18
  23811243.651    -2070613.86549  -1592382.75545  23811242.549    23811250.237
  20282998.880   -28409883.53549 -22125498.16448  20282998.193    20283003.269
  22730762.008    -4177064.67649  -3059406.72846  22730761.361    22730769.536
  23387573.812    -8831599.44449  -6184036.55346  23387573.311    23387583.960
  23066887.793    -7647804.31049  -5937993.57846  23066887.407    23066897.167
  22326748.878   -17054417.63249 -13280369.23646  22326747.793    22326755.731
  23816600.205    -7181921.61049  -5319876.86545  23816599.132    23816608.102
  23100984.190   -14748453.58349 -11465079.42646  23100983.662    23100990.693
 03  4  3  2  7 30.0000000  0  8G11G14G31G25G 3G15G23G18
  23793050.453    -2166217.63849  -1666879.06845  23793049.566    23793057.269
  20286842.115   -28389687.47149 -22109760.93748  20286841.412    20286846.453
  22739142.087    -4133028.01049  -3025092.42946  22739141.350    22739149.536
  23369213.057    -8928085.03949  -6259219.86346  23369212.632    23369222.882
  23081330.653    -7571906.87849  -5878852.74846  23081330.168    23081339.955
  22344163.183   -16962905.66249 -13209061.22446  22344162.119    22344169.922
  23827992.137    -7122056.77649  -5273228.93746  23827991.064    23828000.106
  23113785.676   -14681182.98149 -11412660.79246  23113784.980    23113791.828
 03  4  3  2  8  0.0000000  0  8G11G14G31G25G 3G15G23G18
  23774886.517    -2261669.04849  -1741256.64845  23774885.640    23774893.659
  20290772.630   -28369032.27549 -22093665.94848  20290771.921    20290776.976
  22747607.479    -4088542.16049  -2990428.13746  22747606.700    22747615.023
  23350873.281    -9024461.35149  -6334317.95746  23350872.688    23350882.651
  23095817.232    -7495780.79549  -5819533.74846  23095816.668    23095826.064
  22361636.407   -16871082.78549 -13137510.93646  22361635.303    22361643.298
  23839393.747    -7062140.92949  -5226541.26746  23839392.692    23839401.574
  23126604.786   -14613818.68949 -11360169.16546  23126604.065    23126610.581
 03  4  3  2  8 30.0000000  0  8G11G14G31G25G 3G15G23G18
  23756752.090    -2356965.73949  -1815513.67545  23756751.215    23756759.395
  20294790.211   -28347919.47649 -22077214.39148  20294789.510    20294794.602
  22756157.892    -4043609.53049  -2955415.71846  22756157.160    22756165.422
  23332554.742    -9120725.52549  -6409328.66146  23332554.050    23332563.493
  23110346.569    -7419428.91249  -5760038.83046  23110346.000    23110355.320
  22379168.299   -16778950.25049 -13065719.37046  22379167.285    22379175.564
  23850804.978    -7002173.62149  -5179813.49245  23850804.092    23850812.781
  23139441.806   -14546360.74149 -11307604.52946  23139441.018    23139447.257
 03  4  3  2  9  0.0000000  0  8G11G14G31G25G 3G15G23G18
  23738647.238    -2452105.16349  -1889648.17344  23738646.468    23738654.780
  20298894.654   -28326350.61949 -22060407.46548  20298893.958    20298899.015
  22764793.018    -3998232.20149  -2920056.77146  22764792.202    22764800.295
  23314257.654    -9216874.56849  -6484249.67946  23314257.137    23314266.327
  23124918.165    -7342853.83649  -5700369.99746  23124917.752    23124927.128
  22396758.813   -16686509.64949 -12993687.74946  22396757.918    22396766.326
  23862225.994    -6942154.24849  -5133045.14545  23862225.106    23862234.066
  23152296.251   -14478809.14049 -11254966.92746  23152295.341    23152301.796
 03  4  3  2  9 30.0000000  0  8G11G14G31G25G 3G15G23G18
  23720572.942    -2547084.17949  -1963657.70044  23720572.200    23720580.653
  20303085.822   -28304326.19749 -22043245.54348  20303085.087    20303090.093
  22773512.379    -3952411.41049  -2884352.26446  22773511.556    22773519.750
  23295983.157    -9312904.86649  -6559078.14346  23295982.827    23295992.219
  23139532.121    -7266057.64549  -5640528.85446  23139531.735    23139541.180
  22414408.061   -16593761.74849 -12921416.68246  22414407.149    22414415.748
  23873657.155    -6882081.62149  -5086235.30445  23873656.332    23873665.567
  23165168.146   -14411162.79349 -11202255.46445  23165167.448    23165174.549
 03  4  3  2 10  0.0000000  0  8G11G14G31G25G 3G15G23G18
  23702529.694    -2641901.57849  -2037541.27944  23702529.199    23702537.247
  20307363.022   -28281848.95749 -22025730.78848  20307362.286    20307367.381
  22782315.403    -3906150.79649  -2848305.03246  22782314.582    22782322.835
  23277731.703    -9408814.98249  -6633812.97546  23277731.373    23277740.683
  23154187.637    -7189044.86049  -5580518.94346  23154187.089    23154196.363
  22432115.451   -16500709.05749 -12848908.12246  22432114.450    22432123.176
  23885098.611    -6821956.72449  -5039384.71245  23885097.781    23885106.787
  23178058.403   -14343423.07349 -11149471.25346  23178057.874    23178065.176
 03  4  3  2 10 30.0000000  0  8G11G14G31G25G 3G15G23G18
  23684517.565    -2736556.17649  -2111297.98244  23684516.949    23684524.857
  20311725.904   -28258921.59349 -22007865.28748  20311725.175    20311730.317
  22791201.582    -3859453.79649  -2811917.76846  22791200.740    22791208.896
  23259503.519    -9504602.76749  -6708452.52446  23259503.302    23259512.356
  23168883.396    -7111819.12149  -5520343.10646  23168882.766    23168891.974
  22449880.327   -16407354.13349 -12776164.04846  22449879.382    22449888.130
  23896549.819    -6761780.12949  -4992493.86245  23896548.883    23896557.595
  23190966.641   -14275590.93649 -11096615.02446  23190966.118    23190973.327
 03  4  3  2 11  0.0000000  0  8G11G14G31G25G 3G15G23G18
  23666536.859    -2831045.65849  -2184926.01345  23666536.248    23666543.990
  20316174.137   -28235545.52949 -21989650.15348  20316173.446    20316178.646
  22800170.500    -3812322.55549  -2775192.14246  22800169.631    22800177.513
  23241299.135    -9600265.53049  -6782994.60646  23241298.904    23241307.835
  23183618.624    -7034383.12549  -5460003.41146  23183618.166    23183627.547
  22467702.349   -16313698.58949 -12703185.74246  22467701.404    22467710.147
  23908011.002    -6701551.35649  -4945562.37545  23908010.138    23908018.452
  23203892.689   -14207665.99549 -11043686.48246  23203892.030    23203898.893
 03  4  3  2 11 30.0000000  0  8G11G14G31G25G 3G15G23G18
  23648587.801    -2925367.71449  -2258423.56645  23648587.374    23648594.952
  20320707.520   -28211722.11649 -21971086.43548  20320706.847    20320712.065
  22809221.458    -3764759.29049  -2738129.82346  22809220.516    22809228.574
  23223119.278    -9695800.24149  -6857436.94946  23223118.930    23223127.712
  23198393.588    -6956739.65349  -5399502.04746  23198393.087    23198402.527
  22485581.223   -16219743.81449 -12629974.25346  22485580.237    22485589.013
  23919482.034    -6641269.99249  -4898589.88145  23919481.228    23919489.495
  23216836.377   -14139648.34949 -10990685.71146  23216835.450    23216842.321
 03  4  3  2 12  0.0000000  0  8G11G14G31G25G 3G15G23G18
  23630671.366    -3019518.22549  -2331787.44745  23630670.847    23630678.864
  20325326.128   -28187451.60449 -21952174.32348  20325325.430    20325330.509
  22818354.030    -3716764.78649  -2700731.49346  22818353.233    22818361.743
  23204964.790    -9791202.45749  -6931776.04446  23204964.327    23204973.074
  23213207.916    -6878889.87449  -5338839.91346  23213207.430    23213216.923
  22503517.126   -16125489.73249 -12556529.54346  22503516.110    22503525.039
  23930963.006    -6580934.20949  -4851574.95445  23930962.350    23930971.143
  23229797.460   -14071536.40549 -10937611.43346  23229796.666    23229803.723
 03  4  3  2 12 30.0000000  0  8G11G14G31G25G 3G15G23G18
  23612787.658    -3113495.87249  -2405016.64145  23612787.318    23612795.444
  20330029.389   -28162736.19149 -21932915.53848  20330028.634    20330033.601
  22827568.550    -3668342.01949  -2662999.47846  22827567.813    22827576.247
  23186835.673    -9886469.53649  -7006009.85346  23186835.259    23186844.356
  23228060.964    -6800837.58649  -5278020.00946  23228060.388    23228069.826
  22521509.867   -16030938.45649 -12482853.26446  22521508.883    22521517.548
  23942454.937    -6520544.08149  -4804517.69845  23942454.274    23942462.973
  23242776.640   -14003330.55749 -10884464.02046  23242775.871    23242782.805
 03  4  3  2 13  0.0000000  0  8G11G14G31G25G 3G15G23G18
  23594937.281    -3207299.41549  -2478110.18045  23594936.697    23594945.200
  20334816.632   -28137578.67249 -21913312.26048  20334815.920    20334820.845
  22836864.250    -3619494.63349  -2624936.61646  22836863.348    22836871.590
  23168732.358    -9981600.17249  -7080137.36346  23168732.102    23168741.465
  23242951.677    -6722586.99549  -5217045.56446  23242951.119    23242960.555
  22539558.713   -15936092.97249 -12408947.72146  22539557.669    22539566.011
  23953957.185    -6460100.54749  -4757418.83445  23953956.470    23953965.079
  23255773.350   -13935032.21249 -10831244.52746  23255772.613    23255779.489
 03  4  3  2 13 30.0000000  0  8G11G14G31G25G 3G15G23G18
  23577120.694    -3300925.86149  -2551065.72845  23577119.990    23577128.730
  20339687.855   -28111980.25249 -21893365.42648  20339687.128    20339692.034
  22846239.819    -3570224.65049  -2586544.42946  22846239.018    22846247.466
  23150655.807   -10076591.15549  -7154156.06046  23150655.525    23150665.132
  23257879.497    -6644140.44749  -5155918.45446  23257879.025    23257888.437
  22557663.016   -15840954.01449 -12334813.51546  22557662.006    22557670.211
  23965469.518    -6399602.76049  -4710277.66945  23965468.792    23965477.638
  23268787.768   -13866640.83049 -10777952.54646  23268787.064    23268793.793
 03  4  3  2 14  0.0000000  0  8G11G14G31G25G 3G15G23G18
  23559338.132    -3394372.36349  -2623881.06345  23559337.661    23559346.447
  20344642.750   -28085942.18049 -21873075.99848  20344642.018    20344646.883
  22855695.469    -3520533.89449  -2547824.37546  22855694.772    22855703.187
  23132606.520   -10171439.03049  -7228063.28046  23132606.261    23132615.676
  23272844.380    -6565500.50049  -5094640.64646  23272843.765    23272853.057
  22575822.705   -15745523.05749 -12260451.76346  22575821.814    22575830.183
  23976992.065    -6339049.92949  -4663093.63145  23976991.385    23977000.489
  23281819.960   -13798155.92749 -10724587.65046  23281819.332    23281825.791
 03  4  3  2 14 30.0000000  0  8G11G14G31G25G 3G15G23G18
  23541590.362    -3487636.91649  -2696554.64045  23541589.817    23541598.876
  20349680.872   -28059466.42649 -21852445.52448  20349680.149    20349684.952
  22865230.913    -3470425.20749  -2508778.68046  22865230.220    22865238.342
  23114585.402   -10266141.44349  -7301857.13246  23114584.875    23114594.017
  23287845.331    -6486670.26349  -5033214.52846  23287844.651    23287854.077
  22594037.830   -15649802.23449 -12185864.13446  22594036.863    22594045.316
  23988525.142    -6278442.14149  -4615866.74845  23988524.540    23988533.637
  23294869.794   -13729577.81249 -10671150.12846  23294869.257    23294875.457
 03  4  3  2 15  0.0000000  0  8G11G14G31G25G 3G15G23G18
  23523877.468    -3580717.99449  -2769085.23645  23523876.870    23523886.236
  20354801.999   -28032554.89849 -21831475.47648  20354801.274    20354806.054
  22874845.376    -3419901.35549  -2469409.44846  22874844.664    22874852.794
  23096592.262   -10360696.00249  -7375535.78346  23096591.752    23096600.584
  23302881.643    -6407652.79149  -4971642.51146  23302881.151    23302890.653
  22612307.863   -15553793.38649 -12111052.08546  22612306.856    22612315.179
  24000068.997    -6217779.03849  -4568596.78145  24000068.308    24000077.455
  23307937.487   -13660906.88149 -10617640.32746  23307936.991    23307942.975
 03  4  3  2 15 30.0000000  0  8G11G14G31G25G 3G15G23G18
  23506199.894    -3673612.88349  -2841470.72245  23506199.307    23506208.857
  20360005.717   -28005209.17849 -21810167.10248  20360004.982    20360009.839
  22884538.470    -3368964.71049  -2429718.58546  22884537.674    22884545.784
  23078627.756   -10455099.66649  -7449096.87246  23078627.339    23078636.092
  23317953.390    -6328450.84649  -4909926.79146  23317952.877    23317962.265
  22630632.201   -15457497.93449 -12036016.71646  22630631.250    22630639.501
  24011623.473    -6157060.37049  -4521283.50845  24011622.720    24011631.700
  23321022.854   -13592142.83549 -10564057.95146  23321022.392    23321028.401
 03  4  3  2 16  0.0000000  0  8G11G14G31G25G 3G15G23G18
  23488558.390    -3766319.76049  -2913709.73845  23488557.850    23488567.027
  20365291.561   -27977431.47849 -21788522.11448  20365290.872    20365295.764
  22894309.341    -3317618.25649  -2389708.37146  22894308.660    22894316.739
  23060692.314   -10549350.08449  -7522538.54246  23060691.986    23060700.733
  23333059.596    -6249068.17749  -4848070.21346  23333059.038    23333068.489
  22649010.739   -15360918.22049 -11960759.81846  22649009.816    22649017.989
  24023188.346    -6096286.30949  -4473927.08545  24023187.653    24023196.567
  23334125.957   -13523286.25749 -10510403.45246  23334125.461    23334131.638
 03  4  3  2 16 30.0000000  0  8G11G14G31G25G 3G15G23G18
  23470953.034    -3858835.53449  -2985799.85445  23470952.668    23470961.461
  20370659.537   -27949222.87249 -21766541.35348  20370658.796    20370663.647
  22904158.007    -3265863.76749  -2349380.20146  22904157.202    22904165.373
  23042786.695   -10643443.80449  -7595858.11346  23042786.341    23042795.352
  23348199.614    -6169507.04349  -4786074.58246  23348199.108    23348208.714
  22667443.322   -15264055.05949 -11885282.07346  22667442.306    22667450.638
  24034763.915    -6035455.67149  -4426526.59445  24034763.290    24034772.066
  23347246.752   -13454336.23449 -10456676.15546  23347246.168    23347252.598
 03  4  3  2 17  0.0000000  0  8G11G14G31G25G 3G15G23G18
  23453384.759    -3951158.47549  -3057739.72445  23453384.259    23453392.928
  20376109.000   -27920585.64549 -21744226.60748  20376108.294    20376113.111
  22914083.637    -3213704.21449  -2308736.40846  22914082.910    22914091.060
  23024911.368   -10737378.23749  -7669053.56646  23024911.076    23024920.256
  23363372.802    -6089770.89449  -4723942.56746  23363372.284    23363382.063
  22685929.153   -15166910.60949 -11809585.12946  22685928.159    22685936.769
  24046350.500    -5974568.50649  -4379082.00045  24046349.898    24046358.558
  23360385.299   -13385293.28949 -10402876.42546  23360384.592    23360391.233
 03  4  3  2 17 30.0000000  0  8G11G14G31G25G 3G15G23G18
  23435853.569    -4043286.24949  -3129527.49945  23435852.937    23435861.487
  20381639.685   -27891521.39949 -21721579.10748  20381638.955    20381643.909
  22924085.865    -3161142.19249  -2267778.98346  22924085.127    22924093.172
  23007066.907   -10831150.75049  -7742122.87846  23007066.550    23007075.736
  23378578.730    -6009862.66749  -4661676.45446  23378578.227    23378588.058
  22704468.097   -15069486.78649 -11733670.47446  22704467.155    22704476.068
  24057948.121    -5913624.55849  -4331593.24645  24057947.519    24057955.797
  23373541.523   -13316157.60849 -10349004.48946  23373540.715    23373547.390
 03  4  3  2 18  0.0000000  0  8G11G14G31G25G 3G15G23G18
  23418359.792    -4135216.71249  -3201161.51445  23418358.987    23418367.765
  20387251.224   -27862032.22949 -21698600.49748  20387250.530    20387255.565
  22934164.183    -3108180.71249  -2226510.31546  22934163.409    22934171.339
  22989253.818   -10924758.68449  -7815063.90446  22989253.531    22989262.581
  23393817.125    -5929785.55249  -4599278.78746  23393816.517    23393826.123
  22723060.141   -14971785.43049 -11657539.56146  22723059.034    22723068.163
  24069556.546    -5852623.84049  -4284060.18246  24069555.794    24069563.925
  23386715.052   -13246929.34549 -10295060.35446  23386714.364    23386721.114
 03  4  3  2 18 30.0000000  0  8G11G14G31G25G 3G15G23G18
  23400904.195    -4226946.85749  -3272639.46645  23400903.551    23400911.891
  20392943.481   -27832119.39649 -21675291.76048  20392942.770    20392947.801
  22944318.126    -3054821.48849  -2184931.71546  22944317.349    22944325.233
  22971472.681   -11018198.85349  -7887874.20446  22971472.281    22971480.940
  23409087.112    -5849541.80049  -4536751.25346  23409086.496    23409095.881
  22741704.730   -14873807.52449 -11581193.15546  22741703.626    22741712.786
  24081175.552    -5791565.34649  -4236482.13445  24081174.770    24081183.124
  23399906.793   -13177607.79149 -10241043.55746  23399905.963    23399912.417
 03  4  3  2 19  0.0000000  0  8G11G14G31G25G 3G15G23G18
  23383487.097    -4318474.23049  -3343959.36945  23383486.717    23383494.800
  20398715.959   -27801784.34449 -21651654.03048  20398715.234    20398720.311
  22954547.329    -3001066.90949  -2143045.06846  22954546.538    22954554.350
  22953723.957   -11111468.16349  -7960551.36146  22953723.678    22953731.912
  23424388.366    -5769134.01449  -4474095.89846  23424387.594    23424397.065
  22760401.394   -14775554.54149 -11504632.41946  22760400.423    22760409.744
  24092805.643    -5730448.50549  -4188858.58245  24092804.858    24092813.435
  23413115.840   -13108192.56049 -10186953.73845  23413115.088    23413121.780
 03  4  3  2 19 30.0000000  0  8G11G14G31G25G 3G15G23G18
  23366109.160    -4409797.18249  -3415120.00645  23366108.551    23366116.416
  20404568.336   -27771029.41949 -21627689.12248  20404567.632    20404572.760
  22964851.011    -2946920.33049  -2100852.94046  22964850.126    22964857.926
  22936008.389   -11204564.09649  -8033093.42946  22936007.992    22936016.062
  23439719.910    -5688565.75449  -4411315.48946  23439719.150    23439728.793
  22779150.329   -14677028.78749 -11427859.11846  22779149.353    22779158.699
  24104447.011    -5669273.34849  -4141189.61946  24104446.199    24104454.859
  23426342.788   -13038684.28749 -10132791.44345  23426341.911    23426348.772
 03  4  3  2 20  0.0000000  0  8G11G14G31G25G 3G15G23G18
  23348770.504    -4500912.87249  -3486119.09945  23348769.972    23348777.700
  20410500.415   -27739856.01649 -21603398.11948  20410499.695    20410504.823
  22975229.059    -2892383.77649  -2058356.92946  22975228.091    22975235.927
  22918326.109   -11297483.95349  -8105498.28846  22918325.724    22918333.941
  23455081.448    -5607839.81349  -4348412.22146  23455080.806    23455090.660
  22797950.871   -14578231.83549 -11350874.51746  22797949.857    22797959.172
  24116099.644    -5608039.35149  -4093474.80346  24116098.802    24116107.500
  23439587.241   -12969082.76549 -10078556.44645  23439586.502    23439593.257
 03  4  3  2 20 30.0000000  0  8G11G14G31G25G 3G15G23G18
  23331471.263    -4591819.07549  -3556955.02945  23331470.900    23331478.497
  20416511.752   -27708266.16549 -21578782.62048  20416510.984    20416516.127
  22985680.674    -2837460.02549  -2015559.21746  22985679.716    22985687.709
  22900677.883   -11390224.53449  -8177763.45846  22900677.611    22900685.928
  23470472.626    -5526958.84449  -4285388.15746  23470472.020    23470481.888
  22816802.822   -14479165.32849 -11273679.85546  22816801.816    22816810.622
  24127763.512    -5546746.21549  -4045713.91945  24127762.637    24127771.092
  23452849.690   -12899387.89249 -10024248.73845  23452849.020    23452855.640
 03  4  3  2 21  0.0000000  0  8G11G14G31G25G 3G15G23G18
  23314212.243    -4682513.28249  -3627625.71944  23314212.107    23314219.483
  20422601.822   -27676261.46249 -21553843.86148  20422601.118    20422606.306
  22996205.178    -2782151.67149  -1972461.78846  22996204.389    22996212.628
  22883064.596   -11482783.39949  -8249887.03746  22883064.214    22883072.400
  23485892.735    -5445925.94649  -4222245.74246  23485892.195    23485901.865
  22835705.757   -14379831.01649 -11196276.53746  22835704.690    22835713.078
  24139438.476    -5485393.53449  -3997906.64345  24139437.636    24139446.004
  23466130.244   -12829599.61649  -9969868.24445  23466129.576    23466135.879
 03  4  3  2 21 30.0000000  0  8G11G14G31G25G 3G15G23G18
  23296994.061    -4772993.28849  -3698129.53044  23296994.075    23297001.136
  20428770.739   -27643843.81149 -21528583.32348  20428770.027    20428775.120
  23006802.996    -2726461.26349  -1929066.68146  23006802.142    23006810.305
  22865486.417   -11575157.50749  -8321866.67546  22865485.934    22865493.972
  23501341.100    -5364744.08549  -4158987.24146  23501340.671    23501350.066
  22854659.038   -14280230.84649 -11118666.03746  22854657.930    22854666.386
  24151124.420    -5423980.84049  -3950052.57245  24151123.705    24151132.508
  23479428.904   -12759717.83349  -9915414.93846  23479428.219    23479433.889
 03  4  3  2 22  0.0000000  0  8G11G14G31G25G 3G15G23G18
  23279817.485    -4863257.09649  -3768464.82244  23279817.507    23279824.079
  20435017.735   -27611015.48149 -21503002.76948  20435017.002    20435022.036
  23017472.669    -2670392.02649  -1885376.37646  23017471.826    23017480.044
  22847943.673   -11667344.67449  -8393700.62246  22847943.129    22847951.178
  23516817.377    -5283416.65449  -4095615.31245  23516816.736    23516826.246
  22873662.222   -14180366.96549 -11040850.05646  22873661.254    22873669.961
  24162822.300    -5362508.24449  -3902151.81045  24162821.478    24162830.389
  23492744.782   -12689743.25649  -9860889.28945  23492743.982    23492749.633
 03  4  3  2 22 30.0000000  0  8G11G14G31G25G 3G15G23G18
  23262682.897    -4953302.11149  -3838629.63744  23262682.690    23262688.742
  20441342.607   -27577777.74749 -21477103.21648  20441341.924    20441346.894
  23028214.025    -2613946.06849  -1841392.53446  23028213.240    23028221.434
  22830436.906   -11759341.56049  -8465386.31346  22830436.438    22830444.386
  23532320.545    -5201946.45249  -4032132.07345  23532319.795    23532329.730
  22892715.555   -14080240.56349 -10962829.49846  22892714.603    22892723.536
  24174531.679    -5300975.14049  -3854203.91145  24174530.651    24174539.487
  23506077.336   -12619675.42749  -9806290.95045  23506076.594    23506083.100
 03  4  3  2 23  0.0000000  0  8G11G14G31G25G 3G15G23G18
  23245590.293    -5043126.05449  -3908622.10745  23245589.653    23245595.494
  20447744.996   -27544132.91949 -21450886.45048  20447744.311    20447749.274
  23039026.534    -2557126.53149  -1797117.56746  23039025.734    23039033.820
  22812966.917   -11851145.55649  -8536921.71346  22812966.492    22812974.344
  23547850.316    -5120336.39849  -3968539.88746  23547849.802    23547860.103
  22911818.700   -13979853.82049 -10884606.07846  22911817.639    22911826.774
  24186252.593    -5239381.37349  -3806208.74545  24186251.487    24186260.334
  23519428.214   -12549514.35449  -9751619.95845  23519427.650    23519434.331
 03  4  3  2 23 30.0000000  0  8G11G14G31G25G 3G15G23G18
  23228539.910    -5132726.43949  -3978440.47245  23228539.267    23228544.865
  20454224.626   -27510082.67249 -21424353.75648  20454223.935    20454228.767
  23049909.632    -2499935.62749  -1752553.24146  23049908.780    23049916.833
  22795534.014   -11942753.84849  -8608304.63846  22795533.561    22795541.551
  23563406.685    -5038589.02649  -3904840.70146  23563406.143    23563416.334
  22930970.917   -13879208.25149 -10806180.97046  22930969.900    22930979.154
  24197985.147    -5177726.20549  -3758165.76945  24197984.154    24197992.833
  23532796.756   -12479259.82649  -9696876.15445  23532796.185    23532803.379
 03  4  3  2 24  0.0000000  0  8G11G14G31G25G 3G15G23G18
  23211532.400    -5222101.04249  -4048082.87844  23211531.771    23211537.228
  20460781.030   -27475628.78749 -21397506.55848  20460780.277    20460785.082
  23060862.898    -2442376.36649  -1707701.90046  23060862.017    23060869.975
  22778138.971   -12034163.66649  -8679532.89346  22778138.593    22778146.559
  23578988.458    -4956707.72249  -3841037.15046  23578987.747    23578998.091
  22950172.175   -13778305.88449 -10727555.79146  22950171.107    22950180.175
  24209729.467    -5116009.48449  -3710074.80245  24209728.474    24209736.990
  23546183.533   -12408911.67149  -9642059.41645  23546182.977    23546190.200
 03  4  3  2 24 30.0000000  0  8G11G14G31G25G 3G15G23G18
  23194567.889    -5311247.72449  -4117547.68044  23194567.086    23194573.130
  20467413.704   -27440773.29449 -21370346.41748  20467413.005    20467417.850
  23071885.819    -2384451.35849  -1662565.58146  23071884.907    23071892.535
  22760782.631   -12125372.31649  -8750604.41246  22760782.178    22760789.752
  23594594.812    -4874695.38749  -3777131.50146  23594594.182    23594604.447
  22969421.821   -13677148.67549 -10648732.00046  22969420.671    22969429.731
  24221485.366    -5054230.97549  -3661935.69645  24221484.445    24221493.104
  23559588.328   -12338470.12449  -9587169.86945  23559587.756    23559594.833
 03  4  3  2 25  0.0000000  0  8G11G14G31G25G 3G15G23G18
  23177647.513    -5400164.01048  -4186832.95844  23177646.511    23177652.909
  20474122.463   -27405518.29649 -21342874.97848  20474121.790    20474126.678
  23082977.496    -2326163.76049  -1617146.69846  23082976.648    23082984.135
  22743464.991   -12216377.44149  -8821517.32546  22743464.477    22743471.769
  23610225.504    -4792555.11649  -3713126.18446  23610224.941    23610235.155
  22988719.453   -13575738.45849 -10569711.06946  22988718.432    22988727.301
  24233253.237    -4992390.51349  -3613748.27645  24233252.438    24233260.980
  23573010.703   -12267935.38749  -9532207.73045  23573010.135    23573017.149
 03  4  3  2 25 30.0000000  0  8G11G14G31G25G 3G15G23G18
  23160770.946    -5488846.91749  -4255936.39944  23160770.353    23160777.187
  20480907.053   -27369865.01649 -21315093.17448  20480906.314    20480911.196
  23094138.014    -2267515.30549  -1571446.61146  23094137.161    23094144.663
  22726186.628   -12307175.04049  -8892268.55946  22726186.099    22726193.310
  23625880.192    -4710289.12949  -3649022.89246  23625879.754    23625889.815
  23008064.993   -13474076.06949 -10490493.65746  23008064.029    23008072.931
  24245033.021    -4930486.87249  -3565511.65845  24245032.214    24245040.872
  23586450.812   -12197306.80349  -9477172.44245  23586450.280    23586457.423
 03  4  3  2 26  0.0000000  0  8G11G14G31G25G 3G15G23G18
  23143939.715    -5577294.64449  -4324856.63644  23143939.224    23143946.061
  20487766.825   -27333815.72549 -21287002.78648  20487766.145    20487771.108
  23105366.562    -2208509.36749  -1525467.99546  23105365.698    23105373.215
  22708948.209   -12397763.01349  -8962856.43146  22708947.643    22708954.982
  23641558.533    -4627900.98749  -3584824.44546  23641557.949    23641567.793
  23027458.032   -13372164.20349 -10411081.80646  23027457.093    23027466.120
  24256824.687    -4868520.22349  -3517225.93145  24256824.050    24256832.524
  23599908.987   -12126584.77749  -9422064.37245  23599908.373    23599915.399
 03  4  3  2 26 30.0000000  0  8G11G14G31G25G 3G15G23G18
  23127153.240    -5665505.65848  -4393592.41444  23127153.305    23127160.126
  20494701.520   -27297373.06449 -21258605.88848  20494700.864    20494705.914
  23116662.291    -2149149.48449  -1479213.53646  23116661.449    23116669.026
  22691749.930   -12488139.64849  -9033279.65646  22691749.349    22691756.874
  23657259.025    -4545394.43349  -3520533.70645  23657258.460    23657268.293
  23046898.006   -13270005.55349 -10331477.68146  23046897.155    23046906.187
  24268628.593    -4806490.98149  -3468891.43245  24268627.858    24268636.250
  23613384.985   -12055770.04449  -9366884.07445  23613384.333    23613390.780
 03  4  3  2 27  0.0000000  0  8G11G14G31G25G 3G15G23G18
  23110412.335    -5753476.70748  -4462141.17244  23110412.287    23110419.577
  20501711.046   -27260538.17249 -21229903.35248  20501710.341    20501715.364
  23128025.059    -2089437.60449  -1432684.80746  23128024.272    23128031.806
  22674592.348   -12578301.40249  -9103535.44846  22674591.858    22674599.659
  23672981.609    -4462771.41449  -3456152.22645  23672980.986    23672990.931
  23066385.013   -13167601.01349 -10251681.94646  23066384.184    23066393.207
  24280444.602    -4744397.93649  -3420507.18845  24280443.798    24280452.335
  23626878.820   -11984861.60549  -9311630.73145  23626877.992    23626883.986
 03  4  3  2 27 30.0000000  0  8G11G14G31G25G 3G15G23G18
  23093717.735    -5841204.99249  -4530500.82144  23093717.681    23093725.094
  20508794.887   -27223312.50749 -21200896.31448  20508794.167    20508799.159
  23139454.592    -2029375.93649  -1385883.51846  23139453.719    23139461.263
  22657476.490   -12668244.85549  -9173621.12246  22657475.956    22657484.004
  23688725.670    -4380034.60549  -3391682.04045  23688725.038    23688735.283
  23085918.709   -13064951.99849 -10171695.73546  23085917.821    23085926.888
  24292272.502    -4682240.45449  -3372072.75445  24292271.781    24292280.899
  23640390.046   -11913859.22449  -9256304.19945  23640389.101    23640395.282
 03  4  3  2 28  0.0000000  0  8G11G14G31G25G 3G15G23G18
  23077070.628    -5928688.09149  -4598669.48045  23077070.396    23077077.614
  20515952.754   -27185697.80949 -21171586.14248  20515951.992    20515956.996
  23150949.830    -1968967.38049  -1338811.91346  23150948.982    23150956.809
  22640402.780   -12757967.08349  -9243534.40446  22640402.325    22640410.438
  23704490.791    -4297186.73049  -3327125.33545  23704490.274    23704500.941
  23105498.515   -12962060.12849 -10091520.28246  23105497.566    23105506.649
  24304112.301    -4620018.01249  -3323587.66245  24304111.754    24304121.787
  23653918.743   -11842762.82849  -9200904.36845  23653917.725    23653924.621
 03  4  3  2 28 30.0000000  0  8G11G14G31G25G 3G15G23G18
  23060470.368    -6015924.99049  -4666646.25745  23060469.888    23060477.085
  20523183.984   -27147697.45349 -21141975.45948  20523183.196    20523188.250
  23162510.530    -1908215.94349  -1291473.11346  23162509.618    23162517.414
  22623371.738   -12847466.60949  -9313274.12346  22623371.186    22623379.154
  23720276.688    -4214231.87249  -3262485.28745  23720276.233    23720286.764
  23125123.766   -12858928.86349 -10011158.27346  23125122.801    23125131.733
  24315965.400    -4557731.57949  -3275052.80145  24315964.667    24315974.642
  23667464.933   -11771573.38549  -9145432.07545  23667464.126    23667471.422
 03  4  3  2 29  0.0000000  0  8G11G14G31G25G 3G15G23G18
  23043917.033    -6102913.08449  -4734429.12145  23043916.558    23043923.918
  20530488.202   -27109312.99949 -21112065.48348  20530487.459    20530492.614
  23174135.798    -1847124.05649  -1243869.05246  23174134.881    23174142.672
  22606383.514   -12936740.42749  -9382838.00946  22606382.927    22606390.726
  23736082.740    -4131172.73449  -3197763.98546  23736082.251    23736092.445
  23144793.793   -12755559.71849  -9930610.89446  23144793.034    23144801.914
  24327830.882    -4495380.33049  -3226467.39545  24327829.923    24327839.480
  23681029.366   -11700290.55949  -9089886.94445  23681028.576    23681036.143
 03  4  3  2 29 30.0000000  0  8G11G14G31G25G 3G15G23G18
  23027411.608    -6189649.90949  -4802016.21645  23027411.125    23027418.612
  20537865.285   -27070546.46849 -21081857.78148  20537864.482    20537869.655
  23185825.276    -1785694.62249  -1196001.96346  23185824.438    23185832.244
  22589438.526   -13025785.57749  -9452223.69246  22589438.008    22589445.662
  23751907.719    -4048012.52249  -3132963.92845  23751907.177    23751917.280
  23164509.117   -12651954.61349  -9849879.66245  23164508.344    23164516.886
  24339708.481    -4432964.02749  -3177831.29445  24339707.600    24339716.654
  23694612.172   -11628914.50149  -9034269.23645  23694611.331    23694618.633
 03  4  3  2 30  0.0000000  0  8G11G14G31G25G 3G15G23G18
  23010954.196    -6276133.05949  -4869405.64045  23010953.698    23010961.409
  20545314.500   -27031400.11449 -21051354.11348  20545313.755    20545318.897
  23197578.660    -1723930.60949  -1147874.16546  23197577.821    23197585.594
  22572537.572   -13114600.09549  -9521429.63346  22572537.058    22572544.517
  23767751.284    -3964754.34749  -3068087.52045  23767750.709    23767760.778
  23184269.201   -12548115.40949  -9768966.02445  23184268.325    23184276.484
  24351598.516    -4370482.51049  -3129144.38845  24351597.660    24351606.490
  23708212.658   -11557445.39749  -8978579.01745  23708211.696    23708218.674
 03  4  3  2 30 30.0000000  0  8G11G14G31G25G 3G15G23G18
  22994545.761    -6362360.29449  -4936595.64945  22994545.357    22994552.834
  20552835.723   -26991875.48749 -21020555.67848  20552835.008    20552840.118
  23209395.168    -1661834.71449  -1099487.75846  23209394.211    23209402.117
  22555681.169   -13203180.69349  -9590453.32146  22555680.628    22555687.813
  23783613.106    -3881400.75349  -3003136.78945  23783612.568    23783622.617
  23204073.437   -12444044.00549  -9687871.43745  23204072.653    23204080.194
  24363500.759    -4307935.30449  -3080406.30445  24363499.940    24363508.619
  23721830.684   -11485882.98049  -8922816.08145  23721829.799    23721836.414
 03  4  3  2 31  0.0000000  0  8G11G14G31G25G 3G15G23G18
  22978186.524    -6448328.03649  -5003583.46745  22978186.153    22978193.561
  20560428.882   -26951973.61749 -20989463.29648  20560428.142    20560433.187
  23221274.117    -1599408.89649  -1050844.25446  23221273.307    23221281.417
  22538869.747   -13291524.05249  -9659292.13646  22538869.266    22538876.418
  23799492.780    -3797953.79449  -2938113.27946  23799492.204    23799502.201
  23223922.204   -12339741.43849  -9606596.77846  23223921.203    23223928.367
  24375415.775    -4245321.11549  -3031615.97745  24375414.902    24375423.538
  23735466.544   -11414226.28649  -8866979.70345  23735465.768    23735472.312
 03  4  3  2 31 30.0000000  0  8G11G14G31G25G 3G15G23G18
  22961877.291    -6534034.68349  -5070367.83045  22961876.862    22961884.026
  20568093.265   -26911697.01949 -20958078.92148  20568092.516    20568097.560
  23233215.537    -1536656.32449  -1001946.15746  23233214.719    23233222.972
  22522103.984   -13379627.84749  -9727944.30946  22522103.573    22522110.812
  23815389.715    -3714416.84949  -2873019.67246  23815388.969    23815399.051
  23243814.188   -12235210.01349  -9525143.73046  23243813.103    23243820.228
  24387343.460    -4182640.05849  -2982773.58245  24387342.635    24387351.529
  23749120.204   -11342475.97549  -8811070.34345  23749119.358    23749126.066
 03  4  3  2 32  0.0000000  0  8G11G14G31G25G 3G15G23G18
  22945618.331    -6619478.07849  -5136947.04945  22945617.779    22945624.428
  20575828.465   -26871048.02749 -20926404.36548  20575827.731    20575832.771
  23245218.744    -1473580.34749   -952796.06546  23245217.870    23245225.946
  22505384.528   -13467489.23649  -9796407.58346  22505384.077    22505391.443
  23831302.993    -3630793.27349  -2807858.55046  23831302.243    23831312.384
  23263748.784   -12130451.89849  -9443514.04646  23263747.694    23263755.445
  24399283.724    -4119892.11849  -2933879.02045  24399282.979    24399292.105
  23762791.342   -11270631.97649  -8755088.01245  23762790.542    23762797.577
 03  4  3  2 32 30.0000000  0  8G11G14G31G25G 3G15G23G18
  22929409.879    -6704654.76749  -5203318.38945  22929409.061    22929415.777
  20583634.508   -26830027.51649 -20894440.31448  20583633.737    20583638.720
  23257282.937    -1410182.65249   -903395.31946  23257282.089    23257289.891
  22488711.813   -13555104.81049  -9864679.30946  22488711.349    22488718.771
  23847232.501    -3547084.98949  -2742631.42945  23847231.724    23847241.521
  23283725.929   -12025468.19849  -9361708.56146  23283725.063    23283733.668
  24411236.626    -4057075.93049  -2884931.26245  24411235.994    24411245.471
  23776480.645   -11198693.34549  -8699031.95745  23776479.925    23776486.748
 03  4  3  2 33  0.0000000  0  8G11G14G31G25G 3G15G23G18
  22913252.364    -6789562.72949  -5269480.34145  22913251.436    22913258.249
  20591510.691   -26788637.86849 -20862188.61848  20591509.924    20591514.896
  23269407.605    -1346466.59649   -853746.45646  23269406.716    23269414.552
  22472086.447   -13642472.14549  -9932757.61046  22472085.998    22472093.227
  23863176.711    -3463295.22349  -2677340.80645  23863176.138    23863186.047
  23303746.117   -11920261.15649  -9279729.05846  23303745.283    23303754.215
  24423203.120    -3994191.37649  -2835930.26045  24423202.459    24423211.997
  23790188.051   -11126660.50649  -8642902.43345  23790187.306    23790194.099
 03  4  3  2 33 30.0000000  0  8G11G14G31G25G 3G15G23G18
  22897146.418    -6874199.94049  -5335431.31245  22897145.596    22897152.298
  20599456.719   -26746881.27949 -20829650.99948  20599455.983    20599460.931
  23281592.129    -1282435.39849   -803852.02746  23281591.339    23281599.363
  22455508.718   -13729588.97649 -10000640.71246  22455508.215    22455515.394
  23879135.410    -3379427.18149  -2611989.17145  23879135.279    23879145.190
  23323808.891   -11814832.90149  -9197577.18346  23323807.914    23323816.653
  24435183.122    -3931238.47449  -2786876.03045  24435182.284    24435191.377
  23803912.992   -11054533.91349  -8586699.86045  23803912.326    23803919.425
 03  4  3  2 34  0.0000000  0  8G11G14G31G25G 3G15G23G18
  22881092.258    -6958564.13649  -5401169.52645  22881091.361    22881098.580
  20607472.251   -26704759.80349 -20796829.05748  20607471.474    20607476.326
  23293836.362    -1218091.76549   -753714.12946  23293835.603    23293843.606
  22438978.978   -13816452.41649 -10068326.38346  22438978.489    22438985.598
  23895109.783    -3295483.70549  -2546578.75345  23895109.370    23895119.194
  23343913.237   -11709185.62949  -9115254.66846  23343912.155    23343920.643
  24447175.857    -3868216.81749  -2737768.24545  24447174.752    24447183.579
  23817655.845   -10982313.26949  -8530424.03445  23817655.190    23817662.555
 03  4  3  2 34 30.0000000  0  8G11G14G31G25G 3G15G23G18
  22865090.242    -7042652.88949  -5466693.10045  22865089.598    22865097.005
  20615556.696   -26662275.57249 -20763724.44048  20615555.938    20615560.650
  23306139.597    -1153438.62249   -703335.08246  23306138.755    23306146.768
  22422498.076   -13903059.68249 -10135812.43246  22422497.558    22422504.549
  23911097.614    -3211467.67849  -2481111.85545  23911097.132    23911107.099
  23364058.478   -11603321.02949  -9032762.78546  23364057.431    23364065.923
  24459181.630    -3805126.15349  -2688606.68844  24459180.564    24459188.872
  23831416.939   -10909998.48249  -8474074.82445  23831416.413    23831423.380
 03  4  3  2 35  0.0000000  0  8G11G14G31G25G 3G15G23G18
  22849141.230    -7126463.92149  -5532000.28044  22849140.499    22849147.949
  20623709.807   -26619430.65849 -20730338.76748  20623709.043    20623713.715
  23318501.032    -1088479.08949   -652717.26346  23318500.138    23318508.292
  22406066.331   -13989408.41149 -10203097.03046  22406065.784    22406072.710
  23927098.898    -3127382.20449  -2415590.80445  23927098.343    23927108.388
  23384244.275   -11497241.23349  -8950103.18645  23384243.376    23384252.393
  24471200.546    -3741966.21649  -2639391.15145  24471199.561    24471207.896
  23845196.317   -10837589.78449  -8417652.42545  23845195.714    23845202.251
 03  4  3  2 35 30.0000000  0  8G11G14G31G25G 3G15G23G18
  22833245.614    -7209995.38649  -5597089.53344  22833245.225    22833252.625
  20631930.969   -26576227.45549 -20696673.90848  20631930.242    20631934.970
  23330919.855    -1023216.70949   -601863.46146  23330919.021    23330927.467
  22389684.159   -14075496.36049 -10270178.41246  22389683.665    22389690.679
  23943112.552    -3043230.86449  -2350018.45645  23943111.939    23943122.050
  23404470.939   -11390948.71649  -8867277.85645  23404470.052    23404479.115
  24483232.636    -3678737.26749  -2590121.82345  24483231.661    24483240.122
  23858993.365   -10765087.84949  -8361157.39345  23858992.623    23858998.914
 03  4  3  2 36  0.0000000  0  8G11G14G31G25G 3G15G23G18
  22817403.782    -7293244.46149  -5661958.76544  22817403.409    22817411.356
  20640220.037   -26532667.44149 -20662731.02648  20640219.364    20640224.062
  23343396.209     -957653.73549   -550775.46746  23343395.294    23343403.498
  22373352.278   -14161320.58549 -10337054.29746  22373351.711    22373358.825
  23959138.294    -2959015.82749  -2284396.44145  23959137.604    23959147.839
  23424738.112   -11284445.12849  -8784288.06746  23424737.062    23424745.951
  24495278.016    -3615438.39349  -2540797.97345  24495277.051    24495285.889
  23872807.920   -10692491.84949  -8304589.07145  23872807.239    23872813.329
 03  4  3  2 36 30.0000000  0  8G11G14G31G25G 3G15G23G18
  22801616.337    -7376209.00849  -5726606.28344  22801615.959
  20648576.778   -26488752.75249 -20628511.76648  20648576.038    20648580.707
  23355929.048     -891793.25249   -499455.65446  23355928.158    23355936.114
  22357071.111   -14246878.21249 -10403722.45846  22357070.562    22357077.600
  23975175.306    -2874740.23649  -2218727.22945  23975174.663    23975185.219
  23445044.994   -11177732.50849  -8701135.39446  23445043.954    23445052.571
  24507337.062    -3552069.26449  -2491419.41245  24507336.044    24507344.780
  23886640.200   -10619802.03949  -8247947.65145  23886639.574    23886645.658
 03  4  3  2 37  0.0000000  0  8G11G14G31G25G 3G15G23G18
  22785883.527    -7458886.41449  -5791030.10544  22785883.299
  20657000.531   -26444485.24449 -20594017.56748  20656999.817    20657004.472
  23368517.916     -825637.88149   -447906.05246  23368517.043    23368524.944
  22340841.206   -14332166.20949 -10470180.51046  22340840.598    22340847.546
  23991223.619    -2790406.71649  -2153012.89545  23991222.921    23991233.580
  23465391.288   -11070812.56449  -8617821.16746  23465390.278    23465398.859
  24519409.172    -3488629.36949  -2441985.69045  24519408.228    24519417.161
  23900490.731   -10547018.05149  -8191232.86745  23900490.025    23900496.141
 03  4  3  2 37 30.0000000  0  8G11G14G31G25G 3G15G23G18
                  -7541274.48148  -5855228.44144
  20665490.974   -26399867.26249 -20559250.28748  20665490.249    20665494.978
  23381162.248     -759190.90849   -396129.22046  23381161.410    23381169.407
  22324662.803   -14417182.59349 -10536426.90546  22324662.288    22324669.285
  24007282.347    -2706018.53549  -2087255.99145  24007281.545    24007292.289
  23485776.651   -10963687.64249  -8534347.21646  23485775.665    23485784.257
  24531494.287    -3425118.61749  -2392496.73145  24531493.252    24531502.679
  23914359.107   -10474140.34949  -8134445.02945  23914358.275    23914364.466
 03  4  3  2 38  0.0000000  0  8G11G14G31G25G 3G15G23G18
                  -7623370.28949   -599860.15743
  20674047.928   -26354900.13149 -20524210.93848  20674047.225    20674051.930
  23393861.690     -692454.64549   -344126.94946  23393860.917    23393868.978
  22308536.750   -14501924.03449 -10602459.08746  22308536.252    22308543.491
  24023351.024    -2621577.75049  -2021458.08745  24023350.240    24023361.079
  23506200.897   -10856359.18949  -8450714.67345  23506199.746    23506208.254
  24543593.533    -3361536.10649  -2342951.90345  24543592.863    24543601.887
  23928245.278   -10401168.10149  -8077583.51545  23928244.371    23928250.876
 03  4  3  2 38 30.0000000  0  8G11G14G31G25G 3G15G23G18
                  -7705172.37849   -663609.62243
  20682670.819   -26309586.71249 -20488901.75248  20682670.055    20682674.804
  23406615.782     -625432.82049   -291902.18046  23406614.927    23406623.019
  22292463.323   -14586388.74849 -10668275.64346  22292462.829    22292470.460
  24039428.946    -2537088.15649  -1955622.16245  24039428.169    24039438.803
  23526663.248   -10748829.66449  -8366925.44145  23526662.071    23526670.115
  24555707.055    -3297882.19849  -2293351.45245  24555706.147    24555714.567
  23942149.070   -10328102.05149  -8020648.88345  23942148.206    23942155.000
 03  4  3  2 39  0.0000000  0  8G11G14G31G25G 3G15G23G18
                  -7786677.54749   -727134.36043
  20691359.204   -26263928.65249 -20453324.02648  20691358.461    20691363.257
  23419423.548     -558127.92149   -239456.84746  23419422.601    23419430.631
  22276443.485   -14670573.59549 -10733874.10447  22276443.019    22276450.530
  24055515.672    -2452552.22349  -1889750.13945  24055514.824    24055525.219
  23547163.060   -10641101.00349  -8282981.06645  23547161.959    23547170.029
  24567833.960    -3234156.22249  -2243694.82844  24567832.836    24567840.881
  23956070.856   -10254941.74649  -7963640.81245  23956069.938    23956076.983
 03  4  3  2 39 30.0000000  0  8G11G14G31G25G 3G15G23G18
                  -7867882.65249   -602910.94543
  20700112.976   -26217926.86149 -20417478.46048  20700112.261    20700117.087
  23432284.452     -490541.98049   -186792.49146  23432283.648    23432291.790
  22260477.727   -14754474.76149 -10799251.50347  22260477.252    22260484.368
  24071610.715    -2367971.91349  -1823843.50545  24071609.892    24071620.315
  23567700.577   -10533174.25549  -8198882.32245  23567699.671    23567707.773
  24579973.597    -3170356.75749  -2193980.91844  24579972.981    24579981.539
  23970010.810   -10181686.33049  -7906558.64945  23970009.947    23970016.736
 03  4  3  2 40  0.0000000  0  8G11G14G31G25G 3G15G23G18
                  -7948784.99848   -665950.11843
  20708931.884   -26171582.87549 -20381366.24948  20708931.185    20708936.011
  23445198.509     -422677.39549   -133911.00046  23445197.788    23445205.929
  22244566.450   -14838089.19749 -10864405.48447  22244565.997    22244572.754
  24087714.063    -2283349.27449  -1757903.93545  24087713.212    24087723.605
  23588275.715   -10425050.60849  -8114630.12445  23588274.708    23588283.001
  24592128.253    -3106482.92349  -2144209.03444  24592127.623    24592135.937
  23983969.247   -10108335.02349  -7849401.77545  23983968.325    23983974.756
 03  4  3  2 40 30.0000000  0  8G11G14G31G25G 3G15G23G18
                  -8029384.04348   -728751.14543
  20717815.276   -26124900.42149 -20344990.28548  20717814.585    20717819.330
  23458164.984     -354538.77049    -80815.97446  23458164.191    23458172.385
  22228710.027   -14921415.86149 -10929335.21947  22228709.554    22228715.997
  24103824.569    -2198688.79749  -1691934.81745  24103823.711    24103834.199
  23608887.685   -10316733.89349  -8030227.50645  23608886.618    23608895.202
  24604297.357    -3042536.10048  -2094380.34444  24604296.351    24604305.004
  23997945.742   -10034889.44749  -7792171.46045  23997944.718    23997950.787
 03  4  3  2 41  0.0000000  0  8G11G14G31G25G 3G15G23G18
                  -8109675.27249   -606150.07243
  20726763.069   -26077879.68349 -20308350.73048  20726762.361    20726767.095
  23471183.259     -286127.26349    -27508.32946  23471182.518    23471190.891
  22212909.267   -15004450.23549 -10994037.19047  22212908.704    22212915.048
  24119941.479    -2113991.82049  -1625937.28745  24119940.803    24119951.559
  23629536.373   -10208224.20449  -7945674.51145  23629535.213    23629544.221
  24616480.148    -2978514.18349  -2044493.11145  24616478.977    24616488.240
  24011940.254    -9961347.87849  -7734866.31545  24011939.210    24011945.132
 03  4  3  2 41 30.0000000  0  8G11G14G31G25G 3G15G23G18
                  -8189658.51349   -668474.67543
  20735774.446   -26030524.72849 -20271450.74748  20735773.772    20735778.558
  23484252.763     -217448.08449     26007.90246  23484251.930    23484260.293
  22197163.783   -15087192.17949 -11058511.29647  22197163.234    22197169.725
  24136064.734    -2029263.55749  -1559915.38245  24136064.200    24136074.595
  23650221.011   -10099525.90249  -7860974.52245  23650219.893    23650229.064
  24628677.109    -2914419.05649  -1994548.81744  24628675.853    24628685.401
  24025952.401    -9887712.66449  -7677488.21645  24025951.361    24025957.295
 03  4  3  2 42  0.0000000  0  8G11G14G31G25G 3G15G23G18
                  -8269331.20149   -730557.34043
  20744849.005   -25982837.66349 -20234291.98748  20744848.270    20744853.147
  23497372.492     -148503.99749     79730.54246  23497371.638    23497379.926
  22181474.357   -15169638.82849 -11122755.30947  22181473.846    22181480.369
  24152193.867    -1944506.40949  -1493870.96345  24152193.174    24152203.229
  23670941.232    -9990640.73449  -7776128.93945  23670940.208    23670949.413
  24640887.447    -2850250.07549  -1944546.94944  24640886.510    24640896.484
  24039982.504    -9813983.52649  -7620036.91445  24039981.428    24039987.351
 03  4  3  2 42 30.0000000  0  8G11G14G31G25G 3G15G23G18
                  -8348690.54749   -792395.76744                  22616554.648
  20753986.452   -25934819.74849 -20196875.41748  20753985.735    20753990.638
  23510542.015      -79297.30349    133657.76946  23510541.172    23510549.337
  22165841.791   -15251786.63049 -11186766.44847  22165841.308    22165847.915
  24168327.974    -1859722.73549  -1427805.91645  24168327.344    24168337.240
  23691697.218    -9881570.17149  -7691138.91345  23691696.019    23691704.865
  24653113.279    -2786006.21549  -1894486.84845  24653111.974    24653121.766
  24054030.544    -9740159.67249  -7562511.84845  24054029.621    24054035.052
 03  4  3  2 43  0.0000000  0  8G11G14G31G25G 3G15G23G18
  22601516.081    -8427735.38749   -853989.03144  22601516.997    22601514.458
  20763186.258   -25886474.14449 -20159203.48948  20763185.536    20763190.517
  23523760.535       -9832.15649    187786.41646  23523759.790    23523768.033
  22150266.315   -15333634.43849 -11250543.85747  22150265.910    22150272.697
  24184466.301    -1774916.37549  -1361723.17345  24184465.703    24184475.443
  23712487.527    -9772317.36749  -7606006.88445  23712486.258    23712494.646
  24665353.213    -2721688.18749  -1844368.91745  24665351.931    24665360.771
  24068096.461    -9666242.24249  -7504913.80445  24068095.405    24068101.111
 03  4  3  2 43 30.0000000  0  8G11G14G31G25G 3G15G23G18
  22586534.968    -8506461.68749   -915334.13844  22586535.918    22586540.300
  20772448.267   -25837801.32149 -20121276.59948  20772447.524    20772452.680
  23537028.028       59889.91049    242115.27445  23537027.235    23537035.806
  22134748.928   -15415178.20549 -11314084.33747  22134748.582    22134755.515
  24200608.142    -1690088.62449  -1295623.72245  24200607.370    24200617.991
  23733311.921    -9662883.03849  -7520733.40145  23733310.930    23733318.936
  24677607.059    -2657294.27449  -1794191.81445  24677605.999    24677614.362
  24082180.077    -9592229.61649  -7447241.60045  24082179.156    24082185.612
 03  4  3  2 44  0.0000000  0  8G11G14G31G25G 3G15G23G18
  22571614.764    -8584866.66049   -976428.86444  22571614.547    22571619.509
  20781772.220   -25788803.09049 -20083096.14948  20781771.509    20781776.703
  23550344.043      129866.31049    296642.31345  23550343.256    23550351.805
  22119290.354   -15496414.79449 -11377385.45447  22119289.864    22119296.684
  24216753.380    -1605241.82849  -1229509.44145  24216752.781    24216764.160
  23754171.035    -9553268.48449  -7435319.48445  23754169.901    23754177.605
  24689875.129    -2592823.83549  -1743955.08345  24689874.086    24689882.285
  24096282.110    -9518121.49849  -7389494.96645  24096281.401    24096288.387
 03  4  3  2 44 30.0000000  0  8G11G14G31G25G 3G15G23G18
  22556755.693    -8662948.55949  -1037271.87044  22556755.034    22556761.454
  20791157.712   -25739481.99549 -20044664.11948  20791156.972    20791162.048
  23563707.883      200093.57449    351364.83146  23563707.075    23563715.707
  22103890.457   -15577342.06549 -11440445.53147  22103890.015    22103896.619
  24232902.536    -1520379.48149  -1163383.04545  24232901.959    24232913.239
  23775063.923    -9443476.42149  -7349767.22445  23775062.627    23775070.222
  24702157.535    -2528277.07449  -1693658.86745  24702156.643    24702164.623
  24110402.708    -9443918.41449  -7331674.35745  24110401.896    24110408.963
 03  4  3  2 45  0.0000000  0  8G11G14G31G25G 3G15G23G18
  22541958.705    -8740705.13349  -1097861.35744  22541958.797    22541964.514
  20800604.362   -25689839.81149 -20005981.87748  20800603.632    20800608.446
  23577118.697      270568.78649    406280.56846  23577118.021    23577126.790
  22088549.927   -15657957.64549 -11503262.74847  22088549.406    22088555.833
  24249054.339    -1435504.01449  -1097246.45645  24249053.748    24249064.725
  23795990.119    -9333508.74349  -7264078.14745  23795988.700    23795996.373
  24714454.928    -2463653.41349  -1643302.78345  24714454.119    24714461.998
  24124541.160    -9369620.24249  -7273779.61845  24124540.597    24124547.602
 03  4  3  2 45 30.0000000  0  8G11G14G31G25G 3G15G23G18
  22527224.468    -8818134.94849  -1158196.21045  22527224.167    22527230.416
  20810111.449   -25639879.93049 -19967052.08748  20810110.710    20810115.372
  23590576.546      341287.79549    461386.22246  23590575.733    23590584.238
  22073268.832   -15738260.08849 -11565835.96947  22073268.275    22073274.751
  24265207.601    -1350619.81649  -1031103.03945  24265206.927    24265217.613
  23816948.620    -9223368.87349  -7178254.90645  23816947.481    23816955.243
  24726766.599    -2398953.83549  -1592887.50545  24726765.907    24726774.257
  24138697.917    -9295228.07049  -7215811.66145  24138697.307    24138703.996
 03  4  3  2 46  0.0000000  0  8G11G14G31G25G 3G15G23G18
  22512552.787    -8895235.87249  -1218274.82645  22512552.295    22512558.446
  20819678.625   -25589604.35049 -19927876.31448  20819677.867    20819682.408
  23604080.038      412247.34049    516679.34146  23604079.175    23604087.463
  22058047.737   -15818246.59249 -11628163.01147  22058047.182    22058053.884
  24281361.614    -1265729.60949   -964954.93445  24281361.053    24281371.963
  23837939.951    -9113059.01049  -7092299.17345  23837938.728    23837946.566
  24739092.917    -2334178.10849  -1542412.85945  24739092.303    24739100.857
  24152872.380    -9220742.10649  -7157770.67645  24152871.674    24152877.821
 03  4  3  2 46 30.0000000  0  8G11G14G31G25G 3G15G23G18
  22497943.517    -8972004.62849  -1278094.50645  22497942.929    22497950.094
  20829305.602   -25539014.23649 -19888455.43748  20829304.892    20829309.417
  23617628.849      483445.61249    572158.45446  23617627.877    23617636.180
  22042887.290   -15897913.84049 -11690241.29047  22042886.877    22042893.570
  24297516.861    -1180835.18749   -898803.58745  24297515.919    24297527.198
  23858963.509    -9002579.86249  -7006211.56345  23858962.245    23858970.163
  24751433.838    -2269324.63449  -1491877.64345  24751433.379    24751442.500
  24167064.844    -9146161.13549  -7099655.64445  24167064.090    24167069.994
 03  4  3  2 47  0.0000000  0  8G11G14G31G25G 3G15G23G18
  22483398.273    -9048437.95549  -1337652.86845  22483397.888    22483405.490
  20838992.237   -25488110.66949 -19848790.30348  20838991.516    20838996.004
  23631222.246      554880.36149    627821.86546  23631221.317    23631229.914
  22027788.456   -15977258.54849 -11752068.21847  22027788.070    22027794.560
  24313672.309    -1095938.68549   -832650.58845  24313671.266    24313682.268
  23880018.502    -8891932.94749  -6919993.17845  23880017.368    23880025.671
  24763790.004    -2204392.38749  -1441281.07345  24763789.815    24763798.486
  24181274.869    -9071484.33049  -7041465.87645  24181274.174    24181280.750
 03  4  3  2 47 30.0000000  0  8G11G14G31G25G 3G15G23G18
  22468917.662    -9124533.83349  -1396948.28845  22468917.391    22468925.022
  20848738.142   -25436895.63349 -19808882.45648  20848737.409    20848741.875
  23644860.084      626548.78749    683667.35746  23644859.255    23644867.916
  22012751.554   -16056277.98049 -11813641.69447  22012751.090    22012757.428
  24329827.201    -1011042.77049   -766498.06845  24329826.232    24329837.312
  23901105.144    -8781120.02449  -6833645.47145  23901104.220    23901112.859
  24776161.365    -2139380.95349  -1390622.82045  24776161.090    24776169.827
  24195503.018    -8996711.32149  -6983201.15045  24195502.443    24195509.693
 03  4  3  2 48  0.0000000  0  7G11G14G31G25G 3G15G18
  22454501.748    -9200292.70049  -1455981.11745  22454501.450    22454508.493
  20858542.244   -25385374.57449 -19768736.15848  20858541.502    20858546.047
  23658541.423      698444.32149    739689.81746  23658540.494    23658549.121
  21997776.195   -16134972.98349 -11874962.38447  21997775.747    21997782.098
  24345981.187     -926153.26649   -700350.51145  24345980.229    24345990.943
  23922222.806    -8670146.72749  -6747172.80845  23922221.840    23922230.432
  24209748.479    -8921845.97449  -6924864.42445  24209748.101    24209756.197
 03  4  3  2 48 30.0000000  0  7G11G14G31G25G 3G15G18
  22440150.929    -9275711.55249  -1514749.00245  22440150.347    22440156.680
  20868404.306   -25333548.60849 -19728352.26348  20868403.565    20868408.206
  23672265.436      770564.93849    795887.66946  23672264.553    23672273.340
  21982863.378   -16213340.22949 -11936027.65847  21982862.851    21982869.221
  24362133.335     -841272.21849   -634209.60745  24362132.636    24362143.095
  23943370.783    -8559014.16449  -6660576.00245  23943369.750    23943378.143
  24224012.874    -8846887.21349  -6866454.97945  24224012.304    24224020.458
 03  4  3  2 49  0.0000000  0  7G11G14G31G25G 3G15G18
  22425864.360    -9350786.55349  -1573248.89745  22425863.728    22425870.409
  20878324.227   -25281418.31149 -19687731.23247  20878323.508    20878328.301
  23686031.879      842909.12949    852259.73445  23686031.122    23686040.010
  21968013.573   -16291375.67649 -11996834.40447  21968013.021    21968019.410
  24378283.728     -756401.03749   -568076.38445  24378283.146    24378293.877
  23964548.924    -8447723.05149  -6573855.66545  23964547.989    23964556.236
  24238295.511    -8771833.47649  -6807971.55245  24238294.996    24238302.716
 03  4  3  2 49 30.0000000  0  7G11G14G31G25G 3G15G18
  22411643.546    -9425514.63349  -1631478.49045  22411643.193    22411650.109
  20888301.863   -25228985.17349 -19646874.21547  20888301.120    20888305.967
  23699840.581      915474.31749    908803.99745  23699839.872    23699848.628
  21953227.393   -16369076.32449 -12057380.27647  21953226.888    21953233.245
  24394432.176     -671541.76649   -501952.41645  24394431.606    24394442.487
  23985757.062    -8336274.82749  -6487012.94445  23985756.086    23985764.159
  24252596.370    -8696684.00249  -6749413.47345  24252595.736    24252602.558
 03  4  3  2 50  0.0000000  0  7G11G14G31G25G 3G15G18
  22397489.204    -9499894.20349  -1689436.52445  22397488.782    22397496.059
  20898336.764   -25176251.28449 -19605782.85048  20898336.033    20898340.921
  23713690.916      988257.29449    965517.94845  23713690.073    23713698.719
  21938505.513   -16446439.94549 -12117663.51747  21938505.049    21938511.424
  24410577.354     -586697.41049   -435840.02545  24410576.859    24410588.095
  24006994.775    -8224671.83649  -6400049.59445  24006993.694    24007001.619
  24266915.246    -8621439.17749  -6690781.15845  24266914.465    24266920.915
 03  4  3  2 50 30.0000000  0  7G11G14G31G25G 3G15G18
  22383402.099    -9573922.75449  -1747121.01845  22383401.673    22383408.934
  20908428.610   -25123218.78049 -19564458.80248  20908427.856    20908432.738
  23727581.917     1061255.16049   1022399.37045  23727581.127    23727589.800
  21923848.338   -16523464.01149 -12177682.15847  21923847.866    21923854.171
  24426719.388     -501870.62249   -369741.37145  24426718.823    24426730.707
  24028261.200    -8112916.22449  -6312967.33345  24028260.001    24028268.060
  24281251.983    -8546098.99249  -6632074.53245  24281250.949    24281257.254
 03  4  3  2 51  0.0000000  0  7G11G14G31G25G 3G15G18
  22369382.683    -9647597.72549  -1804530.10545  22369382.237    22369389.030
  20918576.957   -25069889.37449 -19522903.40948  20918576.181    20918581.017
  23741513.273     1134465.07049   1079446.00745  23741512.503    23741521.233
  21909256.283   -16600145.68049 -12237434.01647  21909255.788    21909262.004
  24442857.965     -417064.15249   -303658.56645  24442857.222    24442869.053
  24049555.996    -8001009.92749  -6225767.63345  24049554.870    24049563.170
  24295606.866    -8470663.15249  -6573293.31445  24295606.221    24295612.545
 03  4  3  2 51 30.0000000  0  7G11G14G31G25G 3G15G18
  22355431.012    -9720917.66249  -1861662.44945  22355430.377    22355436.874
  20928781.154   -25016266.14149 -19481119.04148  20928780.407    20928785.183
  23755484.471     1207882.99249   1136654.75145  23755483.481    23755492.207
  21894729.591   -16676483.33549 -12296917.80347  21894729.045    21894735.447
  24458991.659     -332281.68549   -237594.41645  24458990.834    24459002.830
  24070878.895    -7888955.80149  -6138452.71945  24070878.046    24070886.539
  24309980.174    -8395132.66849  -6514438.38045  24309979.611    24309985.828
 03  4  3  2 52  0.0000000  0  7G11G14G31G25G 3G15G18
  22341546.919    -9793880.72549  -1918516.70545  22341546.259    22341552.349
  20939040.688   -24962351.63249 -19439107.70648  20939039.994    20939044.810
  23769494.311     1281505.39349   1194022.79545  23769493.371    23769502.056
  21880268.479   -16752475.34049 -12356132.27647  21880268.046    21880274.637
  24475120.024     -247526.28249   -171551.37745  24475119.347    24475131.330
  24092230.012    -7776756.42849  -6051024.66245  24092229.048    24092237.813
  24324371.425    -8319508.09749  -6455510.12645  24324370.777    24324376.971
 03  4  3  2 52 30.0000000  0  7G11G14G31G25G 3G15G18
  22327730.952    -9866484.39149  -1975090.94745  22327730.145    22327736.202
  20949355.498   -24908147.23649 -19396870.49948  20949354.794    20949359.589
  23783542.714     1355329.95049   1251548.38146  23783541.797    23783550.471
  21865873.861   -16828118.60449 -12415074.98747  21865873.461    21865880.077
  24491243.041     -162799.86649   -105530.89245  24491242.415    24491254.312
  24113607.959    -7664413.24049  -5963484.55145  24113607.087    24113616.587
  24338780.747    -8243788.37549  -6396507.75245  24338780.093    24338786.332
 03  4  3  2 53  0.0000000  0  7G11G14G31G25G 3G15G18
  22313983.637    -9938724.40449  -2031381.79445  22313982.881    22313989.212
  20959725.273   -24853653.56549 -19354407.89348  20959724.575    20959729.436
  23797629.268     1429355.14349   1309230.30846  23797628.324    23797637.086
  21851546.673   -16903409.05749 -12473742.77047  21851546.209    21851552.652
  24507360.486      -78103.90049    -39534.16445  24507359.926    24507371.825
  24135013.260    -7551926.95949  -5875832.88945  24135012.119    24135022.230
  24353208.060    -8167972.15749  -6337430.12145  24353207.417    24353213.631
 03  4  3  2 53 30.0000000  0  7G11G14G31G25G 3G15G18
  22300306.405   -10010598.57349  -2087387.57045  22300305.710    22300311.962
  20970149.709   -24798872.49349 -19311721.33248  20970149.008    20970153.969
  23811753.501     1503577.92549   1367066.19045  23811752.577    23811761.134
  21837287.032   -16978344.53949 -12532133.96147  21837286.501    21837292.833
  24523471.683        6558.91749     26436.66045  24523470.914    24523482.643
  24156445.319    -7439299.80149  -5788071.46845  24156444.381    24156454.503
  24367653.352    -8092059.74649  -6278277.55845  24367652.646    24367659.615
 03  4  3  2 54  0.0000000  0  7G11G14G31G25G 3G15G18
  22286699.118   -10082105.22949  -2143106.97245  22286698.440    22286704.685
  20980628.316   -24743806.75549 -19268812.94548  20980627.614    20980632.640
  23825914.443     1577994.65549   1425053.20745  23825913.644    23825922.054
  21823095.167   -17052922.88349 -12590246.86747  21823094.656    21823101.100
  24539575.849       91185.31949     92379.19945  24539575.225    24539586.087
  24177904.346    -7326534.28549  -5700202.24545  24177903.355    24177912.734
  24382116.112    -8016051.64149  -6219050.42345  24382115.454    24382123.467
 03  4  3  2 54 30.0000000  0  7G11G14G31G25G 3G15G18
  22273162.324   -10153242.40149  -2198538.46745  22273161.610    22273167.649
  20991160.715   -24688458.39249 -19225684.33548  20991160.022    20991165.043
  23840111.609     1652602.10949   1483188.85045  23840110.894    23840119.322
  21808971.548   -17127142.14049 -12648079.97847  21808971.074    21808977.584
  24555672.432      175772.64449    158291.17745  24555671.562    24555682.113
  24199389.005    -7213632.79349  -5612227.09345  24199387.852    24199396.724
  24396597.656    -7939948.12049  -6159748.94944  24396596.749    24396604.700
 03  4  3  2 55  0.0000000  0  7G11G14G31G25G 3G15G18
  22259696.032   -10224009.25449  -2253681.40846  22259695.233    22259700.934
  21001746.316   -24632830.97449 -19182338.27648  21001745.544    21001750.518
  23854344.600     1727395.84349   1541469.66145  23854343.732    23854352.391
  21794916.525   -17201000.85449 -12705632.13347  21794916.094    21794922.569
  24571760.837      260316.32349    224169.23045  24571759.904    24571770.245
  24220898.221    -7100598.78849  -5524148.65645  24220897.153    24220906.190
  24411097.719    -7863750.22148  -6100373.92544  24411096.889    24411104.190
 03  4  3  2 55 30.0000000  0  7G11G14G31G25G 3G15G18
  22246300.617   -10294401.54549  -2308532.45946  22246299.928    22246305.643
  21012384.981   -24576924.51449 -19138774.77648  21012384.219    21012389.194
  23868612.274     1802374.75849   1599894.77145  23868611.464    23868620.503
  21780930.987   -17274495.08149 -12762900.27047  21780930.506    21780936.891
  24587840.262      344815.67049    290012.64345  24587839.533    24587850.083
  24242432.412    -6987432.47749  -5435967.11245  24242431.516    24242440.796
  24425615.095    -7787456.15049  -6040924.05644  24425614.609    24425622.416
 03  4  3  2 56  0.0000000  0  7G11G14G31G25G 3G15G18
  22232976.948   -10364416.55349  -2363089.52645  22232976.251    22232981.950
  21023076.465   -24520740.43049 -19094994.95448  21023075.658    21023080.674
  23882914.846     1877536.27249   1658462.16945  23882914.122    23882923.167
  21767015.281   -17347622.32149 -12819882.45247  21767014.839    21767020.999
  24603911.221      429268.48249    355819.84545  24603910.427    24603920.929
  24263992.013    -6874135.54849  -5347683.79545  24263991.149    24264000.293
  24440151.830    -7711065.52149  -5981398.82345  24440151.514    24440159.719
 03  4  3  2 56 30.0000000  0  7G11G14G31G25G 3G15G18
  22219724.720   -10434055.97349  -2417353.95645  22219724.135    22219729.819
  21033819.570   -24464284.82749 -19051003.56148  21033818.830    21033823.801
  23897251.346     1952873.60549   1717166.56245  23897250.627    23897259.328
  21753169.276   -17420383.74249 -12876579.57847  21753168.825    21753174.784
  24619971.906      513668.43649    421585.89245  24619971.039    24619982.261
  24285576.147    -6760713.80849  -5259303.26045  24285575.104    24285583.775
  24454707.219    -7634581.89849  -5921801.19045  24454706.767    24454714.490
 03  4  3  2 57  0.0000000  0  7G11G14G31G25G 3G15G18
  22206544.894   -10503317.14649  -2471323.61545  22206544.160    22206549.743
  21044614.179   -24407559.14049 -19006801.71148  21044613.417    21044618.283
  23911621.114     2028384.06949   1776005.84445  23911620.249    23911628.645
  21739393.581   -17492776.29749 -12932989.26847  21739393.031    21739398.887
  24636022.405      598013.25549    487308.95445  24636021.538    24636033.045
  24307183.677    -6647169.29049  -5170827.03145  24307182.537    24307190.569
  24469280.255    -7558005.11949  -5862130.97945  24469279.669    24469286.544
 03  4  3  2 57 30.0000000  0  7G11G14G31G25G 3G15G18
  22193437.593   -10572196.57149  -2524995.80345  22193436.893    22193442.588
  21055460.026   -24350564.24249 -18962390.08648  21055459.269    21055463.966
  23926023.123     2104065.93149   1834978.67545  23926022.209    23926030.598
  21725688.535   -17564796.54749 -12989108.86547  21725687.999    21725693.754
  24652062.171      682301.68649    552988.08945  24652061.411    24652072.907
  24328814.314    -6533502.58049  -5082255.62045  24328813.092    24328820.732
  24483870.733    -7481334.18649  -5802387.38845  24483870.318    24483876.319
 03  4  3  2 58  0.0000000  0  7G11G14G31G25G 3G15G18
  22180403.602   -10640690.92349  -2578367.95445  22180402.917    22180408.592
  21066356.895   -24293301.01249 -18917769.36448  21066356.095    21066360.731
  23940457.187     2179917.10049   1894083.46645  23940456.177    23940464.682
  21712054.978   -17636441.17049 -13044935.74847  21712054.468    21712060.124
  24668090.835      766531.86849    618621.79045  24668090.266    24668101.671
  24350467.835    -6419714.87249  -4993589.89545  24350466.353    24350473.930
  24498479.329    -7404567.87749  -5742569.48745  24498478.586    24498484.002
 03  4  3  2 58 30.0000000  0  7G11G14G31G25G 3G15G18
  22167443.378   -10708797.12549  -2631437.62845  22167442.719    22167448.284
  21077304.413   -24235770.90649 -18872940.69048  21077303.647    21077308.290
  23954923.065     2255935.28849   1953318.37045  23954922.062    23954930.369
  21698493.532   -17707707.39349 -13100467.77947  21698492.956    21698498.454
  24684107.754      850701.77649    684208.54045  24684107.318    24684119.183
  24372143.436    -6305807.52749  -4904830.94145  24372142.038    24372149.643
  24513105.618    -7327705.47449  -5682676.63044  24513104.922    24513110.221
 03  4  3  2 59  0.0000000  0  7G11G14G31G25G 3G15G18
  22154557.439   -10776512.26549  -2684202.60145  22154556.919    22154562.323
  21088302.444   -24177975.21849 -18827905.05947  21088301.663    21088306.385
  23969419.876     2332118.08649   2012681.56645  23969419.057    23969427.472
  21685004.498   -17778592.01949 -13155702.47647  21685003.924    21685009.419
  24700113.070      934809.75449    749747.05045  24700112.638    24700124.516
  24393841.713    -6191782.13049  -4815979.98545  24393840.257    24393847.939
  24527749.905    -7250746.32549  -5622708.47544  24527749.024    24527754.497
 03  4  3  2 59 30.0000000  0  7G11G14G31G25G 3G15G18
  22141746.127   -10843835.35449  -2736662.06245  22141745.708    22141751.124
  21099350.544   -24119916.45449 -18782664.43747  21099349.784    21099354.525
  23983947.247     2408461.74749   2072170.11745  23983946.449    23983954.911
  21671588.330   -17849093.25949 -13210638.41647  21671587.862    21671593.341
  24716105.878     1018852.38149    815234.61345  24716105.337    24716117.609
  24415561.876    -6077641.39549  -4727039.18545  24415560.429    24415568.238
  24542412.766    -7173691.00049  -5562665.36145  24542411.972    24542417.869
 03  4  3  3  0  0.0000000  0  7G11G14G31G25G 3G15G18
  22129010.099   -10910764.72349  -2788814.77545  22129009.485    22129014.541
  21110448.117   -24061597.83149 -18737221.33647  21110447.361    21110452.191
  23998505.156     2484962.36149   2131780.95545  23998504.271    23998512.468
  21658245.494   -17919209.75249 -13265274.56347  21658245.059    21658250.622
  24732085.271     1102825.98949    880668.37445  24732085.003    24732097.227
  24437303.312    -5963388.55149  -4638011.01445  24437302.038    24437309.863
  24557094.094    -7096540.68749  -5502548.24445  24557093.487    24557099.170
 03  4  3  3  0 30.0000000  0  7G11G14G31G25G 3G15G18
  22116348.946   -10977298.81749  -2840659.44345  22116348.321    22116353.126
  21121594.737   -24003021.77249 -18691577.64948  21121594.045    21121598.839
  24013091.993     2561616.11249   2191511.11845  24013091.083    24013099.396
  21644976.132   -17988940.37149 -13319610.03247  21644975.666    21644981.390
  24748051.433     1186727.28649    946045.81345  24748051.090    24748062.860
  24459065.541    -5849026.35949  -4548897.61745  24459064.372    24459072.737
  24571793.742    -7019296.00649  -5442357.55445  24571792.662    24571798.673
 03  4  3  3  1  0.0000000  0  7G11G14G31G25G 3G15G18
  22103763.521   -11043434.73149  -2892193.85545  22103763.003    22103767.667
  21132790.313   -23944189.42049 -18645734.24347  21132789.584    21132794.195
  24027706.936     2638421.11249   2251359.14945  24027706.296    24027715.061
  21631780.725   -18058281.83849 -13373642.26747  21631780.221    21631786.137
  24764003.549     1270554.71449   1011365.60345  24764003.087    24764014.982
  24480848.424    -5734555.91749  -4459699.88245  24480847.302    24480855.705
  24586510.912    -6941955.72249  -5382092.33745  24586509.774    24586516.160
 03  4  3  3  1 30.0000000  0  7G11G14G31G25G 3G15G18
  22091254.272   -11109169.63049  -2943415.75145  22091253.745    22091258.630
  21144034.355   -23885102.02949 -18599692.09247  21144033.580    21144038.126
  24042350.768     2715374.97549   2311323.19445  24042350.167    24042359.281
  21618659.879   -18127231.05949 -13427368.86447  21618659.454    21618665.426
  24779940.748     1354306.37949   1076626.46245  24779940.205    24779952.622
  24502652.106    -5619978.70149  -4370418.94145  24502650.767    24502659.023
  24601245.621    -6864519.21149  -5321752.14845  24601244.992    24601251.728
 03  4  3  3  2  0.0000000  0  5G11G14G31G25G15
  22078820.820   -11174507.44449  -2994328.27345  22078820.490    22078824.901
  21155325.097   -23825768.18449 -18553457.89747  21155324.354    21155328.930
  24057021.401     2792468.18249   2371395.79446  24057020.731    24057029.767
  21605613.116   -18195792.01749 -13480792.91847  21605612.646    21605618.644
  24524474.376    -5505303.54549  -4281061.73345  24524472.791    24524480.634
 03  4  3  3  2 30.0000000  0  5G11G14G31G25G15
  22066464.708   -11239442.54649  -3044927.02844  22066463.906    22066467.951
  21166663.174   -23766185.87949 -18507030.10347  21166662.425    21166667.082
  24071718.707     2869701.40549   2431577.48146  24071717.946    24071726.905
  21592641.213   -18263959.21349 -13533910.14347  21592640.776    21592646.824
  24546315.540    -5390528.62249  -4191626.75445  24546313.990    24546321.227
 03  4  3  3  3  0.0000000  0  5G11G14G31G25G15
  22054185.734   -11303968.54749  -3095206.96944  22054185.323    22054188.703
  21178048.916   -23706352.97849 -18460407.05247  21178048.172    21178052.939
  24086442.747     2947075.95449   2491869.30545  24086442.002    24086450.731
  21579745.632   -18331725.96749 -13586715.32847  21579745.173    21579751.154
  24568176.107    -5275651.86649  -4102112.44345  24568174.517    24568181.251
 03  4  3  3  3 30.0000000  0  5G11G14G31G25G15
  22041985.292   -11368083.44149  -3145166.54144  22041984.943    22041988.139
  21189481.973   -23646271.66449 -18413590.43647  21189481.287    21189486.057
  24101193.069     3024588.36649   2552268.54845  24101192.192    24101200.795
  21566926.705   -18399090.44149 -13639207.04947  21566926.187    21566932.075
  24590055.351    -5160675.56949  -4012520.56145  24590053.830    24590060.387
 03  4  3  3  4  0.0000000  0  5G11G14G31G25G15
  22029863.148   -11431785.78449  -3194804.70144  22029862.435    22029866.264
  21200961.900   -23585944.86549 -18366582.52947  21200961.190    21200965.831
  24115968.819     3102234.85849   2612772.29445  24115967.734    24115976.351
  21554184.481   -18466051.45849 -13691384.38747  21554183.939    21554189.809
  24611952.986    -5045602.87949  -3922853.56545  24611951.490    24611958.388
 03  4  3  3  4 30.0000000  0  5G11G14G31G25G15
  22017818.885   -11495074.51848  -3244120.47944  22017818.131
  21212487.995   -23525375.15349 -18319385.32747  21212487.231    21212491.778
  24130769.131     3180011.84349   2673377.68745  24130768.137    24130776.684
  21541519.356   -18532607.13849 -13743245.88347  21541518.887    21541524.718
  24633868.251    -4930436.49149  -3833113.55945  24633866.790    24633874.406
 03  4  3  3  5  0.0000000  0  5G11G14G31G25G15
  22005854.492   -11557946.98748  -3293111.94844  22005853.725    22005857.905
  21224059.932   -23464563.99749 -18271999.99147  21224059.190    21224063.655
  24145593.855     3257916.71049   2734082.73345  24145592.934    24145601.126
  21528931.918   -18598754.94749 -13794789.55747  21528931.431    21528937.172
  24655801.196    -4815178.15349  -3743301.91245  24655799.615    24655807.712
 03  4  3  3  5 30.0000000  0  5G11G14G31G25G15
  21993969.849   -11620402.02048  -3341778.16744  21993968.914    21993973.665
  21235677.234   -23403514.50449 -18224428.93747  21235676.497    21235680.915
  24160442.330     3335945.37549   2794884.23445  24160441.364    24160449.335
  21516422.120   -18664493.80249 -13846014.57047  21516421.602    21516427.448
  24677750.933    -4699831.12849  -3653421.12945  24677749.451    24677757.793
 03  4  3  3  6  0.0000000  0  4G11G14G31G25
  21982162.707   -11682446.34448  -3390124.28344  21982161.988    21982167.427
  21247337.838   -23342237.43149 -18176680.56447  21247337.065    21247341.489
  24175311.911     3414085.88949   2855772.92245  24175311.020    24175319.036
  21503988.688   -18729830.61849 -13896926.30647  21503988.229    21503994.117
 03  4  3  3  6 30.0000000  0  4G11G14G31G25
  21970435.916   -11744069.34949  -3438142.09944  21970435.383    21970441.424
  21259042.999   -23280726.35749 -18128749.84547  21259042.251    21259046.594
  24190203.806     3492343.67649   2916752.97745  24190203.030    24190210.869
  21491633.949   -18794754.72249 -13947516.43947  21491633.512    21491639.225
 03  4  3  3  7  0.0000000  0  4G11G14G31G25
  21958792.025   -11805261.08149  -3485823.93545  21958791.474    21958797.072
  21270793.890   -23218974.84049 -18080631.76447  21270793.166    21270797.438
  24205119.053     3570724.14949   2977828.61845  24205118.355    24205126.218
  21479359.837   -18859255.48849 -13997776.69947  21479359.349    21479364.905
 03  4  3  3  7 30.0000000  0  4G11G14G31G25
  21947229.266   -11866023.92949  -3533171.58045  21947228.680    21947234.223
  21282589.327   -23156989.68849 -18032331.62647  21282588.580    21282592.835
  24220056.373     3649219.32549   3038993.64845  24220055.615    24220063.336
  21467165.513   -18923335.96349 -14047709.46247  21467165.151    21467170.614
 03  4  3  3  8  0.0000000  0  4G11G14G31G25
  21935747.228   -11926360.73649  -3580187.18345  21935747.038    21935752.478
  21294427.757   -23094777.77249 -17983854.79847  21294427.005    21294431.377
  24235013.938     3727821.25749   3100241.86445  24235013.010    24235021.064
  21455050.938   -18986998.99749 -14097316.93447  21455050.418    21455055.815
 03  4  3  3  8 30.0000000  0  4G11G14G31G25
  21924348.937   -11986261.27449  -3626862.85145  21924348.549    21924353.786
  21306310.619   -23032332.34649 -17935196.01947  21306309.879    21306314.354
  24249992.735     3806535.59149   3161577.68945  24249991.830    24250000.210
  21443017.679   -19050233.87649 -14146590.80347  21443017.188    21443022.599
 03  4  3  3  9  0.0000000  0  4G11G14G31G25
  21913032.536   -12045730.28949  -3673202.30545  21913032.123    21913037.130
  21318236.322   -22969662.58249 -17886362.41947  21318235.602    21318240.052
  24264991.023     3885352.29049   3222993.29845  24264990.197    24264999.015
  21431064.935   -19113045.95449 -14195535.21347  21431064.453    21431069.819
 03  4  3  3  9 30.0000000  0  4G11G14G31G25
  21901798.190   -12104766.67949  -3719204.63245  21901797.791    21901802.809
  21330204.183   -22906771.40349 -17837356.28847  21330203.457    21330207.846
  24280008.140     3964267.23749   3284485.42845  24280007.230    24280016.233
  21419192.992   -19175433.96849 -14244149.17647  21419192.442    21419197.703
 03  4  3  3 10  0.0000000  0  4G11G14G31G25
  21890646.659   -12163368.93949  -3764868.69745  21890646.181    21890651.241
  21342213.697   -22843661.42749 -17788179.66347  21342212.963    21342217.343
  24295043.269     4043276.76449   3346051.28045  24295042.224    24295051.385
  21407401.828   -19237396.34749 -14292431.47847  21407401.315    21407406.564
 03  4  3  3 10 30.0000000  0  4G11G14G31G25
  21879578.675   -12221532.08749  -3810190.60045  21879578.004    21879583.048
  21354265.120   -22780331.09649 -17738831.33747  21354264.311    21354268.726
  24310096.040     4122381.32849   3407691.16645  24310095.141    24310104.242
  21395692.573   -19298928.19549 -14340378.29947  21395692.101    21395697.364
 03  4  3  3 11  0.0000000  0  4G11G14G31G25
  21868593.885   -12279255.45149  -3855169.80445  21868593.329    21868598.500
  21366357.687   -22716783.67349 -17689313.85547  21366356.929    21366361.399
  24325166.271     4201576.47249   3469401.63645  24325165.418    24325174.336
  21384065.481   -19360028.78449 -14387989.08947  21384064.950    21384070.293
 03  4  3  3 11 30.0000000  0  4G11G14G31G25
  21857693.027   -12336538.58849  -3899805.96945  21857692.524    21857697.864
  21378490.978   -22653022.93249 -17639630.15047  21378490.179    21378494.671
  24340252.962     4280857.61749   3531179.12245  24340252.104    24340261.028
  21372520.580   -19420697.51149 -14435263.35547  21372520.052    21372525.482
 03  4  3  3 12  0.0000000  0  4G11G14G31G25
  21846877.273   -12393377.01449  -3944095.61745  21846876.602    21846881.833
  21390665.016   -22589048.10349 -17589779.61547  21390664.191    21390668.683
  24355356.073     4360224.26449   3593023.20445  24355355.317    24355364.093
  21361058.708   -19480930.15349 -14482197.81547  21361058.197    21361063.507
 03  4  3  3 12 30.0000000  0  4G11G14G31G25
  21836146.216   -12449769.87749  -3988038.09545  21836145.331    21836150.458
  21402879.171   -22524862.04449 -17539764.49847  21402878.356    21402882.897
  24370474.918     4439672.43849   3654930.81645  24370474.131    24370482.511
  21349679.979   -19540725.95249 -14528791.87047  21349679.435    21349684.711
 03  4  3  3 13  0.0000000  0  4G11G14G31G25
  21825499.770   -12505716.19949  -4031632.59345  21825499.052    21825504.101
  21415132.966   -22460467.66249 -17489587.05447  21415132.203    21415136.833
  24385608.420     4519198.07749   3716898.78845  24385607.644    24385615.995
  21338384.342   -19600083.79249 -14575044.67447  21338383.855    21338389.271
 03  4  3  3 13 30.0000000  0  4G11G14G31G25
  21814938.556   -12561214.60749  -4074878.05345  21814937.893    21814943.046
  21427425.967   -22395867.34149 -17439249.13247  21427425.172    21427429.883
  24400755.862     4598797.72849   3778924.45545  24400754.919    24400763.607
  21327172.372   -19659002.04949 -14620954.95347  21327171.936    21327177.431
 03  4  3  3 14  0.0000000  0  4G11G14G31G25
  21804464.279   -12616258.18749  -4117769.12645  21804463.594    21804468.385
  21439758.717   -22331058.12849 -17388748.42747  21439757.905    21439762.665
  24415916.992     4678473.41049   3841009.37345  24415916.363    24415924.942
  21316045.440   -19717474.21249 -14666517.62047  21316044.949    21316050.363
 03  4  3  3 14 30.0000000  0  4G11G14G31G25
  21794076.653   -12670845.69849  -4160304.79645  21794075.777    21794080.455
  21452130.662   -22266042.54049 -17338086.91347  21452129.900    21452134.563
  24431092.374     4758221.38949   3903150.55245  24431091.777    24431100.114
  21305003.574   -19775498.91649 -14711731.62547  21305003.123    21305008.584
 03  4  3  3 15  0.0000000  0  4G11G14G31G25
  21783774.856   -12724979.64149  -4202487.03346  21783774.196    21783778.994
  21464540.740   -22200826.87049 -17287269.49147  21464540.018    21464544.555
  24446280.612     4838034.32449   3965342.39845  24446279.722    24446287.908
  21294046.507   -19833078.91449 -14756599.10047  21294046.088    21294051.495
 03  4  3  3 15 30.0000000  0  4G11G14G31G25
  21773560.510   -12778657.17849  -4244313.64746  21773559.798    21773564.313
  21476988.750   -22135412.11749 -17236296.94747  21476988.000    21476992.467
  24461480.709     4917910.29249   4027583.33845  24461479.740    24461488.407
  21283174.767   -19890211.37949 -14801117.83847  21283174.295    21283179.542
 03  4  3  3 16  0.0000000  0  4G11G14G31G25
  21763433.435   -12831874.62649  -4285781.73046  21763432.780    21763437.235
  21489474.707   -22069798.27849 -17185169.26447  21489473.957    21489478.350
  24476692.378     4997847.87249   4089872.35145  24476691.459    24476700.445
  21272388.745   -19946892.49649 -14845284.88447  21272388.212    21272393.535
 03  4  3  3 16 30.0000000  0  4G11G14G31G25
  21753393.986   -12884631.22449  -4326890.70246  21753393.449    21753397.960
  21501997.971   -22003988.22949 -17133888.69447  21501997.207    21502001.539
  24491914.857     5077843.26849   4152206.40445  24491914.110    24491923.335
  21261688.605   -20003121.39649 -14889099.56447  21261688.110    21261693.613
 03  4  3  3 17  0.0000000  0  4G11G14G31G25
  21743442.716   -12936925.35349  -4367639.31546  21743442.079    21743446.725
  21514558.153   -21937984.12949 -17082456.90947  21514557.402    21514561.726
  24507148.421     5157893.31249   4214583.00445  24507147.504    24507156.636
  21251074.818   -20058896.82549 -14932560.89147  21251074.347    21251079.892
 03  4  3  3 17 30.0000000  0  4G11G14G31G25
  21733579.414   -12988755.76449  -4408026.59546  21733579.046    21733583.759
  21527154.752   -21871788.26749 -17030875.69847  21527153.991    21527158.383
  24522391.476     5237994.39249   4276999.38845  24522390.393    24522399.373
  21240547.524   -20114217.73049 -14975668.03547  21240547.016    21240552.531
 03  4  3  3 18  0.0000000  0  4G11G14G31G25
  21723805.641   -13040118.64349  -4448049.56446  21723805.122    21723809.772
  21539788.015   -21805400.49049 -16979144.94647  21539787.216    21539791.563
  24537643.605     5318145.59949   4339454.80945  24537642.504    24537651.488
  21230107.405   -20169080.35349 -15018418.08647  21230106.893    21230112.325
 03  4  3  3 18 30.0000000  0  4G11G14G31G25
  21714121.398   -13091010.59249  -4487705.59346  21714120.837    21714125.317
  21552457.667   -21738821.17849 -16927264.95547  21552456.854    21552461.140
  24552904.816     5398345.43449   4401948.16045  24552903.759    24552913.035
  21219755.175   -20223481.28849 -15060808.37247  21219754.669    21219760.192
 03  4  3  3 19  0.0000000  0  4G11G14G31G25
  21704526.837   -13141431.17749  -4526994.32346  21704526.130    21704530.594
  21565163.163   -21672053.32849 -16875238.05347  21565162.349    21565166.597
  24568174.644     5478589.60649   4464476.05745  24568173.588    24568182.992
  21209491.011   -20277420.07749 -15102838.55547  21209490.465    21209495.857
 03  4  3  3 19 30.0000000  0  4G11G14G31G25
  21695021.549   -13191379.83449  -4565915.29546  21695021.030    21695025.645
  21577903.891   -21605100.15649 -16823066.73947  21577903.099    21577907.360
  24583452.214     5558874.10749   4527035.34945  24583451.261    24583460.672
  21199314.888   -20330896.21949 -15144508.20847  21199314.320    21199319.519
 03  4  3  3 20  0.0000000  0  4G11G14G31G25
  21685607.060   -13240854.58449  -4604467.03846  21685606.437    21685610.729
  21590679.564   -21537963.39349 -16770752.35547  21590678.764    21590683.052
  24598736.882     5639196.22049   4589623.96645  24598736.099    24598745.342
  21189227.032   -20383908.23749 -15185816.20547  21189226.424    21189231.459
 03  4  3  3 20 30.0000000  0  5G11G20G14G31G25
  21676282.995   -13289854.24249  -4642648.55346  21676282.263    21676286.287
  24719103.707    -3207330.59749  -2489007.46645  24719102.451    24719110.699
  21603489.742   -21470645.05949 -16718296.49547  21603488.946    21603493.340
  24614028.452     5719552.43949   4652239.16045  24614027.653    24614036.287
  21179227.689   -20436454.57649 -15226761.34747  21179227.146    21179232.132
 03  4  3  3 21  0.0000000  0  5G11G20G14G31G25
  21667049.249   -13338377.23649  -4680458.63446  21667048.564    21667052.614
  24702776.456    -3293131.89049  -2555865.56545  24702775.234    24702783.188
  21616333.951   -21403147.51249 -16665700.98847  21616333.254    21616337.745
  24629326.049     5799939.55149   4714878.37245  24629324.963    24629333.080
  21169317.242   -20488533.98749 -15267342.65248  21169316.727    21169321.803
 03  4  3  3 21 30.0000000  0  5G11G20G14G31G25
  21657906.598   -13386421.58949  -4717895.76946  21657905.924    21657909.968
  24686443.042    -3378965.35449  -2622748.74845  24686441.782    24686449.522
  21629212.280   -21335471.93349 -16612966.76247  21629211.548    21629216.067
  24644628.652     5880355.12249   4777539.74245  24644627.618    24644635.678
  21159496.219   -20540144.19349 -15307558.34248  21159495.676    21159500.814
 03  4  3  3 22  0.0000000  0  5G11G20G14G31G25
  21648855.651   -13433984.62849  -4754957.82346  21648854.990    21648858.941
  24670103.271    -3464829.68349  -2689656.01545  24670102.084    24670109.984
  21642124.365   -21267619.29549 -16560094.57147  21642123.549    21642127.972
  24659935.995     5960797.01349   4840221.69645  24659935.132    24659943.483
  21149764.902   -20591282.68249 -15347406.45948  21149764.323    21149769.485
 03  4  3  3 22 30.0000000  0  5G11G20G14G31G25
  21639896.831   -13481063.46649  -4791642.60746  21639896.172    21639900.085
  24653758.067    -3550723.18049  -2756585.99345  24653756.979    24653765.011
  21655069.961   -21199589.96749 -16507084.70047  21655069.157    21655073.434
  24675247.955     6041263.65649   4902922.92645  24675247.302    24675256.429
  21140123.720   -20641946.92149 -15386885.02247  21140123.167    21140128.197
 03  4  3  3 23  0.0000000  0  5G11G20G14G31G25
  21631029.973   -13527658.22949  -4827950.17546  21631029.360    21631033.489
  24637407.235    -3636647.29249  -2823539.78845  24637406.208    24637414.153
  21668048.427   -21131387.72549 -16453940.09047  21668047.563    21668051.830
  24690564.230     6121750.21349   4965639.69245  24690563.518    24690572.697
  21130572.719   -20692136.94149 -15425994.08647  21130572.249    21130577.167
 03  4  3  3 23 30.0000000  0  5G11G20G14G31G25
  21622255.405   -13573767.64549  -4863879.53846  21622254.775    21622259.158
  24621051.008    -3722602.05149  -2890517.44745  24621049.842    24621057.459
  21681059.225   -21063015.04049 -16400662.67147  21681058.356    21681062.671
  24705883.566     6202253.36149   5028369.34545  24705882.883    24705892.107
  21121112.157   -20741852.09649 -15464733.08747  21121111.699    21121116.727
 03  4  3  3 24  0.0000000  0  5G11G20G14G31G25
  21613573.818   -13619389.71249  -4899429.17446  21613573.144    21613577.537
  24604688.503    -3808586.21349  -2957518.00045  24604687.480    24604695.063
  21694102.274   -20994472.88749 -16347253.17247  21694101.476    21694105.769
  24721205.805     6282770.79649   5091110.15645  24721204.886    24721214.267
  21111742.404   -20791090.10749 -15503100.31147  21111741.935    21111747.045
 03  4  3  3 24 30.0000000  0  5G11G20G14G31G25
  21604985.632   -13664521.22549  -4934596.53746  21604984.890    21604989.280
  24588320.843    -3894597.74149  -3024539.83745  24588319.940    24588327.390
  21707177.500   -20925761.46549 -16293711.75547  21707176.714    21707180.997
  24736530.445     6363301.07849   5153860.95145  24736529.586    24736538.882
  21102464.042   -20839847.74749 -15541093.22948  21102463.608    21102468.716
 03  4  3  3 25  0.0000000  0  5G11G20G14G31G25
  21596490.684   -13709162.05749  -4969381.58346  21596490.071    21596494.381
  24571948.318    -3980637.82649  -3091583.90645  24571947.234    24571954.389
  21720284.243   -20856884.50749 -16240041.37447  21720283.461    21720287.850
  24751856.620     6443839.62749   5216618.16045  24751855.667    24751864.747
  21093277.215   -20888125.37949 -15578712.10548  21093276.738    21093281.714
 03  4  3  3 25 30.0000000  0  5G11G20G14G31G25
  21588089.531   -13753310.34449  -5003782.81346  21588088.917    21588093.188
  24555570.434    -4066705.01849  -3158649.09545  24555569.214    24555576.276
  21733422.349   -20787842.66049 -16186242.51847  21733421.615    21733426.124
  24767183.713     6524384.33649   5279380.14345  24767182.836    24767191.581
  21084182.200   -20935920.66149 -15615955.11348  21084181.694    21084186.418
 03  4  3  3 26  0.0000000  0  5G11G20G14G31G25
  21579782.496   -13796964.18449  -5037798.75546  21579781.848    21579786.206
  24539187.078    -4152799.05949  -3225735.21645  24539185.915    24539193.126
  21746591.630   -20718637.81749 -16132316.65747  21746590.838    21746595.313
  24782511.682     6604932.14749   5342144.60645  24782510.694    24782519.168
  21075179.063   -20983232.44349 -15652821.37348  21075178.518    21075183.246
 03  4  3  3 26 30.0000000  0  5G11G20G14G31G25
  21571569.809   -13840121.67149  -5071427.93946  21571569.174    21571573.688
  24522798.799    -4238918.99749  -3292841.53945  24522797.591    24522805.101
  21759791.517   -20649271.72749 -16078265.14747  21759790.780    21759795.141
  24797839.362     6685480.53749   5404909.47445  24797838.304    24797847.076
  21066268.132   -21030058.79649 -15689309.39748  21066267.597    21066272.420
 03  4  3  3 27  0.0000000  0  5G11G20G14G31G25
  21563451.826   -13882781.46049  -5104669.31146  21563451.223    21563455.766
  24506405.794    -4325064.66449  -3359967.90545  24506404.510    24506412.209
  21773021.892   -20579745.92949 -16024089.19247  21773021.141    21773025.360
  24813166.702     6766026.71649   5467672.63245  24813165.703    24813174.508
  21057449.900   -21076398.41149 -15725418.13948  21057449.341    21057454.159
 03  4  3  3 27 30.0000000  0  5G11G20G14G31G25
  21555428.888   -13924942.16249  -5137521.78546  21555428.278    21555432.722
  24490007.869    -4411235.38149  -3427113.77945  24490006.662    24490014.469
  21786282.351   -20510062.16849 -15969790.13647  21786281.601    21786285.688
  24828493.005     6846567.62849   5530431.69845  24828492.232    24828500.991
  21048724.584   -21122249.81649 -15761146.45148  21048724.022    21048728.846
 03  4  3  3 28  0.0000000  0  5G11G20G14G31G25
  21547501.144   -13966602.32249  -5169984.21446  21547500.506    21547505.014
  24473605.425    -4497430.76049  -3494278.88145  24473604.306    24473611.983
  21799572.544   -20440222.45249 -15915369.55447  21799571.760    21799575.807
  24843817.806     6927100.24049   5593184.27945  24843817.034    24843826.105
  21040092.251   -21167612.11849 -15796493.65748  21040091.738    21040096.633
 03  4  3  3 28 30.0000000  0  5G11G20G14G31G25
  21539668.865   -14007760.92549  -5202055.82347  21539668.288    21539672.874
  24457198.293    -4583650.14849  -3561462.68345  24457197.215    24457204.762
  21812891.950   -20370228.59249 -15860828.88047  21812891.170    21812895.232
  24859140.567     7007621.62249   5655928.12745  24859139.885    24859148.900
  21031553.255   -21212483.91749 -15831458.65448  21031552.769    21031557.732
 03  4  3  3 29  0.0000000  0  5G11G20G14G31G25
  21531932.526   -14048416.21649  -5233735.25947  21531931.934    21531936.369
  24440786.734    -4669892.99549  -3628664.75145  24440785.636    24440792.990
  21826240.341   -20300082.22849 -15806169.36447  21826239.589    21826243.707
  24874460.768     7088128.99749   5718661.09245  24874460.010    24874469.068
  21023107.950   -21256863.53949 -15866040.13648  21023107.525    21023112.417
 03  4  3  3 29 30.0000000  0  5G11G20G14G31G25
  21524292.266   -14088565.74849  -5265020.54246  21524291.633    21524296.187
  24424371.001    -4756157.98149  -3695884.08945  24424369.801    24424377.230
  21839617.591   -20229784.06749 -15751391.59247  21839616.828    21839621.022
  24889777.652     7168620.46049   5781381.57145  24889776.995    24889786.411
  21014756.763   -21300749.22349 -15900236.73148  21014756.317    21014761.264
 03  4  3  3 30  0.0000000  0  5G11G20G14G31G25
  21516748.303   -14128208.60249  -5295911.02946  21516747.686    21516752.313
  24407950.857    -4842444.97349  -3763120.66245  24407949.828    24407957.170
  21853023.239   -20159336.60849 -15696497.46747  21853022.448    21853026.706
  24905090.918     7249092.39749   5844086.91845  24905090.284    24905100.088
  21006499.725   -21344140.12349 -15934047.78848  21006499.283    21006504.301
 03  4  3  3 30 30.0000000  0  5G11G20G14G31G25
  21509301.218   -14167343.20349  -5326405.48047  21509300.651    21509305.136
  24391527.001    -4928753.22949  -3830373.77345  24391525.938    24391533.188
  21866457.037   -20088741.25449 -15641488.09747  21866456.287    21866460.520
  24920399.749     7329542.36749   5906775.15445  24920399.107    24920409.261
  20998337.135   -21387034.88549 -15967472.23848  20998336.654    20998341.603
 03  4  3  3 31  0.0000000  0  4G11G20G14G25
  21501951.603   -14205966.48649  -5356501.50047  21501950.959    21501955.386
  24375099.585    -5015080.10049  -3897641.42045  24375098.382    24375105.600
  21879919.149   -20017997.85049 -15586363.35747  21879918.308    21879922.624
  20990269.392   -21429430.51549 -16000507.74848  20990269.009    20990273.805
 03  4  3  3 31 30.0000000  0  4G11G20G14G25
  21494700.799   -14244069.72149  -5386192.29847  21494700.179    21494704.457
  24358669.636    -5101417.84149  -3964917.49245  24358668.475    24358676.134
  21893410.514   -19947100.67149 -15531118.78947  21893409.648    21893413.943
  20982298.555   -21471318.13649 -16033147.40948  20982298.107    20982302.774
 03  4  3  3 32  0.0000000  0  4G11G20G14G25
  21487546.644   -14281664.95649  -5415487.26747  21487546.022    21487550.218
  24342235.379    -5187779.37349  -4032212.12245  24342234.252    24342241.743
  21906928.048   -19876064.78549 -15475766.13147  21906927.230    21906931.672
  20974422.031   -21512709.84949 -16065400.66248  20974421.540    20974426.237
 03  4  3  3 32 30.0000000  0  4G11G20G14G25
  21480489.616   -14318749.60849  -5444384.36047  21480488.947    21480493.227
  24325797.194    -5274162.68349  -4099523.70245  24325796.172    24325803.126
  21920471.965   -19804890.75749 -15420305.84547  21920471.124    21920475.657
  20966640.113   -21553603.57949 -16097265.87248  20966639.608    20966644.408
 03  4  3  3 33  0.0000000  0  4G11G20G14G25
  21473530.044   -14355321.92449  -5472882.22247  21473529.475    21473533.769
  24309355.282    -5360566.78349  -4166851.49745  24309354.114    24309360.782
  21934041.986   -19733579.94249 -15364738.95847  21934041.189    21934045.635
  20958953.298   -21593997.61749 -16128741.70848  20958952.799    20958957.692
 03  4  3  3 33 30.0000000  0  4G11G20G14G25
  21466668.667   -14391379.01249  -5500978.62747  21466668.065    21466672.283
  24292909.448    -5446989.36649  -4234193.66045  24292908.351    24292914.929
  21947638.024   -19662132.20249 -15309065.37347  21947637.237    21947641.669
  20951362.270   -21633889.11149 -16159825.94848  20951361.744    20951366.546
 03  4  3  3 34  0.0000000  0  4G11G20G14G25
  21459906.034   -14426916.92949  -5528670.47847  21459905.377    21459909.516
  24276460.350    -5533427.12049  -4301547.70545  24276459.248    24276466.049
  21961260.258   -19590546.55149 -15253284.33447  21961259.487    21961264.016
  20943867.513   -21673274.31449 -16190515.67048  20943867.012    20943871.673
 03  4  3  3 34 30.0000000  0  4G11G20G14G25
  21453242.213   -14461935.52449  -5555957.65847  21453241.590    21453245.777
  24260008.652    -5619880.52849  -4368913.92945  24260007.596    24260014.599
  21974908.084   -19518825.82249 -15197398.02747  21974907.318    21974912.002
  20936469.123   -21712153.55649 -16220811.14348  20936468.554    20936473.147
 03  4  3  3 35  0.0000000  0  4G11G20G14G25
  21446677.036   -14496435.42749  -5582840.67047  21446676.365    21446680.680
  24243554.318    -5706350.67249  -4436293.17945  24243553.067    24243560.159
  21988581.108   -19446973.26449 -15141408.98547  21988580.452    21988585.091
  20929166.689   -21750527.31149 -16250712.73248  20929166.140    20929170.825
 03  4  3  3 35 30.0000000  0  4G11G20G14G25
  21440210.410   -14530416.46349  -5609319.36847  21440209.901    21440214.290
  24227096.447    -5792838.07649  -4503685.86145  24227095.240    24227102.275
  22002278.893   -19374991.71249 -15085319.45547  22002278.190    22002282.672
  20921960.381   -21788395.99549 -16280220.75648  20921959.839    20921964.601
 03  4  3  3 36  0.0000000  0  4G11G20G14G25
  21433843.979   -14563873.42349  -5635389.71347  21433843.349    21433847.621
  24210635.989    -5879338.04849  -4571088.36245  24210634.866    24210641.802
  22016001.699   -19302878.78649 -15029127.55447  22016000.969    22016005.259
  20914851.281   -21825754.34449 -16309331.12248  20914850.750    20914855.503
 03  4  3  3 36 30.0000000  0  4G11G20G14G25
  21427577.327   -14596804.73849  -5661050.43447  21427576.648    21427580.961
  24194173.324    -5965849.68249  -4638499.97745  24194172.313    24194179.058
  22029749.182   -19230635.69949 -14972834.24247  22029748.432    22029752.605
  20907839.558   -21862600.85549 -16338042.64048  20907839.015    20907843.904
 03  4  3  3 37  0.0000000  0  4G11G20G14G25
  21421410.349   -14629211.51749  -5686302.45647  21421409.757    21421414.109
  24177708.197    -6052374.50149  -4705921.80045  24177707.183    24177714.010
  22043520.574   -19158266.36849 -14916442.55447  22043519.869    22043523.919
  20900925.027   -21898936.62149 -16366356.19948  20900924.541    20900929.539
 03  4  3  3 37 30.0000000  0  4G11G20G14G25
  21415343.589   -14661092.81349  -5711145.00247  21415342.986    21415347.265
  24161240.813    -6138911.85449  -4773353.43745  24161239.702    24161246.903
  22057315.751   -19085772.58649 -14859953.87747  22057314.989    22057318.850
  20894107.953   -21934761.04749 -16394271.29348  20894107.400    20894112.324
 03  4  3  3 38  0.0000000  0  4G11G20G14G25
  21409377.459   -14692445.00049  -5735575.24647  21409376.837    21409381.092
  24144771.208    -6225458.64249  -4840792.37544  24144770.414    24144777.630
  22071134.670   -19013153.42349 -14803367.53047  22071133.912    22071137.719
  20887388.707   -21970070.94449 -16421785.45448  20887388.182    20887393.074
 03  4  3  3 38 30.0000000  0  4G11G20G14G25
  21403512.073   -14723267.69349  -5759592.88647  21403511.457    21403515.837
  24128299.878    -6312014.63049  -4908238.52244  24128298.658    24128305.101
  22084976.983   -18940411.26649 -14746685.30847  22084976.209    22084980.078
  20880767.502   -22004865.74849 -16448898.24848  20880766.996    20880771.808
 03  4  3  3 39  0.0000000  0  4G11G20G14G25
  21397747.479   -14753560.70349  -5783197.81247  21397746.878    21397751.188
  24111827.189    -6398580.29249  -4975692.13044  24111825.922    24111832.097
  22098842.292   -18867548.46949 -14689909.07547  22098841.520    22098845.504
  20874244.246   -22039145.73849 -16475609.87748  20874243.732    20874248.509
 03  4  3  3 39 30.0000000  0  4G11G20G14G25
  21392083.580   -14783324.43649  -5806390.30747  21392083.009    21392087.232
  24095352.632    -6485156.35049  -5043153.90544  24095351.463    24095357.400
  22112729.995   -18794568.33349 -14633041.42347  22112729.146    22112733.333
  20867818.812   -22072911.45349 -16501920.78548  20867818.310    20867823.106
 03  4  3  3 40  0.0000000  0  4G11G20G14G25
  21386520.917   -14812556.28549  -5829168.33547  21386520.310    21386524.527
  24078876.285    -6571740.23749  -5110621.80944  24078874.863    24078880.955
  22126640.063   -18721470.53649 -14576082.08547  22126639.216    22126643.560
  20861491.841   -22106160.09749 -16527828.77948  20861491.320    20861496.156
 03  4  3  3 40 30.0000000  0  4G11G20G14G25
  21381059.895   -14841254.20049  -5851530.32947  21381059.281    21381063.488
  24062398.654    -6658330.36749  -5178094.58144  24062396.660    24062403.540
  22140572.452   -18648255.58249 -14519031.47747  22140571.541    22140576.054
  20855263.513   -22138889.98849 -16553332.54448  20855262.992    20855267.747
 03  4  3  3 41  0.0000000  0  4G11G20G14G25
  21375700.715   -14869417.07749  -5873475.41147  21375700.111    21375704.222
  24045920.022    -6744926.03249  -5245571.59644  24045918.506    24045924.303
  22154526.588   -18574925.06949 -14461890.80447  22154525.771    22154530.393
  20849133.969   -22171100.51649 -16578431.61048  20849133.445    20849138.139
 03  4  3  3 41 30.0000000  0  4G11G20G14G25
  21370443.774   -14897042.65849  -5895001.81647  21370443.150    21370447.181
  24029440.340    -6831524.75649  -5313051.00744  24029439.017    24029445.632
  22168502.724   -18501479.10249 -14404660.16947  22168501.906    22168506.626
  20843103.748   -22202789.28549 -16603124.12148  20843103.260    20843107.917
 03  4  3  3 42  0.0000000  0  4G11G20G14G25
  21365288.887   -14924131.66949  -5916110.10347  21365288.269    21365292.249
  24012960.276    -6918127.95649  -5380533.97744  24012958.885    24012965.550
  22182500.081   -18427921.16449 -14347342.28147  22182499.256    22182504.236
  20837172.802   -22233957.24449 -16627410.80248  20837172.276    20837176.800
 03  4  3  3 42 30.0000000  0  4G11G20G14G25
  21360236.119   -14950684.35949  -5936800.48947  21360235.467    21360239.447
  23996479.381    -7004736.08149  -5448020.76544  23996478.013    23996484.377
  22196518.217   -18354253.92249 -14289939.22046  22196517.431    22196522.656
  20831340.725   -22264605.02849 -16651292.15348  20831340.183    20831344.643
 03  4  3  3 43  0.0000000  0  4G11G20G14G25
  21355285.600   -14976699.29249  -5957071.83147  21355284.954    21355289.037
  23979997.709    -7091347.32149  -5515509.98144  23979996.385    23980003.116
  22210557.091   -18280478.18449 -14232451.61146  22210556.412    22210561.672
  20825607.870   -22294731.09149 -16674766.97648  20825607.322    20825611.822
 03  4  3  3 43 30.0000000  0  4G11G20G14G25
  21350438.115   -15002172.41449  -5976920.98147  21350437.430    21350441.652
  23963515.470    -7177957.88449  -5582998.63844  23963514.716    23963521.719
  22224617.057   -18206592.24649 -14174878.16646  22224616.448    22224621.530
  20819975.011   -22324331.61149 -16697832.27748  20819974.442    20819978.916
 03  4  3  3 44  0.0000000  0  4G11G20G14G25
  21345693.338   -15027105.29649  -5996349.17247  21345692.754    21345696.985
  23947033.932    -7264569.66049  -5650488.22444  23947032.605    23947039.418
  22238697.472   -18132600.25549 -14117222.08246  22238696.790    22238701.543
  20814441.753   -22353408.44449 -16720489.51448  20814441.213    20814445.685
 03  4  3  3 44 30.0000000  0  4G11G20G14G25
  21341051.101   -15051500.32249  -6015358.24847  21341050.448    21341054.666
  23930551.950    -7351185.11048  -5717980.66644  23930550.344    23930556.867
  22252797.272   -18058506.90349 -14059486.99947  22252796.469    22252801.091
  20809007.572   -22381963.94049 -16742740.51648  20809007.074    20809011.756
 03  4  3  3 45  0.0000000  0  4G11G20G14G25
  21336512.452   -15075350.48349  -6033942.74847  21336511.810    21336516.176
  23914069.712    -7437796.94148  -5785470.35144  23914068.336    23914075.182
  22266916.902   -17984307.48149 -14001669.26547  22266916.205    22266920.852
  20803673.978   -22409991.63249 -16764580.25048  20803673.507    20803678.345
 03  4  3  3 45 30.0000000  0  4G11G20G14G25
  21332076.918   -15098658.92749  -6052105.14247  21332076.291    21332080.654
  23897588.296    -7524408.53348  -5852959.88844  23897586.987    23897593.924
  22281055.838   -17910007.28749 -13943773.00647  22281055.136    22281059.842
  20798440.299   -22437494.84049 -16786011.29148  20798439.790    20798444.695
 03  4  3  3 46  0.0000000  0  4G11G20G14G25
  21327745.091   -15121423.46849  -6069843.71847  21327744.430    21327748.743
  23881107.156    -7611017.57348  -5920447.34744  23881105.685    23881112.412
  22295213.967   -17835606.54049 -13885798.39047  22295213.165    22295217.845
  20793306.757   -22464471.54249 -16807032.06348  20793306.294    20793311.127
 03  4  3  3 46 30.0000000  0  4G11G20G14G25
  21323516.734   -15143643.38049  -6087157.90847  21323516.107    21323520.387
  23864626.593    -7697623.22649  -5987932.21344  23864625.175    23864632.024
  22309390.907   -17761106.51849 -13827746.41347  22309390.120    22309394.671
  20788273.641   -22490920.92449 -16827641.93148  20788273.158    20788277.880
 03  4  3  3 47  0.0000000  0  4G11G20G14G25
  21319392.378   -15165317.34949  -6104046.71347  21319391.702    21319395.836
  23848147.055    -7784224.05958  -6055413.23544  23848145.501    23848152.217
  22323586.570   -17686508.35949 -13769617.93747  22323585.763    22323590.136
  20783341.050   -22516842.21149 -16847840.31148  20783340.553    20783345.163
 03  4  3  3 47 30.0000000  0  4G11G20G14G25
  21315371.874   -15186445.47149  -6120510.16347  21315371.215    21315375.285
  23831668.510    -7870820.16248  -6122890.55844  23831667.378    23831673.342
  22337800.499   -17611814.35049 -13711414.80346  22337799.574    22337803.830
  20778508.826   -22542235.67349 -16867627.38848  20778508.338    20778512.885
 03  4  3  3 48  0.0000000  0  4G11G20G14G25
  21311455.269   -15207027.64349  -6136548.19947  21311454.607    21311458.550
  23815191.187    -7957411.02448  -6190363.95244  23815189.987    23815195.934
  22352032.024   -17537026.39049 -13653138.48146  22352031.122    22352035.498
  20773777.033   -22567101.21449 -16887003.10048  20773776.554    20773781.076
 03  4  3  3 48 30.0000000  0  5G11G20G14G 1G25
  21307639.980   -15227077.61749  -6152171.53747  21307639.278    21307643.178
  23798711.532    -8044010.29548  -6257843.91344  23798710.130    23798715.963
  22366278.281   -17462160.48849 -13594801.40046  22366277.439    22366281.963
  24613048.407    -4914528.98449  -3619275.07145  24613047.402    24613056.330
  20769143.044   -22591452.56949 -16905978.15248  20769142.592    20769147.117
 03  4  3  3 49  0.0000000  0  5G11G20G14G 1G25
  21303930.414   -15246570.75849  -6167360.97547  21303929.786    21303933.762
  23782234.850    -8130593.20848  -6325311.15944  23782233.205    23782238.175
  22380543.974   -17387193.82349 -13536385.81446  22380543.142    22380547.412
  24597548.768    -4995978.45049  -3682741.97545  24597547.794    24597556.645
  20764611.598   -22615265.74649 -16924533.84448  20764611.129    20764615.614
 03  4  3  3 49 30.0000000  0  5G11G20G14G 1G25
  21300326.271   -15265510.37849  -6182119.10947  21300325.661    21300329.664
  23765761.432    -8217162.90448  -6392768.01544  23765759.747    23765765.070
  22394827.831   -17312131.87149 -13477895.98346  22394827.054    22394831.018
  24582078.620    -5077273.19249  -3746088.37945  24582077.692    24582086.305
  20760181.931   -22638544.29749 -16942672.94648  20760181.425    20760185.866
 03  4  3  3 50  0.0000000  0  5G11G20G14G 1G25
  21296827.191   -15283897.86249  -6196446.98647  21296826.554    21296830.566
  23749290.032    -8303720.36048  -6460215.29144  23749288.069    23749293.934
  22409129.171   -17236978.10949 -13419334.63146  22409128.373    22409132.127
  24566637.483    -5158414.93349  -3809315.48745  24566636.881    24566645.212
  20755853.760   -22661289.25649 -16960396.26348  20755853.232    20755857.615
 03  4  3  3 50 30.0000000  0  5G11G20G14G 1G25
  21293433.159   -15301733.32649  -6210344.72847  21293432.504    21293436.530
  23732821.238    -8390265.52349  -6527653.03044  23732819.160    23732825.148
  22423447.622   -17161734.60149 -13360703.33446  22423446.780    22423450.426
  24551225.578    -5239404.19549  -3872423.83145  24551224.872    24551233.337
  20751626.845   -22683501.34049 -16977704.35148  20751626.318    20751630.726
 03  4  3  3 51  0.0000000  0  5G11G20G14G 1G25
  21290144.166   -15319016.84349  -6223812.38147  21290143.550    21290147.521
  23716354.732    -8476798.02549  -6595080.86944  23716352.581    23716358.717
  22437782.701   -17086403.62049 -13302003.86846  22437781.887    22437785.586
  24535842.442    -5320241.44649  -3935413.77645  24535841.422    24535850.406
  20747501.333   -22705180.81949 -16994597.42448  20747500.814    20747505.241
 03  4  3  3 51 30.0000000  0  5G11G20G14G 1G25
  21286960.542   -15335747.23349  -6236849.03247  21286959.904    21286963.821
  23699890.470    -8563316.36749  -6662497.74744  23699888.798    23699894.705
  22452134.284   -17010985.58949 -13243236.55046  22452133.512    22452137.353
  24520488.576    -5400925.44649  -3998284.26445  24520487.690    24520496.660
  20743477.379   -22726326.57449 -17011074.61248  20743476.870    20743481.307
 03  4  3  3 52  0.0000000  0  5G11G20G14G 1G25
  21283882.026   -15351925.10949  -6249455.14647  21283881.375    21283885.304
  23683428.831    -8649820.52049  -6729903.57744  23683427.565    23683435.466
  22466502.142   -16935482.85049 -13184403.23646  22466501.255    22466505.309
  24505163.940    -5481457.08749  -4061036.06845  24505163.068    24505171.866
  20739554.880   -22746939.56349 -17027136.65648  20739554.395    20739558.772
 03  4  3  3 52 30.0000000  0  5G11G20G14G 1G25
  21280908.747   -15367549.78649  -6261630.20447  21280908.104    21280911.944
  23666970.222    -8736309.57249  -6797297.61444                  23666968.681
  22480885.629   -16859896.92449 -13125505.08946  22480884.768    22480888.955
  24489868.209    -5561836.04049  -4123668.84345  24489867.598    24489876.260
  20735733.855   -22767019.23849 -17042783.11848  20735733.361    20735737.655
 03  4  3  3 53  0.0000000  0  5G11G20G14G 1G25
  21278040.868   -15382620.62649  -6273373.70547  21278040.189    21278043.893
                  -8822782.58549  -6864679.30843
  22495284.476   -16784229.00949 -13066543.07546  22495283.749    22495288.088
  24474601.652    -5642061.89949  -4186182.39445  24474600.987    24474609.764
  20732014.387   -22786564.99649 -17058013.55048  20732013.915    20732018.259
 03  4  3  3 53 30.0000000  0  5G11G20G14G 1G25
  21275278.438   -15397136.92849  -6284685.08947  21275277.802    21275281.585
                  -8909238.11149  -6932047.49344
  22509699.050   -16708480.03649 -13007517.89746  22509698.221    22509702.567
  24459364.083    -5722133.85049  -4248576.03145  24459363.565    24459372.508
  20728396.611   -22805576.63649 -17072827.79548  20728396.100    20728400.543
 03  4  3  3 54  0.0000000  0  5G11G20G14G 1G25
  21272621.618   -15411098.53449  -6295564.24447  21272620.961    21272624.926
                  -8995675.47849  -1119697.33943
  22524128.629   -16632651.60549 -12948430.81646  22524127.821    22524132.151
  24444155.863    -5802052.04949  -4310849.88145  24444155.134    24444164.247
  20724880.309   -22824053.99749 -17087225.71848  20724879.845    20724884.436
 03  4  3  3 54 30.0000000  0  5G11G20G14G 1G25
  21270070.462   -15424504.86949  -6306010.71947  21270069.827    21270073.797
                  -9082093.58549  -1187031.47843
  22538573.138   -16556745.10649 -12889282.88446  22538572.301    22538576.644
  24428977.204    -5881816.37249  -4373003.78645  24428976.551    24428985.396
  20721465.768   -22841996.84449 -17101207.14148  20721465.308    20721469.965
 03  4  3  3 55  0.0000000  0  5G11G20G14G 1G25
  21267624.963   -15437356.34749  -6316024.85047  21267624.280    21267628.213
                  -9168491.83749  -1254347.17843
  22553032.195   -16480762.13349 -12830075.37146  22553031.401    22553035.775
  24413827.930    -5961427.02049  -4435037.90245  24413827.319    24413836.015
  20718153.077   -22859405.13149 -17114772.00648  20718152.631    20718157.193
 03  4  3  3 55 30.0000000  0  5G11G20G14G 1G25
  21265285.089   -15449652.44949  -6325606.20447  21265284.400    21265288.396
                  -9254869.73948  -1126114.87043
  22567505.613   -16404704.44549 -12770809.63446  22567504.782    22567509.110
  24398707.949    -6040884.01749  -4496952.31645  24398707.198    24398715.717
  20714942.129   -22876279.14249 -17127920.55248  20714941.614    20714946.075
 03  4  3  3 56  0.0000000  0  5G11G20G14G 1G25
  21263051.029   -15461391.92649  -6334753.81747  21263050.357    21263054.437
                  -9341225.00348  -1193384.68343
  22581993.107   -16328572.02649 -12711485.67546  22581992.302    22581996.700
  24383616.963    -6120185.84949  -4558745.86045  24383616.274    24383625.030
  20711833.035   -22892617.73649 -17140651.90148  20711832.477    20711836.875
 03  4  3  3 56 30.0000000  0  5G11G20G14G 1G25
  21260923.261   -15472573.47649  -6343466.68447  21260922.590    21260926.625
                  -9427555.82248  -1260617.96343
  22596494.500   -16252365.46349 -12652103.91546  22596493.783    22596498.406
  24368555.872    -6199331.61349  -4620417.79645  24368555.169    24368564.030
  20708825.920   -22908419.92149 -17152965.25948  20708825.399    20708829.693
 03  4  3  3 57  0.0000000  0  5G11G20G14G 1G25
  21258901.297   -15483198.40949  -6351745.82747  21258900.649    21258904.811
                  -9513862.65548  -1132559.43143
  22611009.684   -16176087.51149 -12592666.54446  22611008.884    22611013.668
  24353524.631    -6278322.53249  -4681969.06545  24353523.717    24353532.584
  20705920.720   -22923687.07949 -17164861.71448  20705920.180    20705924.422
 03  4  3  3 57 30.0000000  0  5G11G20G14G 1G25
  21256985.539   -15493265.71849  -6359590.46547  21256984.955    21256989.123
                  -9600143.71648  -1199792.67043
  22625538.397   -16099738.68149 -12533173.92646  22625537.516    22625542.337
  24338522.557    -6357157.62149  -4743398.88745  24338521.702    24338530.691
  20703117.452   -22938418.43549 -17176340.66948  20703116.950    20703121.181
 03  4  3  3 58  0.0000000  0  5G11G20G14G 1G25
  21255176.151   -15502774.66049  -6367000.02047  21255175.488    21255179.538
                  -9686397.53849  -1267006.07143
  22640080.313   -16023319.89849 -12473626.82846  22640079.539    22640084.244
  24323550.254    -6435836.30149  -4804706.86145  24323549.527    24323558.575
  20700416.248   -22952613.45849 -17187401.69648  20700415.681    20700419.995
 03  4  3  3 58 30.0000000  0  5G11G20G14G 1G25
  21253472.942   -15511724.83249  -6373974.16547  21253472.248    21253476.316
                  -9772623.23149  -1139034.94343
  22654635.650   -15946832.05149 -12414025.91246  22654634.873    22654639.270
  24308607.966    -6514358.42749  -4865892.82045  24308607.431    24308616.079
  20697817.063   -22966271.72349 -17198044.48648  20697816.500    20697820.969
 03  4  3  3 59  0.0000000  0  5G11G20G14G 1G25
  21251875.759   -15520117.63949  -6380513.99847  21251875.143    21251879.128
                  -9858820.77949  -1206201.38543
  22669203.491   -15870278.07949 -12354373.48446  22669202.707    22669206.895
  24293695.422    -6592725.05749  -4926957.54745  24293694.636    24293702.988
  20695319.688   -22979394.96849 -17208270.37848  20695319.169    20695323.740
 03  4  3  3 59 30.0000000  0  5G11G20G14G 1G25
  21250384.920   -15527952.84149  -6386619.34347  21250384.245    21250388.090
                  -9944989.47149  -1273345.66243
  22683783.629   -15793659.23549 -12294670.49346  22683782.854    22683786.993
  24278812.201    -6670935.91449  -4987900.95245  24278811.469    24278819.714
  20692924.241   -22991983.08149 -17218079.27248  20692923.677    20692928.271
 03  4  3  4  0  0.0000000  0  5G11G20G14G 1G25
  21249000.648   -15535227.46149  -6392287.86947  21248999.954    21249003.671
                 -10031125.29149  -1340464.54544                  23420580.751
  22698376.376   -15716973.78849 -12234915.58746  22698375.641    22698379.769
  24263959.308    -6748988.31949  -5048720.85545  24263958.601    24263966.821
  20690631.079   -23004033.44449 -17227469.14748  20690630.535    20690635.175
 03  4  3  4  0 30.0000000  0  5G11G20G14G 1G25
  21247722.585   -15541943.59049  -6397521.19947  21247721.958    21247725.542
  23404189.457   -10117229.53949  -1407558.62144  23404190.116    23404196.033
  22712981.277   -15640225.47649 -12175111.70546  22712980.540    22712984.571
  24249136.474    -6826884.35049  -5109418.93345  24249135.523    24249143.724
  20688439.802   -23015548.38749 -17236441.81348  20688439.311    20688443.899
 03  4  3  4  1  0.0000000  0  5G11G20G14G 1G25
  21246550.921   -15548100.79749  -6402319.02247  21246550.240    21246553.884
  23387810.610   -10203300.66949  -1474626.97644  23387807.797    23387815.392
  22727597.986   -15563415.17849 -12115259.51446  22727597.112    22727601.170
  24234343.400    -6904623.48849  -5169994.73445  24234342.405    24234350.285
  20686350.524   -23026527.49849 -17244996.94848  20686350.048    20686354.600
 03  4  3  4  1 30.0000000  0  5G11G20G14G 1G25
  21245485.757   -15553697.60349  -6406680.13447  21245485.117    21245488.915
  23371437.994   -10289335.91149  -1541667.38444  23371436.151    23371442.636
  22742226.168   -15486542.36649 -12055358.62046  22742225.445    22742229.546
  24219579.992    -6982203.82949  -5230446.83745  24219578.806    24219586.909
  20684363.513   -23036969.27249 -17253133.37148  20684363.024    20684367.545
 03  4  3  4  2  0.0000000  0  5G11G20G14G 1G25
  21244527.555   -15558732.68049  -6410603.54547  21244526.920    21244530.846
  23355073.164   -10375332.91949  -1608677.96445  23355072.379    23355077.852
  22756866.499   -15409606.80349 -11995408.82446  22756865.770    22756869.861
  24204846.740    -7059623.97649  -5290774.14245  24204845.895    24204854.257
  20682478.976   -23046872.52849 -17260850.18448  20682478.458    20682482.985
 03  4  3  4  2 30.0000000  0  5G11G20G14G 1G25
  21243675.867   -15563207.94449  -6414090.74747  21243675.240    21243679.296
  23338716.064   -10461293.13149  -1675659.83845  23338715.323    23338719.945
  22771518.109   -15332612.15749 -11935413.00946  22771517.367    22771521.306
  24190144.562    -7136886.14049  -5350978.30145  24190143.462    24190151.906
  20680696.427   -23056239.97449 -17268149.47848  20680695.932    20680700.390
 03  4  3  4  3  0.0000000  0  5G11G20G14G 1G25
  21242930.524   -15567124.77949  -6417142.81247  21242929.916    21242933.847
  23322365.639   -10547215.97949  -1742612.62245  23322364.813    23322369.401
  22786180.400   -15255560.59849 -11875372.81546  22786179.616    22786183.575
  24175472.176    -7213991.15449  -5411060.00545  24175471.138    24175479.156
  20679015.741   -23065072.45649 -17275031.90748  20679015.216    20679019.535
 03  4  3  4  3 30.0000000  0  5G11G20G14G 1G25
  21242291.852   -15570481.14449  -6419758.15147  21242291.188    21242295.131
  23306022.482   -10633099.02749  -1809534.39145  23306021.678    23306026.368
  22800853.484   -15178451.70749 -11815287.94346  22800852.778    22800856.997
  24160830.010    -7290937.36749  -5471017.93545  24160828.936    24160836.769
  20677437.092   -23073368.49149 -17281496.32148  20677436.529    20677440.698
 03  4  3  4  4  0.0000000  0  5G11G20G14G 1G25
  21241759.716   -15573277.00549  -6421936.72647  21241759.136    21241763.131
  23289687.218   -10718940.73249  -1876423.93445  23289686.376    23289691.404
  22815537.607   -15101286.27749 -11755159.03146  22815536.832    22815541.189
  24146217.516    -7367724.29049  -5530851.89945  24146216.463    24146224.586
  20675960.451   -23081127.97249 -17287542.67048  20675959.901    20675964.108
 03  4  3  4  4 30.0000000  0  5G11G20G14G 1G25
  21241334.354   -15575512.20049  -6423678.42947  21241333.761    21241337.758
  23273360.169   -10804739.86749  -1943280.33745  23273359.399    23273364.433
  22830232.319   -15024065.13549 -11694986.73046  22830231.460    22830235.830
  24131635.799    -7444351.71649  -5590561.44545  24131634.886    24131642.391
  20674585.863   -23088351.08449 -17293171.05648  20674585.352    20674589.614
 03  4  3  4  5  0.0000000  0  5G11G20G14G 1G25
  21241015.717   -15577187.10449  -6424983.54847  21241015.121    21241018.893
  23257041.162   -10890495.36849  -2010102.69945  23257040.437    23257045.947
  22844937.050   -14946789.90449 -11634772.25746  22844936.270    22844940.771
  24117084.200    -7520819.96649  -5650146.96545  24117083.331    24117090.619
  20673313.402   -23095037.98149 -17298381.60848  20673312.913    20673317.178
 03  4  3  4  5 30.0000000  0  5G11G20G14G 1G25
  21240803.825   -15578301.04549  -6425851.56147  21240803.178    21240806.780
  23240730.912   -10976205.54349  -2076889.77445  23240730.038    23240735.812
  22859652.260   -14869461.00749 -11574515.98646  22859651.492    22859656.037
                  -7597127.98949  -5709607.63045                  24102569.367
  20672142.977   -23101188.88049 -17303174.49348  20672142.503    20672146.730
 03  4  3  4  6  0.0000000  0  5G11G20G14G 1G25
  21240698.152   -15578855.75849  -6426283.79647  21240697.531    21240701.253
  23224429.049   -11061870.87149  -2143641.93645  23224428.194    23224434.370
  22874377.308   -14792081.33349 -11514220.13646  22874376.498    22874380.911
  24088072.570    -7673277.60349  -5768944.86645  24088071.705    24088078.445
  20671074.139   -23106805.94649 -17307551.41348  20671073.634    20671077.888
 03  4  3  4  6 30.0000000  0  5G11G20G14G 1G25
  21240699.112   -15578851.00949  -6426280.08947  21240698.470    21240702.140
  23208136.017   -11147489.42249  -2210357.63745  23208135.302    23208141.696
  22889111.811   -14714651.28049 -11453885.01546  22889111.038    22889115.367
  24073612.105    -7749267.78149  -5828157.90445  24073611.166    24073618.097
  20670106.916   -23111888.23749 -17311511.63148  20670106.453    20670110.811
 03  4  3  4  7  0.0000000  0  5G11G20G14G 1G25
  21240806.825   -15578285.66949  -6425839.56747  21240806.126    21240809.770
  23191852.993   -11233058.66949  -2277034.88745  23191852.184    23191858.144
  22903856.051   -14637170.44549 -11393510.33146  22903855.211    22903859.460
  24059182.006    -7825097.00249  -5887245.53445  24059181.156    24059188.437
  20669241.793   -23116434.67349 -17315054.28448  20669241.342    20669245.634
